[[{"header":{"parameterUnit":"m.s-1","parameterCategory":1,"la1":30.6,"la2":29.2853,"lo1":-89.7004,"lo2":-87.6739,"dx":0.0162,"dy":0.0183,"nx":112,"ny":82,"refTime":"2023-01-06T06:00:00:Z","depth":0,"parameterNumber":2,"parameterNumberName":"U-component_of_WINDS"},"data":[0.0,0.0,0.0,0.0,0.0,0.0,0.0,0.0,0.0,0.0,0.0,0.0,0.0,0.0,0.0,0.0,0.0,0.0,0.0,0.0,0.0,0.0,0.0,0.0,0.0,0.0,0.0,0.0,0.0,0.0,0.0,0.0,0.0,0.0,0.0,0.0,0.0,0.0,0.0,0.0,0.0,0.0,0.0,0.0,0.0,0.0,0.0,0.0,0.0,0.0,0.0,0.0,0.0,0.0,0.0,0.0,0.0,0.0,0.0,0.0,0.0,0.0,0.0,0.0,0.0,0.0,0.0,0.0,0.0,0.0,0.0,0.0,0.0,0.0,0.0,0.0,0.0,0.0,0.0,0.0,0.0,0.0,0.0,0.0,0.0,0.0,0.0,0.0,0.0,0.0,-0.8162,-0.838,-0.9108,-0.9428,-0.9087,-0.8911,-0.8277,-0.6905,0.0,0.0,0.0,0.0,0.0,0.0,0.0,0.0,0.0,0.0,0.0,0.0,0.0,0.0,0.0,0.0,0.0,0.0,0.0,0.0,0.0,0.0,0.0,0.0,0.0,0.0,0.0,0.0,0.0,0.0,0.0,0.0,0.0,0.0,0.0,0.0,0.0,0.0,0.0,0.0,0.0,0.0,0.0,0.0,0.0,0.0,0.0,0.0,0.0,0.0,0.0,0.0,0.0,0.0,0.0,0.0,0.0,0.0,0.0,0.0,0.0,0.0,0.0,0.0,0.0,0.0,0.0,0.0,0.0,0.0,0.0,0.0,0.0,0.0,0.0,0.0,0.0,0.0,0.0,0.0,0.0,0.0,0.0,0.0,0.0,0.0,0.0,0.0,0.0,0.0,0.0,0.0,0.0,0.0,0.0,0.0,0.0,0.0,0.0,0.0,0.0,0.0,0.0,0.0,-0.7678,-0.9247,-0.9529,-0.9602,-0.9515,-0.9174,-0.835,-0.7105,0.0,0.0,0.0,0.0,0.0,0.0,0.0,0.0,0.0,0.0,0.0,0.0,0.0,0.0,0.0,0.0,0.0,0.0,0.0,0.0,0.0,0.0,0.0,0.0,0.0,0.0,0.0,0.0,0.0,0.0,0.0,0.0,0.0,0.0,0.0,0.0,0.0,0.0,0.0,0.0,0.0,0.0,0.0,0.0,0.0,0.0,0.0,0.0,0.0,0.0,0.0,0.0,0.0,0.0,0.0,0.0,0.0,0.0,0.0,0.0,0.0,0.0,0.0,0.0,0.0,0.0,0.0,0.0,0.0,0.0,0.0,0.0,0.0,0.0,0.0,0.0,0.0,0.0,0.0,0.0,0.0,0.0,0.0,0.0,0.0,0.0,0.0,0.0,0.0,0.0,0.0,0.0,0.0,0.0,0.0,0.0,0.0,0.0,0.0,0.0,0.0,0.0,0.0,-0.7749,-0.856,-0.9379,-0.9951,-1.0125,-0.9515,-0.9349,-0.8675,-0.7162,-0.6868,0.0,0.0,0.0,0.0,0.0,0.0,0.0,0.0,0.0,0.0,0.0,0.0,0.0,0.0,0.0,0.0,0.0,0.0,0.0,0.0,0.0,0.0,0.0,0.0,0.0,0.0,0.0,0.0,0.0,0.0,0.0,0.0,0.0,0.0,0.0,0.0,0.0,0.0,0.0,0.0,0.0,0.0,0.0,0.0,0.0,0.0,0.0,0.0,0.0,0.0,0.0,0.0,0.0,0.0,0.0,0.0,0.0,0.0,0.0,0.0,0.0,0.0,0.0,0.0,0.0,0.0,0.0,0.0,0.0,0.0,0.0,0.0,0.0,0.0,0.0,0.0,0.0,0.0,0.0,0.0,0.0,0.0,0.0,0.0,0.0,0.0,0.0,0.0,0.0,0.0,0.0,0.0,0.0,0.0,0.0,0.0,0.0,0.0,0.0,0.0,0.0,0.0,-0.8435,-0.9161,-0.9278,-1.0125,-1.0299,-0.9437,-0.9428,-0.8837,-0.7295,-0.7204,0.0,0.0,0.0,0.0,0.0,0.0,0.0,0.0,0.0,0.0,0.0,0.0,0.0,0.0,0.0,0.0,0.0,0.0,0.0,0.0,0.0,0.0,0.0,0.0,0.0,0.0,0.0,0.0,0.0,0.0,0.0,0.0,0.0,0.0,0.0,0.0,0.0,0.0,0.0,0.0,0.0,0.0,0.0,0.0,0.0,0.0,0.0,0.0,0.0,0.0,0.0,0.0,0.0,0.0,0.0,0.0,0.0,0.0,0.0,0.0,0.0,0.0,0.0,0.0,0.0,0.0,0.0,0.0,0.0,0.0,0.0,0.0,0.0,0.0,0.0,0.0,0.0,0.0,0.0,0.0,0.0,0.0,0.0,0.0,0.0,0.0,0.0,0.0,0.0,0.0,0.0,0.0,0.0,0.0,0.0,0.0,0.0,0.0,0.0,0.0,0.0,0.0,-0.7415,-0.8582,-0.9253,-0.9349,-0.9437,-0.9602,-0.9437,-0.8756,-0.756,-0.7138,0.0,0.0,0.0,0.0,0.0,0.0,0.0,0.0,0.0,0.0,0.0,0.0,0.0,0.0,0.0,0.0,0.0,0.0,0.0,0.0,0.0,0.0,0.0,0.0,0.0,0.0,0.0,0.0,0.0,0.0,0.0,0.0,0.0,0.0,0.0,0.0,0.0,0.0,0.0,0.0,0.0,0.0,0.0,0.0,0.0,0.0,0.0,0.0,0.0,0.0,0.0,0.0,0.0,0.0,0.0,0.0,0.0,0.0,0.0,0.0,0.0,0.0,0.0,0.0,0.0,0.0,0.0,0.0,0.0,0.0,0.0,0.0,0.0,0.0,0.0,0.0,0.0,0.0,0.0,0.0,0.0,0.0,0.0,0.0,0.0,0.0,0.0,0.0,0.0,0.0,0.0,0.0,0.0,0.0,0.0,0.0,0.0,0.0,0.0,0.0,0.0,0.0,-0.6813,-0.7966,-0.7796,-0.9069,-0.9602,-0.8815,-0.9165,-0.8837,-0.7361,0.0,0.0,0.0,0.0,0.0,0.0,0.0,0.0,0.0,0.0,0.0,0.0,0.0,0.0,0.0,0.0,0.0,0.0,0.0,0.0,0.0,0.0,0.0,0.0,0.0,0.0,0.0,0.0,0.0,0.0,0.0,0.0,0.0,0.0,0.0,0.0,0.0,0.0,0.0,0.0,0.0,0.0,0.0,0.0,0.0,0.0,0.0,0.0,0.0,0.0,0.0,0.0,0.0,0.0,0.0,0.0,0.0,0.0,0.0,0.0,0.0,0.0,0.0,0.0,0.0,0.0,0.0,0.0,0.0,0.0,0.0,0.0,0.0,0.0,0.0,0.0,0.0,0.0,0.0,0.0,0.0,0.0,0.0,0.0,0.0,0.0,0.0,0.0,0.0,0.0,0.0,0.0,0.0,0.0,0.0,0.0,0.0,0.0,0.0,0.0,0.0,0.0,-0.4103,-0.5881,-0.7005,-0.6737,-0.8097,-0.8807,-0.8288,-0.8815,-0.8594,-0.7162,0.0,0.0,0.0,0.0,0.0,0.0,0.0,0.0,0.0,0.0,0.0,0.0,0.0,0.0,0.0,0.0,0.0,0.0,0.0,0.0,0.0,0.0,0.0,0.0,0.0,0.0,0.0,0.0,0.0,0.0,0.0,0.0,0.0,0.0,0.0,0.0,0.0,0.0,0.0,0.0,0.0,0.0,0.0,0.0,0.0,0.0,0.0,0.0,0.0,0.0,0.0,0.0,0.0,0.0,0.0,0.0,0.0,0.0,0.0,0.0,0.0,0.0,0.0,0.0,0.0,0.0,0.0,0.0,0.0,0.0,0.0,0.0,0.0,0.0,0.0,0.0,0.0,0.0,0.0,0.0,0.0,0.0,0.0,0.0,0.0,0.0,0.0,0.0,0.0,0.0,0.0,0.0,0.0,0.0,0.0,0.0,0.0,0.0,0.0,0.0,0.0,0.0,-0.3689,-0.4733,-0.5636,-0.634,-0.6428,-0.6871,-0.8113,-0.8201,-0.7853,0.0,0.0,0.0,0.0,0.0,0.0,0.0,0.0,0.0,0.0,0.0,0.0,0.0,0.0,0.0,0.0,0.0,0.0,0.0,0.0,0.0,0.0,0.0,0.0,0.0,0.0,0.0,0.0,0.0,0.0,0.0,0.0,0.0,0.0,0.0,0.0,0.0,0.0,0.0,0.0,0.0,0.0,0.0,0.0,0.0,0.0,0.0,0.0,0.0,0.0,0.0,0.0,0.0,0.0,0.0,0.0,0.0,0.0,0.0,0.0,0.0,0.0,0.0,0.0,0.0,0.0,0.0,0.0,0.0,0.0,0.0,0.0,0.0,0.0,0.0,0.0,0.0,0.0,0.0,0.0,0.0,0.0,0.0,0.0,0.0,0.0,0.0,0.0,0.0,0.0,0.0,0.0,0.0,0.0,0.0,0.0,0.0,0.0,0.0,0.0,0.0,0.0,0.0,-0.3222,-0.4649,-0.5453,-0.5008,-0.5985,-0.6871,-0.7224,-0.7841,-0.7853,-0.6972,0.0,0.0,0.0,0.0,0.0,0.0,0.0,0.0,0.0,0.0,0.0,0.0,0.0,0.0,0.0,0.0,0.0,0.0,0.0,0.0,0.0,0.0,0.0,0.0,0.0,0.0,0.0,0.0,0.0,0.0,0.0,0.0,0.0,0.0,0.0,0.0,0.0,0.0,0.0,0.0,0.0,0.0,0.0,0.0,0.0,0.0,0.0,0.0,0.0,0.0,0.0,0.0,0.0,0.0,0.0,0.0,0.0,0.0,0.0,0.0,0.0,0.0,0.0,0.0,0.0,0.0,0.0,0.0,0.0,0.0,0.0,0.0,0.0,0.0,0.0,0.0,0.0,0.0,0.0,0.0,0.0,0.0,0.0,0.0,0.0,0.0,0.0,0.0,0.0,0.0,0.0,0.0,0.0,0.0,0.0,0.0,0.0,0.0,0.0,0.0,0.0,0.0,-0.2757,-0.4014,-0.4746,-0.4121,-0.5097,-0.598,-0.6334,-0.7217,-0.7477,-0.6911,0.0,0.0,0.0,0.0,0.0,0.0,0.0,0.0,0.0,0.0,0.0,0.0,0.0,0.0,0.0,0.0,0.0,0.0,0.0,0.0,0.0,0.0,0.0,0.0,0.0,0.0,0.0,0.0,0.0,0.0,0.0,0.0,0.0,0.0,0.0,0.0,0.0,0.0,0.0,0.0,0.0,0.0,0.0,0.0,0.0,0.0,0.0,0.0,0.0,0.0,0.0,0.0,0.0,0.0,0.0,0.0,0.0,0.0,0.0,0.0,0.0,0.0,0.0,0.0,0.0,0.0,0.0,0.0,0.0,0.0,0.0,0.0,0.0,0.0,0.0,0.0,0.0,0.0,0.0,0.0,0.0,0.0,0.0,0.0,0.0,0.0,0.0,0.0,0.0,0.0,0.0,0.0,0.0,0.0,0.0,0.0,0.0,0.0,0.0,0.0,0.0,0.0,-0.243,-0.3301,-0.3857,-0.3678,-0.4039,-0.4665,-0.563,-0.6517,-0.7062,-0.6924,0.0,0.0,0.0,0.0,0.0,0.0,0.0,0.0,0.0,0.0,0.0,0.0,0.0,0.0,0.0,0.0,0.0,0.0,0.0,0.0,0.0,0.0,0.0,0.0,0.0,0.0,0.0,0.0,0.0,0.0,0.0,0.0,0.0,0.0,0.0,0.0,0.0,0.0,0.0,0.0,0.0,0.0,0.0,0.0,0.0,0.0,0.0,0.0,0.0,0.0,0.0,0.0,0.0,0.0,0.0,0.0,0.0,0.0,0.0,0.0,-0.3056,-0.0388,0.0,0.0,0.0,0.0,0.0,0.0,0.0,0.0,0.0,0.0,0.0,0.0,0.0,0.0,0.0,0.0,0.0,0.0,0.0,0.0,0.0,0.0,0.0,0.0,0.0,0.0,0.0,0.0,0.0,0.0,0.0,0.0,0.0,0.0,0.0,0.0,0.0,0.0,0.0,0.0,-0.3117,-0.3579,-0.3946,-0.4121,-0.4089,-0.4464,-0.5379,-0.634,-0.7041,-0.7168,-0.7793,0.0,0.0,0.0,0.0,0.0,0.0,0.0,0.0,0.0,0.0,0.0,0.0,0.0,0.0,0.0,0.0,0.0,0.0,0.0,0.0,0.0,0.0,0.0,0.0,0.0,0.0,0.0,0.0,0.0,0.0,0.0,0.0,0.0,0.0,0.0,0.0,0.0,0.0,0.0,0.0,0.0,0.0,0.0,0.0,0.0,0.0,0.0,0.0,0.0,0.0,0.0,0.0,0.0,0.0,0.0,0.0,0.0,0.0,0.0,-0.613,-0.297,0.0,0.0,0.0,0.0,0.0,0.0,0.0,0.0,0.0,0.0,0.0,0.0,0.0,0.0,0.0,0.0,0.0,0.0,0.0,0.0,0.0,0.0,0.0,0.0,0.0,0.0,0.0,0.0,0.0,0.0,0.0,0.0,0.0,0.0,0.0,0.0,0.0,0.0,0.0,0.0,-0.2934,-0.3326,-0.368,-0.3643,-0.3519,-0.401,-0.5257,-0.6305,-0.7228,-0.8147,-0.855,0.0,0.0,0.0,0.0,0.0,0.0,0.0,0.0,0.0,0.0,0.0,0.0,0.0,0.0,0.0,0.0,0.0,0.0,0.0,0.0,0.0,0.0,0.0,0.0,0.0,0.0,0.0,0.0,0.0,0.0,0.0,0.0,0.0,0.0,0.0,0.0,0.0,0.0,0.0,0.0,0.0,0.0,0.0,0.0,0.0,0.0,0.0,0.0,0.0,0.0,0.0,0.0,0.0,-1.0899,-1.1531,-1.2298,-1.3153,-1.2606,-1.1009,-0.9635,-0.6618,-0.2649,-0.2576,0.0,0.0,0.0,0.0,0.0,0.0,0.0,0.0,0.0,0.0,0.0,0.0,0.0,0.0,0.0,0.0,0.0,0.0,0.0,0.0,0.0,0.0,0.1014,0.1047,0.0406,-0.0349,-0.0447,0.0,0.0,0.0,0.0,0.0,0.0,0.0,0.0,0.0,0.0,0.0,-0.2472,-0.2924,-0.3219,-0.2978,-0.3122,-0.382,-0.5317,-0.6367,-0.7698,-0.912,-0.9475,-0.9766,0.0,0.0,0.0,0.0,0.0,0.0,0.0,0.0,0.0,0.0,0.0,0.0,0.0,0.0,0.0,0.0,0.0,0.0,0.0,0.0,0.0,0.0,0.0,0.0,0.0,0.0,0.0,0.0,0.0,0.0,0.0,0.0,-0.4203,-0.6248,0.0,0.0,0.0,0.0,0.0,0.0,0.0,0.0,0.0,0.0,0.0,0.0,0.0,-1.3329,-1.1852,-1.2476,-1.1765,-0.967,-1.2087,-1.2959,-1.2627,-1.4689,-1.4812,-1.3368,-1.3259,0.0,-0.6187,-0.3478,0.0,0.0,0.0,0.0,0.0,0.0,0.0,0.0,0.0,0.0,0.0,0.0,0.0,0.0,0.0,0.0,0.0,0.0,0.0,0.0,0.0,0.0,0.0856,-0.0,-0.0817,-0.1405,-0.144,-0.108,-0.0875,-0.1277,-0.1365,-0.1411,0.0,0.0,0.0,0.0,0.0,0.0,-0.2509,-0.2635,-0.2759,-0.2943,-0.3665,-0.4454,-0.5327,-0.693,-0.835,-0.9403,-1.1071,-1.1468,-1.0491,-1.1556,0.0,0.0,0.0,0.0,0.0,0.0,0.0,0.0,0.0,0.0,0.0,0.0,0.0,0.0,0.0,0.0,0.0,0.0,0.0,0.0,0.0,0.0,0.0,0.0,0.0,0.0,0.0,0.0,0.0,-0.059,-0.4275,-0.8537,-0.9555,-1.0193,0.0,0.0,0.0,0.0,0.0,0.0,0.0,0.0,0.0,-1.1576,-1.4662,-1.5932,-1.4972,-1.6332,-1.6434,-1.5197,-1.5711,-1.5684,-1.5207,-1.5488,-1.4873,-1.369,-1.3363,-1.1934,-0.9438,-0.6633,-0.4559,-0.2941,0.0,0.0,0.0,0.0,-0.0214,0.0193,0.0896,0.1195,0.1256,0.1648,0.0,0.0,0.0,0.0,0.0,0.0,0.0,0.3515,0.1912,0.1175,0.0654,-0.0095,-0.0866,-0.1444,-0.1241,-0.1434,-0.1668,-0.1743,-0.1574,-0.1324,-0.1182,-0.1266,0.0,0.0,0.0,-0.2221,-0.242,-0.2436,-0.2745,-0.3391,-0.3641,-0.4457,-0.6274,-0.7394,-0.8796,-1.0554,-1.1722,-1.2509,-1.2813,-1.2675,-1.2043,0.0,0.0,0.0,0.0,0.0,0.0,0.0,0.0,0.0,0.0,0.0,0.0,0.0,0.0,0.0,0.0,0.0,0.0,0.0,0.0,0.0,0.0,0.0,0.0,0.0,0.0,0.0,0.0,-0.2949,-0.6985,-1.0952,-1.2341,-1.2963,0.0,0.0,0.0,0.0,0.0,0.0,-1.2229,-1.4463,-1.5276,-1.426,-1.7178,-1.8555,-1.8232,-1.9667,-2.0045,-1.9385,-1.8156,-1.7312,-1.6759,-1.5523,-1.4437,-1.3482,-1.2923,-1.2298,-1.1589,-0.8806,-0.6363,-0.4308,-0.3869,-0.3504,-0.3239,-0.2565,-0.2095,-0.1664,-0.0691,-0.0465,-0.0395,0.0535,0.0688,0.0464,0.0774,0.0,0.0,0.0,0.0,0.4028,0.3155,0.1918,0.0847,0.0198,-0.0594,-0.108,-0.0878,-0.1365,-0.171,-0.1816,-0.166,-0.1406,-0.1153,-0.1273,0.0,-0.1356,-0.1771,-0.212,-0.2167,-0.2415,-0.2909,-0.3657,-0.3894,-0.4926,-0.7024,-0.811,-0.9485,-1.1463,-1.2446,-1.3522,-1.4688,-1.3964,-1.3574,-1.3639,0.0,0.0,0.0,0.0,0.0,0.0,0.0,0.0,0.0,0.0,0.0,0.0,0.0,0.0,0.0,0.0,0.0,0.0,0.0,0.0,0.0,0.0,0.0,0.0,0.0,0.0,0.0,0.0,0.0,-1.5472,-1.5776,0.0,0.0,0.0,0.0,-1.6251,-1.5474,-1.4943,-1.5006,-1.6872,-1.7839,-1.7669,-2.0508,-2.1981,-2.1746,-2.124,-2.0222,-1.8729,-1.7505,-1.6505,-1.5612,-1.4471,-1.3774,-1.339,-1.2676,-1.2263,-1.1734,-0.8138,-0.6904,-0.6972,-0.3768,-0.2547,-0.2559,-0.2619,-0.1721,-0.0333,-0.0163,0.0413,0.1351,0.2526,0.2898,0.2948,0.2797,0.3274,0.0,0.0,0.3949,0.4683,0.5523,0.3834,0.1587,0.0383,-0.0198,-0.0602,-0.0787,-0.058,-0.0572,-0.0948,-0.1725,-0.2173,-0.1823,0.0,-0.1385,-0.1411,-0.1425,-0.1475,-0.1591,-0.2515,-0.3224,-0.3221,-0.5027,-0.6531,-0.7123,-0.9099,-1.0681,-1.156,-1.3499,-1.458,-1.4688,-1.5752,-1.5866,-1.4779,-1.4223,0.0,0.0,0.0,0.0,0.0,0.0,0.0,0.0,0.0,0.0,0.0,0.0,0.0,0.0,0.0,0.0,0.0,0.0,0.0,0.0,0.0,0.0,0.0,0.0,0.0,0.0,0.0,0.0,-1.8057,-1.8249,0.0,-1.7262,-1.5847,-1.5285,-1.6065,-1.6116,-1.6099,-1.606,-1.8467,-1.9703,-1.9391,-2.1033,-2.179,-2.1555,-2.136,-2.1019,-2.0533,-1.9537,-1.9182,-1.9258,-1.7662,-1.6779,-1.6412,-1.4698,-1.3735,-1.3169,-1.0398,-0.9404,-0.9545,-0.7727,-0.7042,-0.6901,-0.5731,-0.4919,-0.43,-0.319,-0.3048,-0.3115,-0.2511,-0.0748,0.1116,0.0714,0.1036,0.1687,0.27,0.3143,0.3445,0.3732,0.4354,0.3833,-0.0,-0.0,0.0806,0.08,0.0796,0.0891,0.0693,-0.039,-0.1231,-0.1075,-0.1299,-0.1513,-0.1445,-0.1502,-0.1762,-0.2513,-0.2922,-0.3726,-0.5131,-0.5932,-0.703,-0.8612,-0.9797,-1.1072,-1.2727,-1.38,-1.4771,-1.5356,-1.5832,-1.6137,-1.621,-1.5965,-1.5208,0.0,0.0,0.0,0.0,0.0,0.0,0.0,0.0,0.0,0.0,0.0,0.0,0.0,0.0,0.0,0.0,0.0,0.0,0.0,0.0,0.0,0.0,0.0,0.0,0.0,-1.0832,-1.3878,-1.9259,-1.9468,-1.9157,-1.9282,-1.7591,-1.667,-1.7204,-1.7586,-1.7904,-1.8078,-1.9868,-2.0974,-2.1168,-2.1953,-2.2332,-2.2341,-2.2377,-2.2344,-2.2243,-2.1291,-2.1075,-2.1485,-1.9549,-1.8713,-1.8679,-1.6123,-1.5025,-1.4911,-1.2248,-1.142,-1.163,-1.013,-0.9509,-0.9339,-0.7745,-0.6961,-0.642,-0.5016,-0.453,-0.4524,-0.4572,-0.2277,0.0416,-0.0,-0.0098,0.0388,0.1912,0.2093,0.1808,0.181,0.2974,0.338,-0.0101,0.0102,0.1132,0.1338,0.1338,0.1338,0.1338,0.02,-0.0772,-0.0751,-0.1271,-0.1685,-0.1866,-0.2043,-0.2517,-0.3495,-0.4011,-0.483,-0.6237,-0.7172,-0.8172,-0.9517,-1.0554,-1.1915,-1.3711,-1.4266,-1.5145,-1.6209,-1.6006,-1.619,-1.6904,-1.7341,-1.6958,-1.5599,0.0,0.0,0.0,0.0,0.0,0.0,0.0,0.0,0.0,0.0,0.0,0.0,0.0,0.0,0.0,0.0,0.0,0.0,0.0,0.0,0.0,0.0,0.0,-0.7617,-1.4941,-1.9914,-1.9273,-1.9444,-1.9547,-1.9331,-1.8815,-1.8968,-2.0115,-2.0125,-2.045,-2.1194,-2.118,-2.1775,-2.3079,-2.3451,-2.3876,-2.4428,-2.4362,-2.4083,-2.352,-2.2516,-2.1992,-2.1864,-1.9921,-1.9466,-1.9983,-1.6919,-1.6081,-1.6652,-1.3542,-1.2683,-1.3069,-1.0429,-0.9366,-0.9266,-0.8299,-0.7373,-0.642,-0.534,-0.3878,-0.2494,-0.3284,-0.1173,0.1496,0.0962,0.0427,0.0214,0.1282,0.0854,-0.0,-0.0,-0.0107,-0.0,-0.0,-0.0,0.0107,0.064,0.0747,0.0747,0.0747,-0.0,-0.0809,-0.1113,-0.1416,-0.1908,-0.285,-0.3089,0.0,-0.452,-0.5678,-0.6442,-0.6537,-0.8542,-0.9887,-0.9715,-1.1452,-1.3088,-1.4323,-1.49,-1.5803,-1.7073,-1.6497,-1.6435,-1.6931,-1.8336,-1.8926,-1.8727,0.0,0.0,0.0,0.0,0.0,0.0,0.0,0.0,0.0,0.0,0.0,0.0,0.0,0.0,0.0,0.0,0.0,0.0,0.0,0.0,0.0,-0.6824,-1.1012,-1.4724,-1.6624,-1.8421,-2.0565,-2.0365,-2.0544,-2.183,-2.1145,-2.1101,-2.2172,-2.2243,-2.2298,-2.244,-2.2367,-2.2762,-2.3658,-2.3694,-2.4042,-2.482,-2.5071,-2.4839,-2.4233,-2.462,-2.4675,-2.4419,-2.3038,-2.2703,-2.3025,-1.9522,-1.8113,-1.8043,-1.4849,-1.3608,-1.3549,-1.1293,-1.0368,-1.0167,-0.8372,-0.664,-0.534,-0.5578,-0.537,-0.4786,-0.3829,-0.1767,0.0442,0.0221,0.0111,0.0111,0.0332,0.0219,-0.0217,-0.1102,-0.1312,-0.108,-0.0216,-0.0,-0.0,0.0213,0.0533,0.0747,0.0747,0.0847,0.0837,0.0516,-0.1339,-0.2762,-0.2607,-0.3552,-0.4716,-0.6007,-0.6513,-0.734,-0.8924,-0.9323,-1.029,-1.2231,-1.2447,-1.3351,-1.512,-1.5652,-1.6549,-1.7655,-1.7934,-1.8816,-2.0508,-2.0318,-1.9965,0.0,0.0,0.0,0.0,0.0,0.0,0.0,0.0,0.0,0.0,0.0,0.0,0.0,0.0,0.0,0.0,0.0,0.0,0.0,0.0,0.0,0.0,-1.0849,-1.4916,-1.8582,-1.885,-1.9278,-2.088,-2.124,-2.1658,-2.2431,-2.2298,-2.2438,-2.3036,-2.3117,-2.339,-2.4056,-2.3943,-2.4406,-2.5564,-2.5448,-2.5637,-2.6167,-2.6399,-2.6073,-2.5268,-2.571,-2.5933,-2.5843,-2.4202,-2.3857,-2.4374,-2.0582,-1.8964,-1.8612,-1.5398,-1.4047,-1.3828,0.0,0.0,0.0,0.0,-0.6853,-0.5546,-0.6008,-0.6017,-0.546,-0.3889,-0.2015,-0.0336,-0.0336,-0.0336,-0.0336,-0.0112,-0.0222,-0.0441,-0.0894,-0.1444,-0.165,-0.088,-0.0547,-0.0545,-0.1307,-0.0436,0.0436,0.0436,-0.0871,0.0,-0.0843,-0.1877,-0.3084,-0.3595,-0.4778,-0.6077,-0.7648,-0.8233,-0.9124,-1.0751,-1.1097,-1.1785,-1.3325,-1.3596,0.0,0.0,0.0,-1.7794,-1.9067,-1.9333,0.0,0.0,0.0,-2.1246,-2.1648,-2.0692,0.0,0.0,-1.8489,-1.8137,0.0,0.0,0.0,0.0,0.0,0.0,0.0,0.0,0.0,0.0,0.0,0.0,0.0,0.0,0.0,0.0,-1.5475,-1.8024,-2.0211,-2.1162,-2.1383,-2.0709,-2.1982,-2.2712,-2.2162,-2.2803,-2.3278,-2.3397,-2.3476,-2.4219,-2.5742,-2.5746,0.0,0.0,0.0,-2.7757,-2.7933,-2.7895,-2.7397,-2.6412,-2.6315,-2.6367,-2.6491,-2.4249,-2.3911,-2.4849,-2.0975,-1.9177,-1.8819,-1.5619,-1.4155,-1.3792,-1.2523,-1.1795,-1.1306,-0.9229,-0.7554,-0.637,-0.6463,0.0,0.0,-0.3572,-0.2125,-0.1009,-0.1009,-0.1009,-0.0897,-0.0336,-0.0561,-0.0785,-0.0336,-0.1009,-0.1795,-0.1795,-0.157,-0.1794,-0.3474,-0.2241,-0.0784,-0.0559,-0.3924,-0.6232,-0.4085,-0.3263,-0.3488,-0.513,-0.6274,-0.7604,-0.9283,-1.0382,-1.1331,-1.2216,-1.3299,0.0,-1.3777,-1.479,-1.5989,-1.7399,-1.8354,-1.9455,-2.0855,-2.0784,-2.1155,-2.2157,-2.202,-2.2772,-2.4411,-2.391,-2.3918,-2.4113,-2.0243,-1.9629,0.0,0.0,0.0,0.0,0.0,0.0,0.0,0.0,0.0,0.0,0.0,0.0,0.0,0.0,0.0,-1.2305,-1.714,-2.0703,-2.1366,-2.1935,-2.2087,-2.1548,-2.2394,-2.3298,-2.3856,-2.4056,-2.4449,-2.5155,-2.5859,-2.6405,-2.6719,-2.7182,-2.7902,-2.8951,-2.8163,-2.8066,-2.8847,-2.8276,-2.7674,-2.7028,-2.7542,0.0,-2.7488,-2.5959,-2.5494,-2.5708,-2.1873,-2.0206,-1.9918,-1.6472,-1.4485,-1.3501,-1.2464,-1.076,-0.9114,-0.9152,-0.785,-0.6134,-0.7018,-0.6388,-0.5025,-0.3898,-0.269,-0.157,-0.157,-0.157,0.0,-0.1458,-0.1234,-0.1009,-0.1346,-0.157,-0.1795,-0.1795,-0.325,-0.4596,-0.4931,-0.5833,-0.594,-0.4024,-0.4362,-0.5452,-0.6877,-0.6429,-0.5647,-0.5031,-0.74,-0.9442,-1.003,-1.1705,-1.3107,-1.3981,-1.4004,-1.4483,-1.5582,-1.6249,-1.6924,-1.7705,-1.9719,-2.1206,-2.1926,-2.2901,-2.3643,-2.4029,-2.4249,-2.4553,-2.4982,-2.502,-2.5172,-2.5139,-2.3312,-2.2945,0.0,0.0,0.0,0.0,0.0,0.0,0.0,0.0,0.0,0.0,0.0,0.0133,-0.7228,0.0,-1.23,-1.6327,-1.9375,-2.143,-2.1926,-2.2662,-2.2948,-2.2366,-2.3031,-2.3929,-2.4878,-2.5247,-2.5871,-2.6914,-2.7292,-2.7717,-2.8281,-2.8446,-2.8946,-2.9815,-2.8874,-2.8579,-2.9061,-2.875,-2.8293,-2.7636,-2.8377,-2.857,-2.8204,-2.6472,-2.5692,-2.553,-2.2043,-2.032,-1.9843,-1.6896,-1.4695,-1.3237,-1.2668,-1.1198,-0.9477,-0.9225,-0.8247,-0.7027,-0.7529,-0.6986,-0.606,-0.5571,-0.4589,-0.3469,-0.2917,-0.269,-0.2576,-0.2018,-0.157,-0.1458,-0.1683,-0.1795,-0.2018,-0.2802,-0.381,-0.4815,-0.5819,-0.672,-0.7171,-0.6487,-0.6222,-0.6374,-0.7469,-0.7539,-0.7285,-0.6934,-0.8452,-1.0228,-1.1765,-1.311,-1.4334,-1.5475,-1.5833,-1.6238,-1.6901,-1.796,-1.8895,-1.9938,-2.1811,-2.3125,-2.3737,-2.4839,-2.5365,-2.5346,-2.5552,-2.5673,-2.5705,-2.5522,-2.5737,-2.6212,-2.5305,-2.5077,0.0,0.0,0.0,0.0,0.0,0.0,0.0,0.3178,0.161,-0.4934,-0.5225,-0.6331,-1.3045,-1.3737,-1.4988,-2.0269,-2.1351,-2.1755,-2.2467,-2.3343,-2.3847,-2.3572,-2.4141,-2.4846,-2.5632,-2.6396,-2.724,-2.8193,-2.8288,-2.8759,-2.9803,-2.9901,-3.0236,-3.098,-3.0281,-2.9857,-2.9709,-2.9665,-2.9378,-2.8802,-2.9264,-2.9451,-2.9254,-2.6925,-2.5791,-2.5679,-2.2446,-2.0514,-1.9352,-1.7498,-1.539,-1.326,-1.297,-1.2024,-1.0661,-0.955,-0.8642,-0.7948,-0.8131,-0.7808,-0.7241,-0.7209,-0.642,-0.5189,-0.3951,-0.361,-0.338,-0.215,-0.1804,-0.1795,-0.1795,-0.2018,-0.2578,-0.3807,-0.4365,-0.5031,-0.6482,-0.6932,-0.7265,-0.8251,-0.8047,-0.7708,-0.7793,-0.8053,-0.8445,-0.8715,-0.954,-1.0932,-1.3137,-1.4196,-1.5267,-1.665,-1.7338,-1.796,-1.8629,-1.9797,-2.1098,-2.2569,-2.3817,-2.4857,-2.547,-2.6294,-2.6588,-2.6286,-2.638,-2.6361,-2.6351,-2.5945,-2.6258,-2.707,-2.6787,-2.6679,1.4601,1.0103,0.4441,0.5428,0.111,-0.2434,0.0,0.1043,-0.1423,-0.6875,-0.6217,-0.7542,-1.7023,-1.7643,-1.7661,-2.0472,-2.2143,-2.3165,-2.3436,-2.4073,-2.4844,-2.5729,-2.6211,-2.6466,-2.6501,-2.7449,-2.8108,-2.8115,-2.8928,-2.98,-3.0701,-3.1863,-3.2589,-3.2806,-3.3042,-3.2879,-3.2271,-3.1507,-3.1246,-3.1376,-3.0751,-3.0705,-3.1094,-2.8191,-2.7128,-2.7436,-2.4251,-2.1485,-1.9328,-1.9163,-1.711,-1.4176,-1.3396,-1.242,-1.1372,-1.0521,-0.9224,-0.8152,-0.9004,-0.8493,-0.7551,-0.741,-0.6604,-0.5478,-0.4044,-0.3687,-0.3464,-0.2219,-0.1836,-0.1795,-0.1795,-0.2914,-0.3918,-0.3692,-0.6042,-0.8066,-0.7265,-0.7931,-0.8679,-0.8655,-0.8615,-0.8769,-0.9354,-0.919,-0.8715,-0.8165,-1.0354,-1.2284,-1.2815,-1.4251,-1.5644,-1.6867,-1.7401,-1.8673,-2.1424,-2.1812,-2.2771,-2.4748,-2.5321,-2.5919,-2.6646,-2.7169,-2.7207,-2.6845,-2.7226,-2.715,-2.6721,-2.6986,-2.7214,-2.7409,-2.7806,-2.7944,0.2675,0.1468,0.0227,-0.2871,-0.5819,-0.7581,-0.6072,-0.6134,-0.8078,-1.3688,-1.3974,-1.4688,-1.9337,-1.9576,-1.9738,-2.1935,-2.2741,-2.3327,-2.3859,-2.4729,-2.5469,-2.5935,-2.7627,-2.8775,-2.8714,-2.9004,-2.9745,-3.0983,-3.1364,-3.1763,-3.2341,-3.3171,-3.3696,-3.3742,-3.3749,-3.3618,-3.3291,-3.3002,-3.2915,-3.3019,-3.2594,-3.2411,-3.2246,-2.9461,-2.6875,-2.4583,-2.2849,-2.0877,-1.9049,-1.8926,-1.7091,-1.4323,-1.3908,-1.2542,-1.0841,-1.0478,-0.9931,-0.9425,-0.9745,-0.9564,-0.9129,-0.8923,-0.8072,-0.6773,-0.5238,-0.4278,-0.3654,-0.3199,-0.2939,-0.3137,-0.3923,-0.4572,-0.5104,-0.5669,-0.6868,-0.7943,-0.8159,-0.8491,-0.9003,-0.9485,-0.9481,-0.9602,-1.0577,-1.1008,-1.1066,-1.0776,-1.1372,-1.2381,-1.3769,-1.5531,-1.7659,-2.028,-2.0554,-2.1226,-2.2945,-2.3167,-2.3545,-2.4553,-2.5798,-2.6667,-2.6943,-2.8128,-2.8501,-2.8076,-2.825,-2.8095,-2.7699,-2.7718,-2.7745,-2.791,-2.7979,-2.8212,-0.227,-0.2954,-0.3088,-0.9394,-1.1851,-1.2864,-1.3294,-1.3227,-1.4279,-1.8507,-1.9522,-1.9841,-2.0507,-2.0841,-2.1515,-2.2978,-2.3271,-2.3529,-2.4116,-2.5133,-2.5959,-2.6408,-2.8613,-3.0405,-3.1059,-3.0877,-3.1366,-3.2947,-3.3018,-3.319,-3.3667,-3.4437,-3.4901,-3.492,-3.5277,-3.5328,-3.5095,-3.5151,-3.5123,-3.4878,-3.4565,-3.3938,-3.2969,-2.9968,-2.6409,-2.2741,-2.2258,-2.1094,-1.9391,-1.9262,-1.7416,-1.4621,-1.479,-1.3193,-1.0863,-1.1028,-1.0871,-1.0684,-1.0776,-1.0878,-1.0832,-1.0591,-0.9954,-0.8722,-0.6827,-0.5714,-0.5054,-0.4331,-0.4175,-0.4483,-0.5502,-0.5877,-0.6256,-0.7161,-0.7438,-0.782,-0.8712,-0.894,-0.923,-1.0185,-1.0166,-1.0493,-1.1859,-1.2705,-1.3184,-1.3244,-1.3038,-1.3445,-1.495,-1.719,-1.9683,-2.2258,-2.2876,-2.3376,-2.4138,-2.426,-2.4368,-2.4862,-2.6499,-2.7509,-2.7732,-2.908,-2.9531,-2.9101,-2.8984,-2.8711,-2.8301,-2.8067,-2.8106,-2.8164,-2.8388,-2.875,0.7801,0.2586,-0.2416,-1.0222,-1.516,-1.8303,-1.8846,-1.8741,-1.8675,-1.9052,-1.9742,-2.029,-2.0396,-2.1715,-2.285,-2.2997,-2.3676,-2.4153,-2.419,-2.5133,-2.6371,-2.7922,-2.919,-3.0837,-3.3255,-3.3071,-3.2776,-3.2737,-3.3018,-3.3553,-3.4331,-3.5815,-3.6636,-3.6738,-3.8633,-3.9309,-3.8653,-3.8569,-3.816,-3.7369,-3.6536,-3.5112,-3.3083,-2.9509,-2.6443,-2.3751,-2.3787,-2.2703,-2.1156,-2.1061,-1.8712,-1.5213,-1.6046,-1.4568,-1.2151,-1.2949,-1.2406,-1.1429,-1.2142,-1.2381,-1.2348,-1.2176,-1.2242,-1.1682,-0.8757,-0.8343,-0.8366,-0.5643,-0.5238,-0.5537,-0.5647,-0.636,-0.7049,-0.7049,-0.8048,-0.883,-0.894,-0.894,-0.9265,-1.0562,-1.0773,-1.142,-1.348,-1.3804,-1.403,-1.4589,-1.5624,-1.6355,-1.638,-1.8977,-2.0988,-2.1233,-2.2859,-2.4242,-2.5023,-2.5076,-2.5522,-2.6623,-2.7715,-2.8577,-2.9336,-2.9833,-2.998,-2.9551,-2.9141,-2.8711,-2.8301,-2.8281,-2.8174,-2.7979,-2.9164,-2.9669,0.3436,-0.1836,-0.7178,-1.4592,-1.6931,-1.7638,-1.8466,-1.8699,-1.8753,-1.8828,-1.702,-1.5783,-1.6826,-1.7492,-1.8284,-1.9379,-2.2167,-2.4373,-2.4847,-2.6358,-2.781,-2.8914,-3.1008,-3.2705,-3.3582,-3.3522,-3.3701,-3.432,-3.4572,-3.4885,-3.5252,-3.6713,-3.7581,-3.7604,-3.906,-3.9734,-3.9451,-3.9438,-3.907,-3.8269,-3.6414,-3.414,-3.17,-3.0023,-2.7162,-2.3497,-2.3552,-2.2131,-2.0026,-1.9993,-1.8437,-1.5937,-1.6255,-1.5044,-1.3108,-1.3925,-1.3915,-1.3546,-1.3169,-1.3095,-1.3012,-1.275,-1.2028,-1.1202,-0.9876,-0.9019,-0.8464,-0.8329,-0.8308,-0.8509,-0.9235,-0.96,-0.9722,-0.949,-0.9645,-0.9831,-0.9708,-1.0326,-1.1142,-1.2037,-1.2831,-1.3727,-1.4942,-1.6162,-1.7275,-1.8203,-1.7237,-1.7162,-1.9399,-2.068,-2.2145,-2.3945,-2.4538,-2.4966,-2.5466,-2.5501,-2.5608,-2.5745,-2.6695,-2.777,-2.8634,-2.926,-2.9659,-2.957,-3.0169,-3.0303,-3.0154,-3.0895,-3.0937,-3.0282,-3.0615,-3.064,-0.153,-0.577,-0.9528,-1.6386,-1.7434,-1.7007,-1.779,-1.8163,-1.8413,-1.8726,-1.5662,-1.3405,-1.5064,-1.4843,-1.464,-1.5339,-1.8858,-2.1944,-2.3212,-2.5308,-2.7548,-2.9813,-3.2179,-3.368,-3.3819,-3.3771,-3.4112,-3.5116,-3.5401,-3.5584,-3.5657,-3.7224,-3.8059,-3.8029,-3.9451,-4.0244,-4.0253,-4.0394,-4.0019,-3.8985,-3.5921,-3.3367,-3.1358,-3.007,-2.7169,-2.3181,-2.3146,-2.1525,-1.8954,-1.8996,-1.7985,-1.6431,-1.6641,-1.5276,-1.3418,-1.3997,-1.394,-1.3535,-1.4061,-1.4198,-1.4125,-1.3925,-1.3165,-1.2169,-1.1426,-1.0658,-1.0161,-1.0517,-1.0587,-1.0657,-1.1461,-1.1272,-1.1067,-1.1585,-1.1511,-1.1454,-1.1913,-1.2705,-1.3616,-1.4381,-1.5221,-1.6034,-1.7178,-1.8467,-1.9654,-2.0744,-1.9387,-1.8974,-2.0958,-2.1945,-2.3275,-2.5203,-2.5348,-2.5661,-2.6427,-2.6008,-2.5789,-2.5753,-2.6367,-2.7118,-2.8087,-2.924,-3.0015,-3.0438,-3.147,-3.189,-3.1891,-3.2103,-3.1934,-3.1257,-3.1093,-3.0802,-0.6131,-0.8725,-0.9631,-1.5618,-1.683,-1.667,-1.7068,-1.7429,-1.7785,-1.8419,-1.531,-1.2931,-1.4473,-1.3477,-1.2146,-1.1344,-1.4583,-1.7904,-2.002,-2.268,-2.6062,0.0,0.0,0.0,0.0,0.0,-3.415,-3.5078,-3.542,-3.5598,-3.5652,-3.7399,-3.8283,-3.8112,-3.9895,-4.0961,-4.1145,-4.1457,-4.097,-3.9654,-3.5244,-3.286,-3.2134,-2.955,-2.6316,-2.2875,-2.2806,-2.1026,-1.8214,-1.8285,-1.746,-1.649,-1.697,-1.5523,-1.3122,-1.3291,-1.2561,-1.1769,-1.48,-1.5734,-1.5463,-1.5463,-1.5202,-1.466,-1.3274,-1.3302,-1.3448,-1.1931,-1.1736,-1.1954,-1.2233,-1.1654,-1.1413,-1.3199,-1.3479,-1.383,-1.5225,-1.5865,-1.6465,-1.7577,-1.7721,-1.8414,-2.0074,-2.0656,-2.1145,-2.207,-2.1957,-2.1631,-2.1288,-2.278,-2.4128,-2.4778,-2.5348,-2.6209,-2.758,-2.6518,-2.61,-2.6825,-2.6571,-2.6762,-2.786,-2.9531,-3.0843,-3.194,-3.2728,-3.3241,-3.3156,-3.2081,-3.1449,-3.1031,-3.0492,-3.0159,-0.716,-1.0145,-1.3037,-1.5591,-1.6067,-1.6066,-1.6546,-1.7389,-1.7212,-1.421,-1.0558,-0.7466,-0.6064,-0.8047,-1.0264,-1.1346,-1.814,-2.3949,-2.5683,-2.7466,0.0,-3.2024,0.0,-3.3595,-3.4129,-3.4188,0.0,-3.6073,-3.5752,-3.5815,-3.6548,-3.8258,-3.9403,-3.984,-4.1102,-4.185,-4.2077,-4.0818,-4.0034,-3.9605,-3.5798,-3.3526,-3.255,-3.0028,-2.692,-2.3426,-2.297,-2.1284,-1.8673,-1.8752,-1.8209,-1.7477,-1.7543,-1.6217,-1.4092,-1.4405,-1.3663,-1.2759,-1.4681,-1.4695,-1.4119,-1.5443,-1.5593,-1.5332,-1.4903,-1.4604,-1.4326,-1.3837,-1.3779,-1.3653,-1.3483,-1.3864,-1.4231,-1.452,-1.5361,-1.6111,-1.6288,-1.7358,-1.8106,-1.8002,-1.8822,-2.0241,-2.2565,-2.2441,-2.2379,-2.368,-2.368,-2.3456,-2.2667,-2.3344,-2.4128,-2.4778,-2.5348,-2.5898,-2.6209,-2.6645,-2.6844,-2.6626,-2.7013,-2.7772,-2.8971,-2.9184,-2.9736,-3.0631,-3.248,-3.3182,-3.2636,-3.3832,-3.3595,-3.2179,-3.2038,-3.1761,-0.9695,-1.1937,-1.3908,-1.4664,-1.5142,-1.5076,-1.3749,-1.4432,-1.4191,-1.0175,-0.6366,-0.3571,-0.2871,-0.5615,-0.819,0.0,0.0,0.0,-2.4653,-2.6302,-2.8359,0.0,-3.2401,0.0,-3.3378,-3.3739,-3.4469,-3.563,-3.579,-3.634,-3.7446,-3.8687,-3.9507,-3.9937,-4.1261,-4.2146,-4.2422,-4.0623,-3.986,-4.0184,-3.603,-3.3704,-3.2787,-3.0472,-2.7322,-2.3917,-2.3348,-2.1646,-1.9268,-1.9019,-1.8588,-1.8316,-1.857,-1.717,-1.4982,-1.4964,-1.3679,-1.2119,-1.3374,-1.3814,-1.39,-1.5613,-1.5964,-1.5724,-1.5734,-1.5365,-1.5,-1.5024,-1.4688,-1.4519,-1.4848,-1.5195,-1.5682,-1.6748,-1.7552,-1.848,-1.9455,-2.0523,-2.1227,-2.1119,-2.1816,-2.2828,-2.4039,-2.397,-2.3855,-2.4462,-2.4479,-2.4368,-2.4111,-2.4128,-2.4435,-2.513,-2.5482,-2.6424,-2.8224,-2.8353,-2.8539,-2.8823,-2.863,-2.8823,-2.9564,-3.0295,-3.0971,-3.16,-3.4229,-3.4888,-3.3556,-3.456,-3.4134,-3.2472,-3.1979,-3.1513,-1.2601,-1.3616,-1.3483,-1.3538,-1.441,-1.4254,-1.0378,-1.0645,-1.0445,-0.6116,-0.2721,-0.0802,-0.1776,-0.4216,-0.6115,-0.6079,0.0,-1.8383,-2.1521,-2.334,-2.5732,-2.9592,-3.1319,-3.2229,-3.2337,-3.2831,-3.3639,-3.4734,-3.558,-3.6695,-3.8146,-3.9071,-3.9642,-3.9881,-4.13,-4.2193,-4.2462,-4.0437,-3.971,-4.0339,-3.5525,-3.2971,-3.2637,-3.0368,-2.7589,-2.4564,-2.3486,-2.1997,-2.0197,-1.9159,-1.8901,-1.9171,-1.9697,-1.8182,-1.5593,-1.5301,-1.3368,-1.104,-1.2037,-1.3215,-1.4549,-1.5984,-1.6395,-1.6244,-1.6296,-1.5904,-1.5633,-1.5753,-1.5332,-1.5125,-1.6467,-1.6323,-1.6574,-1.9205,-2.0093,-2.0893,-2.2983,-2.4007,-2.4611,-2.4944,-2.5091,-2.5196,-2.5048,-2.5259,-2.5418,-2.5086,-2.5027,-2.5266,-2.5896,-2.5325,-2.5224,-2.6211,-2.6353,-2.7828,-3.1412,-3.064,-3.0489,-3.1927,-3.1003,-3.0161,-3.0054,-3.1948,-3.3099,-3.3155,-3.6162,-3.6841,-3.4934,-3.4798,-3.3854,-3.2353,-3.1264,-3.0525,-1.3506,-1.3808,-1.3891,-1.391,-1.5033,-1.4851,-1.0086,-1.0356,-0.9475,-0.1815,0.0226,0.1321,0.3512,0.0152,-0.4405,-0.8768,-1.4886,-2.0845,-2.6044,-2.7286,-2.8303,0.0,-3.0097,-3.0635,-3.2072,-3.2035,0.0,-3.5346,-3.5143,-3.5742,-3.7684,-4.0359,-4.2325,-4.3368,-4.3384,-4.3023,-4.2379,-3.9435,-3.768,-3.7014,-3.2273,-3.0285,-3.0596,-2.8163,-2.6471,-2.5373,-2.2967,-2.1962,-2.1718,-1.9392,-1.9265,-2.0395,-2.0521,-1.8699,-1.6018,-1.5989,-1.4195,-1.1881,-1.2678,-1.4178,-1.5846,-1.6365,-1.6928,-1.7303,-1.7455,-1.6968,-1.6316,-1.6644,-1.6473,-1.6571,-1.8186,-1.8565,-1.891,-2.0468,-2.1862,-2.2999,-2.3399,-2.4266,-2.526,-2.5822,-2.5683,-2.5656,-2.617,-2.6553,-2.6623,-2.6158,-2.753,-2.8518,-2.7958,-2.7419,-2.7657,-2.8917,-2.9269,-3.0122,-3.165,-3.1567,-3.1781,-3.2491,-3.2833,-3.2727,-3.2038,-3.2362,-3.2315,-3.1886,-3.4784,-3.5555,-3.4261,-3.4668,-3.4198,-3.2914,-3.1456,-3.0806,-1.3184,-1.2977,-1.2933,-1.3925,-1.4467,-1.3278,-0.7555,-0.7139,-0.5708,0.2339,0.3571,0.3559,0.4759,0.1025,0.0,-0.5859,-1.2963,-1.917,-2.2125,-2.5375,-2.7653,-2.8334,-2.8879,-2.9682,0.0,-3.171,-3.2684,-3.4316,-3.4878,-3.6016,-3.8141,-4.0274,-4.211,-4.3567,-4.3061,-4.2844,-4.2967,-3.9861,-3.8159,-3.7781,-3.3473,-3.0774,-2.9602,-2.8492,-2.6323,-2.3314,-2.2028,-2.1021,-2.019,-1.8541,-1.8272,-1.8971,-1.9379,-1.811,-1.6141,-1.6103,-1.478,-1.3051,-1.2904,-1.3956,-1.545,-1.6163,-1.7234,-1.8284,-1.8335,-1.7862,-1.7325,-1.7391,-1.7228,-1.7391,-1.9385,-1.9872,-2.0212,-2.1594,-2.3006,-2.4218,-2.4598,-2.577,-2.692,-2.6958,-2.6811,-2.6646,-2.6809,-2.6738,-2.6517,-2.6295,-2.716,-2.8052,-2.8371,-2.8823,-2.954,-3.084,-3.1207,-3.2031,-3.3791,-3.3901,-3.4054,-3.4318,-3.467,-3.4097,-3.2614,-3.2865,-3.2714,-3.2047,-3.4816,-3.5272,-3.3437,-3.4819,-3.444,-3.2461,-3.1659,-3.1615,-1.2478,-1.2286,-1.2165,-1.3779,-1.3858,-1.1707,-0.4948,-0.3939,-0.2283,0.5325,0.6211,0.5565,0.5183,0.1958,-0.0958,0.0,-0.8577,-1.4618,-1.746,-2.1667,-2.5113,0.0,-2.7967,0.0,-3.0309,-3.1271,0.0,-3.345,-3.4742,-3.6534,-3.8974,-4.0148,-4.1517,-4.3171,-4.2569,-4.2519,-4.3313,-4.0085,-3.8362,-3.8112,-3.4102,-3.0782,-2.8318,-2.813,-2.5649,-2.1365,-2.0622,-1.975,-1.8648,-1.7549,-1.7278,-1.7559,-1.8229,-1.7388,-1.6131,-1.6046,-1.5238,-1.3761,-1.3031,-1.3642,-1.4997,-1.5845,-1.7288,-1.8705,-1.9076,-1.8676,-1.8364,-1.8684,-1.8592,-1.8734,-2.1047,-2.1493,-2.1775,-2.3419,-2.4511,-2.5552,-2.6434,-2.7715,-2.8623,-2.7999,-2.7714,-2.7536,-2.7116,-2.6628,-2.6354,-2.6372,-2.6791,-2.7492,-2.8709,-2.9889,-3.1097,-3.2051,-3.2525,-3.3695,-3.5776,-3.5645,-3.5536,-3.5505,-3.5527,-3.4625,-3.2715,-3.3254,-3.3316,-3.2403,-3.4973,-3.5253,-3.3282,-3.4817,-3.4452,-3.218,-3.1888,-3.2078,-1.1648,-1.2674,-1.2805,-1.37,-1.3769,-1.1662,-0.4011,-0.3111,-0.174,0.585,0.7098,0.6867,0.6883,0.5673,0.3507,-0.005,-0.1975,-0.6783,-1.7526,-1.8623,-2.0783,0.0,0.0,0.0,-3.0326,-3.035,-3.1359,-3.4186,-3.4799,-3.6525,-3.9907,-4.1054,-4.2333,-4.3936,-4.3406,-4.2814,-4.2313,-3.8964,-3.6217,-3.4044,-3.0201,-2.7313,-2.5563,-2.4509,-2.325,-2.1893,-1.9288,-1.8754,-1.9715,-1.7258,-1.6987,-1.8379,-1.8315,-1.7477,-1.6075,-1.6096,-1.5217,-1.3753,-1.3016,-1.3953,-1.5516,-1.5956,-1.6905,-1.8069,-1.9634,-1.9681,-1.9623,-2.1219,-2.1424,-2.1692,-2.4482,-2.4502,-2.4452,-2.6787,-2.7146,-2.7508,-2.9153,-2.9899,-2.9789,-2.8222,-2.816,-2.8077,-2.7154,-2.7287,-2.7438,-2.7123,-2.8646,-2.9695,-2.9531,-3.0791,-3.1965,-3.2364,-3.3403,-3.4688,-3.6229,-3.543,-3.4646,-3.4517,-3.44,-3.3916,-3.2591,-3.3271,-3.3243,-3.2422,-3.4386,-3.5231,-3.4696,-3.4571,-3.4178,-3.3552,-3.211,-3.1525,-1.1177,-1.213,-1.2077,-1.3197,-1.1044,-0.7692,-0.3749,-0.11,0.1802,0.6278,0.7278,0.7319,0.7289,0.7201,0.6653,0.5047,0.18,-0.2235,-0.7152,-1.0391,0.0,-2.1228,-2.1843,0.0,0.0,0.0,-3.1522,-3.3631,-3.5103,-3.6498,-3.7929,-3.9092,-4.1198,-4.444,-4.4273,-4.3548,-4.232,-3.9294,-3.6236,-3.3303,-3.0255,-2.7217,-2.4372,-2.5456,-2.2754,-1.7207,-1.5934,-1.4664,-1.3523,-1.2401,-1.2408,-1.2986,-1.3973,-1.4131,-1.3863,-1.4771,-1.4956,-1.45,-1.4047,-1.4365,-1.5266,-1.6935,-1.77,-1.8454,-2.0074,-2.0213,-2.0257,-2.1758,-2.2085,-2.2676,-2.5308,-2.5625,-2.5619,-2.6525,-2.7249,-2.7823,-2.8502,-2.9414,-2.9948,-2.9301,-2.8443,-2.7815,-2.7672,-2.7306,-2.6921,-2.683,-2.7696,-2.8369,-2.8502,-2.9315,-3.0074,-3.1003,-3.2508,-3.3791,-3.4575,-3.4026,-3.356,-3.3256,-3.3141,-3.2529,-3.1328,-3.1699,-3.1793,-3.1415,-3.3089,-3.3821,-3.3401,-3.4013,-3.3757,-3.2638,-3.2019,-3.1912,-0.8979,-1.0799,-1.1541,-1.2262,-0.8927,-0.5035,-0.3077,0.0621,0.4361,0.6723,0.7518,0.7802,0.7715,0.8063,0.8428,0.8481,0.5369,0.2231,0.005,-0.3464,0.0,0.0,0.0,-1.7418,-2.4611,-2.8878,-3.1472,-3.2178,-3.3455,-3.4676,-3.5686,-3.434,-3.6986,-4.457,-4.4337,-4.3512,-4.2288,-3.9847,-3.6645,-3.2721,-3.0736,-2.7117,-2.2526,-2.3802,-2.0245,-1.2858,-1.2551,-1.1272,-0.9275,-0.9264,-0.9419,-0.9729,-1.0887,-1.1456,-1.2015,-1.3001,-1.3872,-1.4315,-1.3872,-1.4164,-1.4884,-1.7107,-1.8012,-1.8639,-2.0154,-2.0869,-2.1484,-2.3106,-2.416,-2.4996,-2.6616,-2.7402,-2.7713,-2.7903,-2.8645,-2.926,-2.9317,-3.003,-3.064,-3.0238,-2.9309,-2.8597,-2.8661,-2.7786,-2.7085,-2.7085,-2.7013,-2.7105,-2.738,-2.7673,-2.8217,-2.9069,-3.0286,-3.1511,-3.2446,-3.2375,-3.1962,-3.1436,-3.109,-3.0605,-3.0009,-3.0325,-3.0634,-3.0661,-3.2105,-3.2686,-3.2191,-3.3203,-3.3019,-3.1782,-3.1782,-3.2059,-0.4262,-0.8583,-1.16,-1.0814,-0.8246,-0.5001,-0.161,0.185,0.4946,0.7204,0.8132,0.849,0.8497,0.8525,0.8733,0.9103,0.9342,0.7214,0.0717,0.0619,-0.1433,0.0,0.0,-1.0514,-1.8415,-2.6592,-3.0915,-2.9826,-2.9181,-3.0398,-3.3822,-2.6414,-2.906,-4.4327,-4.3378,-4.2412,-4.2028,-4.0422,-3.7021,-3.1776,-3.081,-2.6462,-1.937,-1.7721,-1.4474,-1.0419,-0.9718,-0.9275,-0.9253,-0.928,-0.9729,-1.0323,-1.0468,-1.0718,-1.0941,-1.1031,-1.174,-1.2619,-1.2321,-1.3208,-1.4682,-1.5877,-1.7205,-1.8745,-2.0102,-2.168,-2.3447,-2.582,-2.8051,-2.9691,-2.9386,-3.0222,-3.1343,-3.2037,-3.2606,-3.2827,-3.2971,-3.2826,-3.221,-3.0752,-3.0822,-3.0983,-3.0187,-2.8998,-2.8047,-2.8047,-2.7269,-2.6591,-2.6591,-2.6609,-2.6646,-2.6677,-2.6713,-2.7678,-3.0039,-3.0231,-2.9738,-2.8564,-2.8259,-2.8335,-2.8709,-2.9562,-3.0232,-3.068,-3.1713,-3.2171,-3.1816,-3.1851,-3.1782,-3.1377,-3.1377,-3.1653,-0.0744,-0.2639,-0.3416,-0.3366,-0.0116,0.3021,0.2741,0.5878,0.8731,0.8514,0.8672,0.8878,0.9104,0.9219,0.9546,1.0115,1.0375,0.9742,0.0,0.0,0.0,-0.7812,-1.4443,-2.0832,-2.6657,-2.6944,-2.7619,-2.9756,-3.0474,-2.9331,-2.5905,-2.4707,-2.4836,-2.6488,-2.1799,-1.8562,-1.7171,-1.7301,-1.9209,-2.2706,-2.6455,-2.1158,-0.8268,-1.1578,-0.9478,-0.3295,-0.2315,-0.2323,-0.29,-0.2903,-0.4066,-0.5812,-0.6833,-0.8285,-1.0029,-1.1345,-1.2532,-1.3554,-1.3697,-1.454,-1.5867,-1.7248,-1.7917,-1.8688,-2.1331,-2.247,-2.3447,-2.5877,-2.8494,-3.0407,-2.9795,-3.023,-3.0766,-3.076,-3.1888,-3.2996,-3.2818,-3.2784,-3.279,-3.2363,-3.132,-3.0498,-3.0525,-2.976,-2.8945,-2.8214,-2.7842,-2.7325,-2.6737,-2.6354,-2.6172,-2.6077,-2.5967,-2.6623,-2.8085,-2.7797,-2.7524,-2.7437,-2.6871,-2.6946,-2.7568,-2.8011,-2.8645,-2.9462,-3.0092,-3.0419,-3.0334,-3.0369,-3.0194,-2.9942,-2.9942,-2.9942,0.3267,0.146,0.0566,0.0859,0.3808,0.639,0.5251,0.8044,1.0508,0.9139,0.9331,0.9709,0.9755,1.0092,1.058,1.1048,1.1253,1.0766,0.0,0.0,0.0,-0.4822,-1.418,-2.1104,-2.3401,-2.4149,-2.4438,-2.4243,-2.4787,-2.2005,-1.4772,-1.3199,-0.87,-0.0481,-0.503,-0.5793,-0.202,-0.2619,-0.5472,-1.0473,-1.513,-1.1668,-0.0977,-0.1404,-0.0141,0.2413,0.315,0.2876,0.0,0.1009,-0.0717,-0.2849,-0.5317,-0.7531,-0.9479,-1.0378,-1.1121,-1.1976,-1.3428,-1.4682,-1.5717,-1.7107,-1.7803,-1.8744,-2.1797,-2.3486,-2.453,-2.5993,-2.8257,-3.0139,-2.9473,-3.0194,-3.0869,-3.0424,-3.1463,-3.2601,-3.2778,-3.2755,-3.2784,-3.3191,-3.223,-3.1381,-3.1438,-3.0777,-2.9951,-2.923,-2.8477,-2.7861,-2.7049,-2.6445,-2.6008,-2.5679,-2.5569,-2.5763,-2.6483,-2.6179,-2.6066,-2.6293,-2.5743,-2.5801,-2.6412,-2.7,-2.7481,-2.789,-2.8415,-2.8546,-2.8044,-2.8054,-2.7866,-2.7756,-2.8152,-2.842,0.0,0.4247,0.173,0.2801,0.4546,0.6103,0.6432,0.8776,0.0,0.9331,0.9991,1.0686,1.0416,1.1011,1.1651,1.1926,1.2095,1.0719,0.0,0.4986,0.0,0.0,-0.9502,-1.3933,-1.2025,-1.8892,-2.0989,-1.512,-1.3852,-0.9798,-0.1656,0.5094,1.5269,2.9613,0.8509,-0.0,0.6441,0.6788,0.6141,0.437,0.1851,0.1808,0.4287,1.1283,1.1767,0.7152,0.6737,0.6333,0.5792,0.2975,0.084,-0.0963,-0.492,-0.7295,-0.8688,-0.8117,-0.7963,-0.8366,-1.174,-1.3459,-1.4647,-1.5539,-1.6919,-1.8862,-2.1628,-2.4381,-2.6372,-2.6308,-2.7679,-2.913,-2.8846,-3.0236,-3.1504,-3.0992,-3.121,-3.1701,-3.2778,-3.2468,-3.226,-3.314,-3.3254,-3.3006,-3.2477,-3.1653,-3.0897,-3.0537,-2.9084,-2.7901,-2.7401,-2.6535,-2.5767,-2.5547,-2.5197,-2.4958,-2.4958,-2.5145,-2.5221,-2.5221,-2.4941,-2.4906,-2.5395,-2.654,-2.6795,-2.5897,-2.6915,-2.6744,-2.5485,-2.5184,-2.5083,-2.5098,-2.6391,-2.6914,1.0446,0.0,0.9003,0.8959,0.9571,1.012,0.0,1.0385,1.0714,0.998,1.0065,1.0392,1.0871,1.1085,1.1531,1.2786,1.3203,1.1815,0.7362,0.0,0.0,-1.2231,-1.543,-1.7133,-1.6495,-1.5095,-1.4545,-1.5348,-0.8579,-0.1239,0.5774,1.0006,1.9975,3.7014,3.1518,2.9079,3.0778,3.4125,3.1329,2.2457,1.9649,1.9172,2.0585,1.6601,1.4728,1.4231,1.0554,0.9331,0.9739,0.6996,0.502,0.3456,0.0555,-0.1671,-0.3345,-0.4965,-0.5081,-0.5071,-0.8601,-1.161,-1.4043,-1.48,-1.7538,-2.0404,-1.97,-2.2098,-2.5189,-2.6769,-2.8397,-2.9728,-3.0118,-3.0856,-3.1344,-3.0888,-3.0829,-3.0963,-3.143,-3.0957,-3.0505,-3.0935,-3.0277,-2.9602,-2.9808,-2.9775,-2.9374,-2.7966,-2.8053,-2.7585,-2.5673,-2.463,-2.4001,-2.4001,-2.3169,-2.2701,-2.2701,-2.4088,-2.5017,-2.5221,-2.449,-2.4351,-2.4961,-2.4561,-2.4666,-2.5173,-2.5087,-2.4673,-2.4052,-2.3753,-2.3547,-2.3547,-2.3923,-2.4049,1.0845,1.14,1.1861,1.178,1.1717,1.1547,1.127,1.0898,1.0545,1.0243,1.0503,1.0973,1.1584,1.2686,1.3719,1.4235,1.4123,0.0,0.0,0.0,-0.4973,-0.9581,-1.0231,-1.0981,-1.265,-1.0326,-0.7458,-0.4289,0.1346,0.9247,1.9758,2.3383,3.1539,4.542,4.5505,4.4885,4.3944,4.635,4.304,3.4111,3.1918,3.0065,2.8553,2.3359,2.0837,2.0168,1.6409,1.4875,1.4725,1.1319,0.8883,0.7009,0.5983,0.3816,0.1224,-0.0135,-0.1068,-0.2382,-0.5461,-0.9385,-1.3336,-1.4566,-1.6674,-1.8754,-1.9066,-2.0656,-2.2891,-2.4564,-2.6576,-2.8372,-2.8733,-2.9361,-3.0062,-2.9775,-2.9354,-2.9221,-2.9889,-2.9393,-2.8994,-2.9546,-2.8955,-2.8307,-2.8199,-2.8284,-2.7906,-2.6883,-2.684,-2.6416,-2.5076,-2.3873,-2.3184,-2.2952,-2.1759,-2.0808,-2.0427,-2.1161,-2.2245,-2.3877,-2.3352,-2.3309,-2.3771,-2.3453,-2.3293,-2.3435,-2.2577,-2.1825,-2.1573,-2.1321,-2.1195,-2.1321,-2.195,-2.2201,1.0391,1.1185,1.1987,1.2408,1.2043,1.1606,1.1606,1.1038,1.0528,1.0528,1.1096,1.188,1.2757,1.4763,1.6247,1.6187,0.0,0.0,0.7056,0.4876,0.2285,-0.1663,-0.153,-0.2034,-0.4263,-0.3992,0.0521,1.0379,1.3664,2.0967,3.4231,3.8654,4.4385,5.2211,5.2677,5.1949,5.0133,5.0045,4.7148,4.1524,3.9287,3.6185,3.2194,2.917,2.6662,2.4738,2.1934,2.0341,1.9376,1.5316,1.2358,1.046,1.0629,0.8424,0.5095,0.4955,0.343,0.0908,-0.2109,-0.7018,-1.2255,-1.4041,-1.5297,-1.6562,-1.8652,-1.9865,-2.0743,-2.1562,-2.3947,-2.6277,-2.6537,-2.74,-2.8122,-2.8325,-2.7564,-2.7064,-2.8413,-2.7852,-2.7368,-2.8048,-2.7596,-2.6972,-2.6672,-2.6353,-2.5955,-2.556,-2.5009,-2.4449,-2.4007,-2.2835,-2.1994,-2.1695,-2.0048,-1.8868,-1.8294,-1.775,-1.8538,-2.1357,-2.1299,-2.1374,-2.1506,-2.1961,-2.174,-2.0663,-1.9686,-1.8944,-1.8477,-1.8512,-1.8536,-1.8536,-1.9889,-2.0501,1.1105,1.0857,1.0544,1.1072,1.1371,1.1606,1.1606,1.1508,1.141,1.141,1.1508,1.2428,1.5169,1.5445,1.6056,1.8634,1.184,0.5738,0.0,0.0,-0.2544,0.076,-0.0822,-0.018,0.498,0.6276,0.9791,1.7068,2.6017,3.339,3.8573,4.463,4.9113,5.1654,5.2214,5.2372,5.204,5.1282,4.8824,4.4647,3.9737,3.6729,3.542,2.8786,2.608,2.6253,2.2692,2.0915,2.0358,1.7112,1.5792,1.5435,1.2155,1.0154,0.903,0.8039,0.7476,0.6541,0.1307,-0.4361,-0.9534,-1.1387,-1.4754,-1.7942,-1.7246,-1.9127,-2.1303,-2.0585,-2.2792,-2.5603,-2.6587,-2.6692,-2.6557,-2.734,-2.6626,-2.6101,-2.7651,-2.6131,-2.4622,-2.5496,-2.3669,-2.2137,-2.2842,-2.2432,-2.19,-2.1216,-2.1087,-2.0626,-1.9114,-1.8362,-1.7824,-1.7653,-1.6827,-1.6286,-1.635,-1.5742,-1.5711,-1.6818,-1.7541,-1.7607,-1.6935,-1.7828,-1.7736,-1.6431,-1.7227,-1.7066,-1.5688,-1.5874,-1.5827,-1.5962,-1.7235,-1.7806,1.0984,1.104,1.0912,1.0869,1.0652,1.0424,1.0518,1.0292,1.0394,1.1206,1.1591,1.2786,1.619,1.5891,1.5233,1.5467,1.2518,0.9837,0.8916,0.8057,0.8027,0.9072,0.9974,1.1281,1.3126,1.5805,2.0286,2.6835,3.2741,3.8744,4.4715,4.8862,5.1818,5.338,5.3612,5.3604,5.3487,5.2485,5.0509,4.7465,4.2463,3.9747,3.8851,3.316,3.0401,3.0032,2.6882,2.4872,2.3677,2.1553,1.9933,1.8545,1.568,1.4168,1.3157,0.9544,0.7566,0.6264,0.1418,-0.248,-0.5818,-0.8955,-1.2025,-1.4633,-1.5005,-1.6333,-1.8045,-1.8314,-2.0949,-2.4009,-2.5301,-2.5684,-2.5879,-2.6318,-2.5518,-2.4891,-2.5506,-2.4142,-2.2736,-2.2512,-2.1216,-2.016,-2.0429,-2.0321,-1.9942,-1.9653,-1.9646,-1.9178,-1.7848,-1.7257,-1.6808,-1.642,-1.5302,-1.4468,-1.4308,-1.3645,-1.3735,-1.4925,-1.5717,-1.5957,-1.5404,-1.5843,-1.5832,-1.5163,-1.5684,-1.5652,-1.5072,-1.5166,-1.5269,-1.5245,-1.5962,-1.6181,1.0957,1.1135,1.1163,1.0856,1.0533,1.011,0.9777,0.9552,0.9684,1.0653,1.11,1.2397,1.6115,1.629,1.5173,1.3043,1.3085,1.304,1.2511,1.5127,1.6816,1.5943,1.9346,2.1491,2.0968,2.4677,2.9933,3.6916,3.9274,4.3638,5.1081,5.2675,5.3908,5.5204,5.5198,5.4905,5.4354,5.294,5.1442,4.9681,4.5263,4.274,4.1794,3.7467,3.4745,3.3192,3.1163,2.8913,2.6791,2.5414,2.3582,2.1379,1.9546,1.7958,1.6215,1.1401,0.8182,0.5994,0.3042,0.0643,-0.1698,-0.5461,-0.8419,-1.0788,-1.2561,-1.3308,-1.3752,-1.5187,-1.7584,-2.0229,-2.2659,-2.3559,-2.3915,-2.4163,-2.3458,-2.2774,-2.2926,-2.1933,-2.067,-1.9721,-1.8791,-1.8166,-1.8058,-1.7789,-1.7719,-1.7754,-1.7449,-1.6775,-1.5866,-1.537,-1.4893,-1.4326,-1.3195,-1.2194,-1.1576,-1.1075,-1.1195,-1.2304,-1.338,-1.3709,-1.3456,-1.3404,-1.3404,-1.3456,-1.3718,-1.3945,-1.4138,-1.4235,-1.4358,-1.4362,-1.4773,-1.4909,1.143,1.0897,1.0272,1.069,1.1728,1.2192,1.0357,1.0437,1.0746,0.9974,0.9698,1.0827,1.4782,1.6711,1.7132,1.5486,1.1772,0.9296,0.9658,1.1419,1.3766,1.6593,2.0016,2.4125,2.9218,3.2376,3.7585,4.5967,4.8414,5.1746,5.6835,5.6486,5.6064,5.5912,5.616,5.5724,5.4496,5.192,5.0772,5.095,4.677,4.4448,4.3536,3.923,3.6093,3.4109,3.3231,3.1235,2.8365,2.7172,2.6238,2.5273,2.2985,2.0099,1.702,1.4838,1.1853,0.8971,0.8995,0.6571,0.2836,-0.0133,-0.3973,-0.7961,-1.0241,-1.0293,-0.9896,-1.1323,-1.1645,-1.2731,-1.8001,-1.9012,-1.8756,-1.9574,-1.9549,-1.9663,-2.0882,-1.9424,-1.7769,-1.7474,-1.5722,-1.4279,-1.4471,-1.3821,-1.3465,-1.3868,-1.2371,-1.1097,-1.0644,-0.9735,-0.9014,-0.888,-0.8762,-0.8378,-0.7732,-0.7727,-0.7466,-0.6945,-0.8492,-0.9365,-0.9099,-0.8705,-0.8694,-0.9099,-1.0141,-1.0891,-1.1212,-1.1497,-1.1643,-1.165,-1.3045,-1.3595,1.1489,1.0781,1.0023,1.0575,1.1443,1.1636,0.9572,0.9314,0.9397,0.9059,0.912,1.0057,1.26,1.4636,1.5416,1.3946,1.1776,1.1265,1.403,1.4793,1.7305,2.36,2.6179,2.9633,3.4915,3.9452,4.3766,4.8018,5.094,5.4056,5.748,5.6181,5.5483,5.5746,5.5058,5.417,5.315,5.1973,5.1405,5.1298,4.6925,4.4159,4.2892,4.0746,3.8945,3.7543,3.7351,3.5417,3.2431,3.2352,3.0906,2.8682,2.6793,2.3697,2.0186,1.8351,1.6056,1.3632,1.2231,1.0129,0.7451,0.464,0.1807,-0.1028,-0.415,-0.4917,-0.4891,-0.6588,-0.696,-0.8247,-1.4438,-1.5724,-1.5465,-1.5555,-1.5961,-1.6368,-1.6722,-1.6444,-1.5946,-1.477,-1.3627,-1.2716,-1.2416,-1.2598,-1.2685,-1.2188,-1.1797,-1.1034,-0.9613,-0.9026,-0.8608,-0.8403,-0.8146,-0.7915,-0.7732,-0.7284,-0.702,-0.6692,-0.7181,-0.7341,-0.728,-0.7158,-0.7158,-0.728,-0.7725,-0.8081,-0.8345,-0.8367,-0.9003,-0.9992,-1.0574,-1.1315,1.1888,1.1472,1.0929,1.0889,1.1196,1.0971,0.8816,0.866,0.8718,0.7969,0.8751,1.0163,1.2204,1.3313,1.3892,1.3657,1.2666,1.3292,1.7055,1.8906,2.2349,2.8978,3.1715,3.5187,4.0323,4.4952,4.8597,5.0922,5.3794,5.6379,5.8637,5.6678,5.5823,5.6522,5.4992,5.3745,5.2862,5.2401,5.1814,5.1105,4.7699,4.5271,4.3592,4.2869,4.1506,3.9756,4.021,3.8708,3.6117,3.6168,3.4294,3.1272,2.8953,2.6391,2.3756,2.1402,1.9287,1.7461,1.5633,1.3509,1.1409,0.8913,0.6948,0.5203,0.2935,0.2038,0.1524,-0.0255,-0.1144,-0.2542,-0.7226,-0.9619,-1.0697,-1.0575,-1.0963,-1.1228,-1.1099,-1.1918,-1.225,-1.0559,-0.9816,-0.9444,-0.9056,-0.9379,-0.9688,-0.9441,-0.9613,-0.9172,-0.7408,-0.6837,-0.6413,-0.5898,-0.5511,-0.5276,-0.5461,-0.4891,-0.45,-0.4559,-0.4607,-0.4876,-0.5617,-0.527,-0.5274,-0.5743,-0.5822,-0.6144,-0.6577,-0.6731,-0.7355,-0.8331,-0.8414,-0.9352,1.2753,1.2984,1.3168,1.1812,1.1299,1.0525,0.8275,0.8878,0.9337,0.6872,0.8596,1.1376,1.3909,1.3246,1.3109,1.5336,1.47,1.4859,1.7478,2.3108,2.8199,3.1607,3.584,4.0513,4.5742,4.8694,5.1864,5.5825,5.7863,5.9581,6.1101,5.867,5.7634,5.8542,5.6515,5.495,5.4091,5.3077,5.186,5.0305,4.9608,4.8213,4.6321,4.5681,4.3609,4.0412,4.1401,4.0717,3.8824,3.7854,3.5812,3.3001,2.9331,2.7835,2.7283,2.3611,2.1354,2.006,1.9357,1.7153,1.448,1.2986,1.1318,0.9998,1.0601,1.0301,0.9436,0.7628,0.6055,0.4755,0.4434,0.0254,-0.4068,-0.4594,-0.4079,-0.3565,-0.3822,-0.5623,-0.651,-0.4649,-0.3881,-0.364,-0.4049,-0.3546,-0.3675,-0.5076,-0.4956,-0.4334,-0.3335,-0.2314,-0.1287,-0.0257,0.0257,0.0257,-0.0129,0.051,0.0764,0.0514,-0.0129,-0.1674,-0.3989,-0.2836,-0.2707,-0.4117,-0.4571,-0.5223,-0.6302,-0.6844,-0.6983,-0.671,-0.6758,-0.7746,1.1207,1.1142,1.1128,1.0375,1.0468,1.0262,0.8123,0.7814,0.7884,0.7407,0.8708,1.0817,1.3427,1.4013,1.4677,1.6769,1.8223,2.035,2.3943,2.7345,3.1909,3.8266,4.0387,4.3515,4.8926,5.231,5.493,5.6743,5.9086,6.0408,6.0288,5.9,5.804,5.7555,5.593,5.4557,5.3609,5.3219,5.2445,5.126,5.0911,4.9976,4.8517,4.6831,4.5921,4.551,4.4327,4.2832,4.1081,3.902,3.7572,3.6386,3.3288,3.1683,3.0674,2.7703,2.5945,2.493,2.4333,2.2368,1.9738,1.8288,1.6434,1.449,1.2664,1.2043,1.1864,1.0914,1.0074,0.9605,0.9765,0.8722,0.6703,0.2764,0.1395,0.0886,0.0127,-0.1016,-0.1771,-0.1503,-0.1136,-0.0885,-0.0744,-0.0751,-0.0885,-0.1012,-0.1124,-0.0743,0.0249,0.1242,0.1986,0.236,0.2855,0.3115,0.3024,0.3491,0.3733,0.3529,0.2503,0.1127,-0.0507,-0.0897,-0.0898,-0.0634,-0.0772,-0.13,-0.2354,-0.2541,-0.3397,-0.5077,-0.5213,-0.6144,1.2219,1.2385,1.2355,1.1411,1.0748,0.9699,0.7269,0.6779,0.7179,0.8499,0.9406,1.0944,1.429,1.5335,1.6519,1.9312,2.1829,2.4822,2.9133,3.2627,3.6956,4.2787,4.5227,4.8216,5.283,5.5754,5.785,5.8957,6.0724,6.1252,5.9996,5.9113,5.8054,5.6823,5.5645,5.4472,5.3336,5.3373,5.2956,5.1969,5.1786,5.1547,5.1149,4.8759,4.7699,4.7629,4.5604,4.4128,4.3021,4.0999,3.9951,3.9326,3.6649,3.5325,3.457,3.1157,2.9693,2.9278,2.7784,2.6191,2.4506,2.2672,2.1204,1.9521,1.6994,1.6192,1.6076,1.5478,1.4991,1.4645,1.4489,1.4561,1.327,0.8083,0.6662,0.6171,0.5247,0.4496,0.3981,0.3962,0.4739,0.5243,0.4902,0.4324,0.374,0.3118,0.2592,0.2574,0.3069,0.4288,0.5018,0.5143,0.5679,0.5974,0.5882,0.6268,0.6428,0.637,0.5157,0.441,0.4125,0.1538,0.0383,0.1018,0.0909,0.0657,0.0132,-0.0,-0.1098,-0.2767,-0.2968,-0.4006,1.4356,1.5249,1.5446,1.3816,1.1742,0.9349,0.6575,0.6404,0.7481,0.9901,1.0507,1.1903,1.6022,1.6849,1.8312,2.2465,2.5196,2.8501,3.3287,3.8383,4.2664,4.5969,4.9843,5.3676,5.7046,5.8841,6.0392,6.1747,6.2367,6.1857,6.0038,5.9046,5.783,5.6318,5.5556,5.4579,5.3289,5.3607,5.3407,5.2516,5.2365,5.2952,5.3992,5.1073,4.8988,4.744,4.5832,4.4936,4.4572,4.3476,4.2621,4.1826,3.9341,3.8635,3.8592,3.4361,3.3095,3.3054,3.0414,2.9295,2.8632,2.6542,2.5721,2.5037,2.2957,2.2004,2.1638,2.1068,2.0589,1.9843,1.9125,1.8588,1.7165,1.2481,1.1853,1.1972,1.0997,1.0272,1.0002,1.0642,1.2147,1.2785,1.1647,1.0671,0.9438,0.7337,0.6494,0.5892,0.5643,0.6982,0.8083,0.8477,0.8901,0.9117,0.8806,0.91,0.9368,0.9169,0.8017,0.7801,0.9105,0.4125,0.1527,0.1678,0.1192,0.1201,0.1452,0.1098,0.042,-0.028,-0.0284,-0.1724,1.1677,1.3187,1.4453,1.293,1.1758,1.0798,1.0331,1.0313,1.0445,1.0445,1.1615,1.3648,1.6776,1.7118,1.8752,2.4178,2.8199,3.2404,3.7177,4.2345,4.6957,5.0652,5.2926,5.573,5.9836,6.0528,6.1146,6.2206,6.1954,6.1045,5.9394,5.8936,5.7897,5.6128,5.5445,5.4667,5.3758,5.372,5.3662,5.3499,5.3672,5.4418,5.5618,5.1929,4.9157,4.7212,4.6812,4.6045,4.498,4.4051,4.3974,4.422,4.1477,4.0873,4.1272,3.8767,3.6905,3.5521,3.5583,3.3937,3.1604,3.0895,3.0176,2.9271,2.7422,2.691,2.6937,2.6391,2.5642,2.4987,2.4856,2.4271,2.3151,2.0864,1.8446,1.6234,1.5053,1.5011,1.498,1.4183,1.45,1.455,1.3655,1.3555,1.3084,1.1607,1.123,1.1086,1.104,1.1927,1.2741,1.3021,1.3469,1.3683,1.3812,1.3152,1.2893,1.2917,1.0948,1.0032,1.0584,0.6398,0.438,0.5363,0.4086,0.3054,0.2411,0.2322,0.1941,0.1261,0.1277,0.0429,1.2897,1.4671,1.5859,1.5134,1.4769,1.427,1.3622,1.4095,1.4672,1.4364,1.4382,1.5394,1.7999,1.9736,2.2623,2.7869,3.2037,3.634,4.1444,4.6473,5.0638,5.3323,5.6573,5.9445,6.1754,6.2218,6.2554,6.2897,6.1873,6.0756,5.96,5.8688,5.7603,5.6394,5.571,5.4931,5.3965,5.4011,5.4053,5.4188,5.4188,5.4821,5.5958,5.3098,5.104,4.9648,4.8583,4.7453,4.6192,4.5684,4.5379,4.5098,4.3701,4.3396,4.3608,4.1756,4.0529,3.9682,3.8782,3.7752,3.6545,3.5407,3.4603,3.3601,3.1689,3.0882,3.0348,2.9428,2.886,2.8402,2.7655,2.7354,2.6824,2.5484,2.2675,2.0104,1.9023,1.8519,1.8326,1.7955,1.7615,1.7091,1.6657,1.6009,1.5116,1.3794,1.3398,1.3131,1.2994,1.3712,1.4459,1.4699,1.5145,1.5452,1.5564,1.5268,1.5096,1.5298,1.3716,1.2949,1.3173,0.9783,0.7774,0.7709,0.627,0.5221,0.4701,0.4185,0.3371,0.2546,0.2705,0.2142,1.4464,1.6309,1.7724,1.8252,1.8559,1.8303,1.6891,1.7895,1.9119,1.909,1.7826,1.7455,1.9977,2.3076,2.6869,3.209,3.5929,4.0063,4.5529,5.0329,5.3788,5.5473,5.9864,6.2838,6.2989,6.3427,6.3691,6.3456,6.1973,6.076,6.0077,5.8619,5.7524,5.7035,5.6191,5.5324,5.4409,5.4452,5.4678,5.5007,5.5054,5.5485,5.6306,5.4701,5.3609,5.2735,5.0861,4.9345,4.8064,4.7923,4.7133,4.6076,4.6239,4.6247,4.6008,4.4507,4.3963,4.3746,4.1397,4.0925,4.1079,3.955,3.8673,3.7752,3.5711,3.4429,3.3235,3.1849,3.148,3.1112,2.9964,2.9847,2.9678,2.8646,2.6582,2.4492,2.2893,2.1841,2.1269,2.1734,2.0829,2.0026,1.9901,1.848,1.6903,1.5806,1.5279,1.4785,1.4569,1.5262,1.5793,1.5857,1.6252,1.653,1.6318,1.6588,1.6655,1.6871,1.5972,1.5625,1.5867,1.3316,1.1358,1.024,0.8062,0.696,0.696,0.5838,0.4695,0.3829,0.4134,0.3707,1.1208,1.417,1.7572,2.0086,2.0712,2.081,2.075,2.1885,2.2695,2.2538,2.1031,2.0699,2.3445,2.4915,2.8017,3.486,3.8716,4.2887,4.891,5.3028,5.622,5.8417,6.1078,6.2891,6.3382,6.3255,6.3155,6.3162,6.208,6.1088,6.0319,5.9373,5.8683,5.8265,5.6783,5.5962,5.5969,5.5285,5.5527,5.679,5.7791,5.826,5.819,5.7073,5.5668,5.4166,5.3521,5.2295,5.0832,5.0832,5.0289,4.9453,4.9486,4.9281,4.8957,4.8219,4.6749,4.5066,4.4714,4.3441,4.1989,4.2258,4.2056,4.1256,3.8863,3.7786,3.7007,3.5193,3.4372,3.4136,3.4396,3.4279,3.3767,3.2928,3.2489,3.1086,2.6979,2.6014,2.5733,2.4949,2.3858,2.2928,2.2328,2.1364,2.0536,1.991,1.9855,1.974,1.974,2.0364,2.0301,1.914,1.9704,1.9625,1.8744,1.812,1.773,1.7959,1.7213,1.6887,1.6997,1.568,1.4956,1.4806,0.9748,0.7287,0.7287,0.6038,0.5587,0.566,0.5937,0.5251,1.3969,1.6908,1.9954,2.3641,2.3999,2.3905,2.551,2.654,2.7342,2.7802,2.8488,2.868,2.7327,3.0084,3.3638,3.7191,4.1861,4.6381,5.0195,5.4638,5.7952,5.9336,6.1821,6.3474,6.3574,6.301,6.2804,6.3218,6.1462,6.0306,6.02,5.8538,5.7693,5.7947,5.673,5.623,5.6472,5.6563,5.7024,5.7908,5.8959,5.9427,5.9287,5.8564,5.7508,5.6174,5.5401,5.4331,5.3112,5.3009,5.2295,5.1241,5.0729,5.0454,5.0275,4.9576,4.8673,4.7768,4.7508,4.6821,4.5939,4.5801,4.4788,4.3313,4.1536,3.9934,3.8445,3.6266,3.5542,3.5476,3.5687,3.5468,3.544,3.6146,3.5973,3.5084,3.296,3.0785,2.8873,2.7353,2.6114,2.5138,2.4726,2.3618,2.2497,2.2055,2.1624,2.1292,2.1292,2.1862,2.1987,2.1404,2.1821,2.1881,2.1679,2.0694,2.0315,2.0575,1.9084,1.8175,1.8272,1.7147,1.6583,1.6856,1.215,0.9377,0.8609,0.7436,0.6533,0.6039,0.6252,0.6129,1.5726,1.7946,2.0276,2.5242,2.6084,2.6518,0.0,3.0933,3.206,3.245,3.51,3.6393,3.2903,3.5873,3.9264,4.0468,4.533,4.9743,5.2159,5.6415,5.9463,6.0095,6.2577,6.4108,6.3578,6.2899,6.2595,6.2891,6.0864,5.968,5.9748,5.7809,5.7026,5.7768,5.6796,5.6521,5.7114,5.7905,5.8438,5.8711,5.9607,6.0006,5.9954,5.9559,5.899,5.8206,5.7255,5.6313,5.5527,5.5291,5.4474,5.3364,5.2623,5.2286,5.2067,5.1222,5.0832,5.0632,4.9959,4.9645,4.9436,4.8634,4.7308,4.5677,4.3777,4.1922,3.9952,3.7731,3.6845,3.6672,3.6833,3.6751,3.7025,3.8492,3.8505,3.7785,3.6841,3.385,3.0976,2.9473,2.8058,2.7012,2.661,2.5599,2.4468,2.3845,2.3095,2.2567,2.2543,2.3078,2.3369,2.3081,2.338,2.3554,2.3539,2.2776,2.2454,2.2271,2.086,1.9808,1.9541,1.8412,1.7981,1.839,1.5132,1.2492,1.0933,0.9265,0.7769,0.6582,0.6885,0.6885,1.3024,1.416,1.6188,2.2953,2.5681,2.7691,3.1275,3.4167,3.6019,3.5391,3.8993,4.1947,4.136,4.1644,4.288,4.5454,4.9331,5.2995,5.5725,5.8917,6.112,6.1571,6.3572,6.4559,6.3521,6.3043,6.2452,6.1639,6.0614,5.963,5.8832,5.797,5.7882,5.8621,5.7196,5.7053,5.849,5.9202,5.9441,5.9179,5.9984,6.0315,6.0189,5.9968,5.9946,6.0023,5.914,5.8557,5.8275,5.8061,5.7444,5.6631,5.6463,5.6041,5.541,5.4353,5.3654,5.3042,5.1959,5.1342,5.0919,4.9823,4.9693,4.9217,4.5591,4.3858,4.2693,4.0579,3.9173,3.8423,3.902,3.9257,3.95,3.9834,4.0069,3.9318,3.6274,3.3841,3.1996,3.109,2.9952,2.8818,2.7718,2.7378,2.6865,2.575,2.5255,2.4932,2.4741,2.5127,2.5025,2.4139,2.4621,2.4456,2.323,2.3548,2.3261,2.1991,2.2377,2.2147,2.1069,1.9947,1.9529,1.9947,1.867,1.6718,1.4014,1.1351,0.9429,0.8219,0.8326,0.7636,1.297,1.3821,1.5195,2.0229,2.457,2.8349,3.1551,3.6541,4.0652,4.115,4.4413,4.7224,4.7414,4.6953,4.703,4.8652,5.252,5.5954,5.7856,6.037,6.1689,6.0947,6.1557,6.185,6.1245,6.0304,5.9809,5.9955,5.9309,5.8065,5.6178,5.5981,5.6051,5.6239,5.5814,5.6815,5.9459,6.0226,6.0519,6.0436,6.1285,6.1604,6.144,6.1889,6.2145,6.2049,6.1558,6.0856,6.0041,6.0372,6.0319,5.9924,5.8661,5.8016,5.7604,5.6181,5.5328,5.4932,5.4451,5.4042,5.3679,5.2814,5.173,5.0554,4.8654,4.6992,4.5418,4.3717,4.2474,4.1541,4.1306,4.0661,4.0153,4.043,4.09,4.0863,3.8803,3.6767,3.5189,3.4727,3.3412,3.2274,3.2339,3.1184,3.0013,2.922,2.8486,2.7801,2.7012,2.7151,2.7186,2.6523,2.6695,2.661,2.5977,2.5581,2.5169,2.499,2.3806,2.2969,2.2559,2.1609,2.1207,2.1471,2.0213,1.7844,1.4292,1.2444,1.0509,0.8214,0.751,0.694,1.2048,1.2765,1.3951,1.8364,2.219,2.64,3.2043,3.717,4.1398,4.3896,4.7774,5.0519,5.0406,5.1197,5.1953,5.2578,5.5287,5.7841,5.8997,6.0706,6.1327,6.0013,6.0067,6.0121,5.9649,5.8614,5.8192,5.8601,5.7819,5.6539,5.4768,5.4543,5.464,5.5023,5.5625,5.7157,5.9646,6.037,6.1009,6.1574,6.2123,6.249,6.2656,6.3257,6.3376,6.3207,6.328,6.268,6.1652,6.1842,6.177,6.1504,6.0417,5.9549,5.8747,5.7744,5.7032,5.6405,5.6098,5.5724,5.5262,5.4356,5.3229,5.2001,5.0608,4.9354,4.8009,4.6573,4.5388,4.4352,4.3908,4.2976,4.2096,4.2051,4.2338,4.2422,4.1359,3.9186,3.7298,3.6913,3.5515,3.4486,3.4793,3.3515,3.2196,3.1499,3.0601,2.9708,2.8957,2.8661,2.8539,2.8403,2.8028,2.7748,2.7661,2.6927,2.6423,2.6263,2.5114,2.416,2.3364,2.2792,2.2448,2.2448,2.1471,1.9427,1.6192,1.4527,1.2,0.8955,0.8063,0.7337,0.0,0.0,0.0,1.7408,1.8682,2.1546,3.2413,3.5679,3.7987,4.3316,4.8463,5.1632,5.0678,5.4299,5.7369,5.7182,5.7688,5.845,5.9298,6.0041,6.0008,5.8944,5.9414,5.9585,5.8902,5.8202,5.7748,5.7576,5.6142,5.5143,5.47,5.3874,5.3969,5.524,5.6836,5.812,5.8981,5.9685,6.0837,6.2471,6.2444,6.2859,6.371,6.3748,6.3668,6.3515,6.4263,6.4051,6.3115,6.2416,6.1826,6.1343,6.1802,6.0678,5.8937,5.9233,5.8612,5.7462,5.6855,5.6204,5.546,5.4361,5.4017,5.3642,5.1428,5.0689,5.0326,4.9102,4.7893,4.6874,4.6562,4.6072,4.5496,4.4875,4.4356,4.3862,4.3389,4.0813,3.8236,3.7298,3.6294,3.5444,3.4872,3.4119,3.333,3.2442,3.1476,3.0766,3.045,2.9567,2.9094,2.9767,2.8651,2.7903,2.7903,2.7782,2.7092,2.5705,2.6231,2.5712,2.3609,2.3784,2.3679,2.2859,2.2859,2.1885,1.9924,1.7409,1.4106,1.0191,1.0178,0.8867,1.0409,0.0,0.0,0.0,0.0,0.0,2.4273,2.8292,3.3392,4.1243,4.4647,4.7692,5.3006,5.5493,5.7427,5.9084,6.0011,6.041,6.0249,6.0674,6.0475,5.8908,5.7304,5.6392,5.6623,5.5173,5.4096,5.386,5.3633,5.2954,5.1626,5.2912,5.3884,5.4367,5.6521,5.8124,5.8984,5.9703,6.0624,6.1729,6.2871,6.3563,6.3806,6.4986,6.5469,6.5389,6.4833,6.454,6.4431,6.3732,6.3435,6.3214,6.1818,6.1004,6.0509,5.974,5.9057,5.8466,5.8164,5.7569,5.6721,5.5845,5.518,5.4572,5.3434,5.2842,5.2538,5.2131,5.1251,4.9987,4.787,4.692,4.6173,4.5005,4.4582,4.4296,4.3426,4.2619,4.1635,4.0695,3.9918,3.9376,3.8877,3.7851,3.653,3.5107,3.4513,3.3776,3.2619,3.2661,3.2596,3.2044,3.181,3.0952,2.9108,2.9112,2.8674,2.7092,2.7017,2.6367,2.4922,2.4847,2.4074,2.2859,2.2859,2.1885,1.9924,1.7493,1.4562,1.0975,0.8654,0.7188,1.1128,1.1244,1.1433,1.2281,0.0,0.0,2.4226,2.7993,3.2976,4.3474,4.7021,4.9522,5.4105,5.6238,5.7658,5.877,6.0012,6.066,6.0188,5.9905,5.9185,5.7651,5.6171,5.5318,5.543,5.3818,5.279,5.2873,5.245,5.1864,5.1112,5.2852,5.4053,5.4523,5.627,5.7804,5.9018,5.9407,6.0383,6.2002,6.2919,6.3711,6.4366,6.5316,6.5915,6.6185,6.5539,6.5368,6.543,6.4641,6.3855,6.3083,6.2053,6.124,6.0659,6.035,5.9736,5.9026,5.891,5.8289,5.7401,5.6773,5.5984,5.5189,5.4425,5.4011,5.3815,5.3617,5.2876,5.1582,4.9202,4.8355,4.7777,4.6418,4.6087,4.5806,4.4908,4.4644,4.4148,4.2474,4.1882,4.1608,4.1055,4.0092,3.8814,3.7415,3.6773,3.5962,3.4737,3.4598,3.4409,3.3829,3.3506,3.2671,3.1177,3.0294,2.9564,2.8778,2.8009,2.7133,2.6221,2.5722,2.4694,2.2996,2.2859,2.2297,2.1183,1.8921,1.6053,1.2403,0.8355,0.6455,1.2238,1.2086,1.2223,1.3889,0.0,0.0,2.701,2.9662,3.2976,4.4911,4.9164,5.1026,5.1853,5.3971,5.5416,5.4764,5.6806,5.8759,5.9371,5.8534,5.7347,5.6071,5.5829,5.5548,5.4973,5.3799,5.3132,5.3471,5.2285,5.1742,5.223,5.3385,5.4417,5.5279,5.6074,5.7322,5.9065,5.8973,6.0195,6.268,6.2781,6.3597,6.4993,6.5082,6.5509,6.6205,6.6031,6.5992,6.5992,6.496,6.3584,6.2145,6.2527,6.1628,6.0279,6.1019,6.053,5.9438,5.9252,5.8591,5.77,5.7266,5.6403,5.5484,5.4703,5.4523,5.4431,5.3849,5.3145,5.2203,5.0525,5.0087,4.9679,4.8407,4.811,4.786,4.6993,4.6668,4.5962,4.3653,4.298,4.2739,4.2195,4.1431,4.0535,3.9362,3.8412,3.7542,3.6788,3.6066,3.5515,3.5445,3.4459,3.3726,3.3332,3.1331,3.0214,3.0099,2.8994,2.7891,2.702,2.654,2.5174,2.316,2.301,2.2859,2.2859,2.0479,1.7409,1.3737,0.8807,0.6455,0.0,0.0,0.0,0.0,0.0,0.0,0.0,1.7311,2.0257,2.7356,2.8938,3.0773,3.6373,3.8304,3.9071,3.9215,4.5007,5.1558,5.7637,5.8492,5.827,5.7565,5.6183,5.5272,5.5104,5.4286,5.3525,5.284,5.2823,5.2756,5.2536,5.4079,5.5042,5.5279,5.6084,5.7333,5.9065,5.9061,6.0007,6.1938,6.3199,6.3993,6.4325,6.4961,6.5652,6.6278,6.4851,6.4638,6.5161,6.4093,6.3869,6.4108,6.3283,6.2782,6.2528,6.1812,6.1353,6.0898,5.9832,5.8835,5.7913,5.7328,5.6546,5.5729,5.5079,5.493,5.4745,5.3915,5.3281,5.2487,5.1401,5.1145,5.0659,4.8903,4.8687,4.8687,4.7825,4.7336,4.7043,4.686,4.5608,4.4493,4.3938,4.3227,4.2467,4.1788,4.0468,3.9297,3.8768,3.8049,3.7523,3.7228,3.7068,3.5957,3.3423,3.2675,3.1265,2.8708,2.8552,2.8019,2.6804,2.6825,2.608,2.4243,2.3324,2.2859,2.2859,1.7689,1.46,1.3737,0.8807,0.6455,0.0,0.0,0.0,1.4963,0.0,0.0,0.0,0.0,2.0989,2.823,2.8336,2.869,3.3762,3.4447,3.4444,3.5181,4.2123,4.744,4.7372,5.3792,5.8208,5.7486,5.679,5.6064,5.5351,5.4562,5.3805,5.3007,5.3181,5.3508,5.3922,5.4723,5.5432,5.5942,5.6319,5.7138,5.8441,5.8895,5.9763,6.1076,6.277,6.3514,6.349,6.4333,6.4893,6.5128,6.4294,6.4364,6.5063,6.4522,6.4793,6.5389,6.3767,6.3194,6.3218,6.2669,6.2344,6.1984,6.0779,5.9741,5.8826,5.7726,5.6861,5.609,5.5437,5.5235,5.5173,5.4461,5.3821,5.3161,5.222,5.1489,5.0811,4.999,4.9689,4.947,4.914,4.8622,4.8126,4.7904,4.7189,4.6344,4.5475,4.4805,4.42,4.3305,4.2065,4.0889,3.9878,3.905,3.8393,3.7809,3.7917,3.7161,3.5024,3.406,3.2806,3.083,2.9592,2.887,2.8668,2.7489,2.5871,2.3776,2.3174,2.2859,2.2859,1.9924,1.6846,1.3737,0.949,0.6447,0.0,0.0,0.0,0.0,0.0,1.6273,0.0,0.0,0.0,0.0,0.0,0.0,0.0,3.081,3.0352,3.1001,3.8221,0.0,0.0,4.5574,0.0,5.3043,5.556,5.642,5.4066,5.2916,5.2741,5.377,5.2524,5.2835,5.5391,5.5483,5.5834,5.6567,5.6514,5.6904,5.7777,5.866,5.9538,6.0427,6.2178,6.2929,6.2852,6.3584,6.4021,6.4228,6.3897,6.4404,6.5424,6.5269,6.564,6.6167,6.4514,6.3877,6.3815,6.3676,6.3271,6.2691,6.1583,6.0488,5.9329,5.8116,5.7116,5.6292,5.5883,5.568,5.5533,5.4906,5.4361,5.3695,5.2655,5.1512,5.0735,5.1073,5.0723,5.0437,5.0699,5.0254,4.949,4.8622,4.8508,4.8055,4.6668,4.6284,4.5689,4.472,4.3598,4.2447,4.1287,3.9956,3.8896,3.8477,3.8185,3.7548,3.6472,3.5087,3.3875,3.2933,3.0784,2.9869,3.0497,2.8202,2.5707,2.2996,2.2859,2.2859,2.2859,2.2089,1.9588,1.5566,1.096,0.6779,0.0,0.0,0.0,0.0,1.7771,0.0,0.0,0.0,1.6454,1.6184,0.0,0.0,0.0,0.0,0.0,0.0,0.0,0.0,2.4986,3.2884,3.883,3.8664,4.9433,5.4495,4.8472,4.6414,4.8326,5.5341,4.9543,4.8857,5.6055,5.6445,5.6484,5.6606,5.6514,5.6904,5.7777,5.866,5.9542,6.0429,6.2185,6.3007,6.2969,6.3099,6.3915,6.5145,6.3603,6.4234,6.6309,6.5545,6.5691,6.6439,6.6105,6.5935,6.5758,6.4916,6.3921,6.2793,6.1614,5.9928,5.8245,5.784,5.6912,5.6042,5.634,5.616,5.5593,5.4737,5.4119,5.349,5.2171,5.1499,5.1145,5.1499,5.1752,5.2004,5.2349,5.2041,5.1461,5.0781,4.9999,4.9028,4.7684,4.7219,4.7016,4.6842,4.5421,4.4321,4.4107,4.1781,4.0134,4.0033,3.8871,3.7203,3.5245,3.4997,3.3916,3.1407,3.106,3.0663,2.9971,2.934,2.7121,2.2996,2.2859,2.2859,2.2859,1.9423,1.9182,2.1734,1.3193,0.8713,0.0,0.0,0.0,0.0,0.0,0.0,1.5852,0.0,1.4724,0.0,0.0,0.0,0.0,0.0,0.0,0.0,1.9875,0.0,0.0,0.0,3.4884,0.0,0.0,0.0,4.5351,4.4862,4.7724,5.5627,4.9118,4.8254,5.6172,5.6606,5.6606,5.6606,5.6563,5.6953,5.7777,5.8644,5.9265,5.9602,6.1907,6.2461,6.1477,6.2529,6.3107,6.3243,6.3026,6.3748,6.5115,6.5265,6.5778,6.6415,6.5738,6.5799,6.609,6.4902,6.4193,6.3564,6.1641,6.0265,5.9185,5.85,5.7753,5.7188,5.7632,5.7846,5.7736,5.723,5.5962,5.4656,5.4142,5.291,5.1944,5.2455,5.2695,5.2967,5.3552,5.3198,5.2573,5.2125,5.1277,5.0618,5.0216,4.9351,4.8682,4.8682,4.7259,4.6152,4.5821,4.3163,4.1041,4.0312,3.9183,3.7548,3.5356,3.5334,3.4576,3.2391,3.2407,3.1181,2.8442,2.813,2.7244,2.5324,2.3708,2.2859,2.2859,2.1276,2.1289,2.2859,1.9033,1.4229,2.2233,0.0,0.0,0.0,0.0,0.0,0.0,0.0,0.0,0.0,0.0,0.0,0.0,0.0,0.0,0.0,0.0,1.922,0.0,0.0,0.0,0.0,0.0,0.0,0.0,3.9946,4.2726,5.2693,4.6162,4.6054,5.6059,5.6606,5.6606,5.6614,5.6614,5.7001,5.7777,5.8652,5.9191,5.9424,6.1592,6.1953,6.0738,6.2024,6.2443,6.2071,6.2713,6.3539,6.452,6.5181,6.5693,6.6034,6.5562,6.5392,6.5354,6.4193,6.3817,6.3618,6.178,6.0792,6.0124,5.8992,5.8507,5.8466,5.8964,5.938,5.955,5.9126,5.7751,5.6269,5.5449,5.405,5.2976,5.3253,5.3545,5.3948,5.4535,5.4356,5.3823,5.3118,5.2669,5.2253,5.2086,5.0809,4.9934,5.0151,4.9148,4.8149,4.7376,4.4846,4.2628,4.155,4.0004,3.8297,3.6329,3.5848,3.4906,3.3256,3.3342,3.1979,2.8957,2.806,2.7689,2.7689,2.454,2.2859,2.2859,2.2859,2.2448,2.1609,2.1442,1.6985,2.727,2.6464,2.5707,1.9495,1.8245,0.0,0.0,0.0,1.6207,0.0,0.0,0.0,0.0,0.0,0.0,0.0,0.0,0.0,0.0,0.0,0.0,0.0,0.0,0.0,0.0,2.8376,2.989,0.0,3.85,4.0383,5.5786,5.6606,5.6614,5.6591,5.6593,5.6976,5.7777,5.8675,5.9514,6.0351,6.1284,6.1719,6.1642,6.1704,6.2209,6.2969,6.3008,6.3945,6.5457,6.5483,6.5265,6.5061,6.612,6.5252,6.3338,6.2908,6.262,6.2406,6.2173,6.1459,6.0444,5.8942,5.8891,5.9635,6.0068,6.03,6.0203,5.9335,5.8835,5.788,5.5009,5.441,5.4435,5.3506,5.4137,5.5012,5.5329,5.5701,5.5553,5.4002,5.4035,5.3809,5.2245,5.1057,5.0539,5.1194,5.0948,5.0187,4.9027,4.7114,4.5496,4.4263,4.1492,3.9282,3.837,3.6541,3.4859,3.3223,3.3253,3.3398,3.3214,3.0642,2.923,2.923,2.5128,2.2859,2.2859,2.2859,2.1346,1.8552,1.7608,1.4414,2.8942,3.0748,3.1696,2.4399,2.3187,2.2194,1.6303,0.0,0.0,0.0,0.0,0.0,0.0,0.0,0.0,0.0,0.0,0.0,0.0,0.0,0.0,0.0,0.0,0.0,0.0,0.0,0.0,0.0,4.2637,0.0,5.6059,5.7153,5.7216,5.6608,5.7695,5.8402,5.8655,5.9534,6.0085,6.0344,6.1277,6.1365,6.0781,6.1404,6.2173,6.3047,6.3611,6.4476,6.5463,6.605,6.6205,6.5934,6.4831,6.4282,6.4037,6.3702,6.3092,6.2573,6.271,6.2687,6.2604,6.263,6.2634,6.2683,6.3148,6.2821,6.2145,6.1651,6.0078,5.838,5.7409,5.6439,5.5755,5.5421,5.5752,5.615,5.6224,5.6179,5.5922,5.5408,5.4729,5.418,5.4095,5.3089,5.2408,5.2545,5.2121,5.1654,5.1265,4.8529,4.6299,4.5496,4.299,4.0319,3.7629,3.5535,3.4095,3.3664,3.3861,3.3993,3.3993,3.3591,3.2492,3.0732,2.9248,2.6722,2.2859,2.2859,2.1346,1.8422,1.8099,1.7005,3.2246,3.4217,3.519,2.8457,2.728,2.5949,1.9043,1.791,1.7998,0.0,0.0,0.0,0.0,0.0,0.0,0.0,0.0,0.0,0.0,0.0,0.0,0.0,0.0,0.0,0.0,0.0,0.0,0.0,0.0,0.0,0.0,5.6602,5.7133,5.6566,5.7896,5.8772,5.9111,5.9963,6.0549,6.0801,6.1391,6.1362,6.0813,6.1406,6.2182,6.3021,6.3589,6.4431,6.5464,6.605,6.5933,6.5364,6.4599,6.4085,6.3751,6.3138,6.3036,6.3259,6.3687,6.4182,6.4584,6.4624,6.4683,6.4706,6.4924,6.4148,6.3108,6.2939,6.145,5.9769,5.9201,5.839,5.759,5.6959,5.6888,5.6834,5.6757,5.6647,5.6459,5.6165,5.5488,5.4972,5.5049,5.4498,5.4013,5.3608,5.3269,5.2887,5.2465,5.0155,4.8122,4.691,4.4807,4.1817,3.7542,3.5446,3.4197,3.4114,3.4268,3.4409,3.4738,3.5108,3.4548,3.2892,3.1891,2.8575,2.2859,2.2859,2.1346,1.8433,1.8433,1.8433]},{"header":{"parameterUnit":"m.s-1","parameterCategory":1,"la1":30.6,"la2":29.2853,"lo1":-89.7004,"lo2":-87.6739,"dx":0.0162,"dy":0.0183,"nx":112,"ny":82,"refTime":"2023-01-06T06:00:00:Z","depth":0,"parameterNumber":3,"parameterNumberName":"V-component_of_WINDS"},"data":[0.0,0.0,0.0,0.0,0.0,0.0,0.0,0.0,0.0,0.0,0.0,0.0,0.0,0.0,0.0,0.0,0.0,0.0,0.0,0.0,0.0,0.0,0.0,0.0,0.0,0.0,0.0,0.0,0.0,0.0,0.0,0.0,0.0,0.0,0.0,0.0,0.0,0.0,0.0,0.0,0.0,0.0,0.0,0.0,0.0,0.0,0.0,0.0,0.0,0.0,0.0,0.0,0.0,0.0,0.0,0.0,0.0,0.0,0.0,0.0,0.0,0.0,0.0,0.0,0.0,0.0,0.0,0.0,0.0,0.0,0.0,0.0,0.0,0.0,0.0,0.0,0.0,0.0,0.0,0.0,0.0,0.0,0.0,0.0,0.0,0.0,0.0,0.0,0.0,0.0,-3.3673,-3.5589,-3.8307,-4.0038,-4.0157,-4.0196,-3.7336,-3.0517,0.0,0.0,0.0,0.0,0.0,0.0,0.0,0.0,0.0,0.0,0.0,0.0,0.0,0.0,0.0,0.0,0.0,0.0,0.0,0.0,0.0,0.0,0.0,0.0,0.0,0.0,0.0,0.0,0.0,0.0,0.0,0.0,0.0,0.0,0.0,0.0,0.0,0.0,0.0,0.0,0.0,0.0,0.0,0.0,0.0,0.0,0.0,0.0,0.0,0.0,0.0,0.0,0.0,0.0,0.0,0.0,0.0,0.0,0.0,0.0,0.0,0.0,0.0,0.0,0.0,0.0,0.0,0.0,0.0,0.0,0.0,0.0,0.0,0.0,0.0,0.0,0.0,0.0,0.0,0.0,0.0,0.0,0.0,0.0,0.0,0.0,0.0,0.0,0.0,0.0,0.0,0.0,0.0,0.0,0.0,0.0,0.0,0.0,0.0,0.0,0.0,0.0,0.0,0.0,-3.1982,-3.8515,-3.9692,-3.9996,-4.0017,-4.0137,-3.7279,-3.0472,0.0,0.0,0.0,0.0,0.0,0.0,0.0,0.0,0.0,0.0,0.0,0.0,0.0,0.0,0.0,0.0,0.0,0.0,0.0,0.0,0.0,0.0,0.0,0.0,0.0,0.0,0.0,0.0,0.0,0.0,0.0,0.0,0.0,0.0,0.0,0.0,0.0,0.0,0.0,0.0,0.0,0.0,0.0,0.0,0.0,0.0,0.0,0.0,0.0,0.0,0.0,0.0,0.0,0.0,0.0,0.0,0.0,0.0,0.0,0.0,0.0,0.0,0.0,0.0,0.0,0.0,0.0,0.0,0.0,0.0,0.0,0.0,0.0,0.0,0.0,0.0,0.0,0.0,0.0,0.0,0.0,0.0,0.0,0.0,0.0,0.0,0.0,0.0,0.0,0.0,0.0,0.0,0.0,0.0,0.0,0.0,0.0,0.0,0.0,0.0,0.0,0.0,0.0,-3.108,-3.4017,-3.9447,-3.9911,-3.9867,-4.0017,-4.0096,-3.7205,-3.0418,-3.0045,0.0,0.0,0.0,0.0,0.0,0.0,0.0,0.0,0.0,0.0,0.0,0.0,0.0,0.0,0.0,0.0,0.0,0.0,0.0,0.0,0.0,0.0,0.0,0.0,0.0,0.0,0.0,0.0,0.0,0.0,0.0,0.0,0.0,0.0,0.0,0.0,0.0,0.0,0.0,0.0,0.0,0.0,0.0,0.0,0.0,0.0,0.0,0.0,0.0,0.0,0.0,0.0,0.0,0.0,0.0,0.0,0.0,0.0,0.0,0.0,0.0,0.0,0.0,0.0,0.0,0.0,0.0,0.0,0.0,0.0,0.0,0.0,0.0,0.0,0.0,0.0,0.0,0.0,0.0,0.0,0.0,0.0,0.0,0.0,0.0,0.0,0.0,0.0,0.0,0.0,0.0,0.0,0.0,0.0,0.0,0.0,0.0,0.0,0.0,0.0,0.0,0.0,-3.5134,-3.7088,-3.9792,-3.9867,-3.9823,-4.0076,-4.0038,-3.7167,-3.0386,-3.0007,0.0,0.0,0.0,0.0,0.0,0.0,0.0,0.0,0.0,0.0,0.0,0.0,0.0,0.0,0.0,0.0,0.0,0.0,0.0,0.0,0.0,0.0,0.0,0.0,0.0,0.0,0.0,0.0,0.0,0.0,0.0,0.0,0.0,0.0,0.0,0.0,0.0,0.0,0.0,0.0,0.0,0.0,0.0,0.0,0.0,0.0,0.0,0.0,0.0,0.0,0.0,0.0,0.0,0.0,0.0,0.0,0.0,0.0,0.0,0.0,0.0,0.0,0.0,0.0,0.0,0.0,0.0,0.0,0.0,0.0,0.0,0.0,0.0,0.0,0.0,0.0,0.0,0.0,0.0,0.0,0.0,0.0,0.0,0.0,0.0,0.0,0.0,0.0,0.0,0.0,0.0,0.0,0.0,0.0,0.0,0.0,0.0,0.0,0.0,0.0,0.0,0.0,-3.6042,-3.9948,-4.0078,-4.0096,-4.0076,-3.9996,-4.0076,-3.7186,-3.0322,-3.0022,0.0,0.0,0.0,0.0,0.0,0.0,0.0,0.0,0.0,0.0,0.0,0.0,0.0,0.0,0.0,0.0,0.0,0.0,0.0,0.0,0.0,0.0,0.0,0.0,0.0,0.0,0.0,0.0,0.0,0.0,0.0,0.0,0.0,0.0,0.0,0.0,0.0,0.0,0.0,0.0,0.0,0.0,0.0,0.0,0.0,0.0,0.0,0.0,0.0,0.0,0.0,0.0,0.0,0.0,0.0,0.0,0.0,0.0,0.0,0.0,0.0,0.0,0.0,0.0,0.0,0.0,0.0,0.0,0.0,0.0,0.0,0.0,0.0,0.0,0.0,0.0,0.0,0.0,0.0,0.0,0.0,0.0,0.0,0.0,0.0,0.0,0.0,0.0,0.0,0.0,0.0,0.0,0.0,0.0,0.0,0.0,0.0,0.0,0.0,0.0,0.0,0.0,-3.4251,-3.7882,-4.0109,-4.008,-3.9996,-4.0177,-4.0099,-3.7167,-3.0371,0.0,0.0,0.0,0.0,0.0,0.0,0.0,0.0,0.0,0.0,0.0,0.0,0.0,0.0,0.0,0.0,0.0,0.0,0.0,0.0,0.0,0.0,0.0,0.0,0.0,0.0,0.0,0.0,0.0,0.0,0.0,0.0,0.0,0.0,0.0,0.0,0.0,0.0,0.0,0.0,0.0,0.0,0.0,0.0,0.0,0.0,0.0,0.0,0.0,0.0,0.0,0.0,0.0,0.0,0.0,0.0,0.0,0.0,0.0,0.0,0.0,0.0,0.0,0.0,0.0,0.0,0.0,0.0,0.0,0.0,0.0,0.0,0.0,0.0,0.0,0.0,0.0,0.0,0.0,0.0,0.0,0.0,0.0,0.0,0.0,0.0,0.0,0.0,0.0,0.0,0.0,0.0,0.0,0.0,0.0,0.0,0.0,0.0,0.0,0.0,0.0,0.0,-3.0152,-3.4225,-3.7794,-4.026,-4.0248,-4.0139,-4.0289,-4.0177,-3.7224,-3.0418,0.0,0.0,0.0,0.0,0.0,0.0,0.0,0.0,0.0,0.0,0.0,0.0,0.0,0.0,0.0,0.0,0.0,0.0,0.0,0.0,0.0,0.0,0.0,0.0,0.0,0.0,0.0,0.0,0.0,0.0,0.0,0.0,0.0,0.0,0.0,0.0,0.0,0.0,0.0,0.0,0.0,0.0,0.0,0.0,0.0,0.0,0.0,0.0,0.0,0.0,0.0,0.0,0.0,0.0,0.0,0.0,0.0,0.0,0.0,0.0,0.0,0.0,0.0,0.0,0.0,0.0,0.0,0.0,0.0,0.0,0.0,0.0,0.0,0.0,0.0,0.0,0.0,0.0,0.0,0.0,0.0,0.0,0.0,0.0,0.0,0.0,0.0,0.0,0.0,0.0,0.0,0.0,0.0,0.0,0.0,0.0,0.0,0.0,0.0,0.0,0.0,0.0,-3.0599,-3.657,-4.0745,-4.0602,-4.0588,-4.0515,-4.0325,-4.0307,-3.7347,0.0,0.0,0.0,0.0,0.0,0.0,0.0,0.0,0.0,0.0,0.0,0.0,0.0,0.0,0.0,0.0,0.0,0.0,0.0,0.0,0.0,0.0,0.0,0.0,0.0,0.0,0.0,0.0,0.0,0.0,0.0,0.0,0.0,0.0,0.0,0.0,0.0,0.0,0.0,0.0,0.0,0.0,0.0,0.0,0.0,0.0,0.0,0.0,0.0,0.0,0.0,0.0,0.0,0.0,0.0,0.0,0.0,0.0,0.0,0.0,0.0,0.0,0.0,0.0,0.0,0.0,0.0,0.0,0.0,0.0,0.0,0.0,0.0,0.0,0.0,0.0,0.0,0.0,0.0,0.0,0.0,0.0,0.0,0.0,0.0,0.0,0.0,0.0,0.0,0.0,0.0,0.0,0.0,0.0,0.0,0.0,0.0,0.0,0.0,0.0,0.0,0.0,0.0,-3.0651,-3.6541,-4.073,-4.0787,-4.0655,-4.0515,-4.0454,-4.0339,-3.7347,-3.0502,0.0,0.0,0.0,0.0,0.0,0.0,0.0,0.0,0.0,0.0,0.0,0.0,0.0,0.0,0.0,0.0,0.0,0.0,0.0,0.0,0.0,0.0,0.0,0.0,0.0,0.0,0.0,0.0,0.0,0.0,0.0,0.0,0.0,0.0,0.0,0.0,0.0,0.0,0.0,0.0,0.0,0.0,0.0,0.0,0.0,0.0,0.0,0.0,0.0,0.0,0.0,0.0,0.0,0.0,0.0,0.0,0.0,0.0,0.0,0.0,0.0,0.0,0.0,0.0,0.0,0.0,0.0,0.0,0.0,0.0,0.0,0.0,0.0,0.0,0.0,0.0,0.0,0.0,0.0,0.0,0.0,0.0,0.0,0.0,0.0,0.0,0.0,0.0,0.0,0.0,0.0,0.0,0.0,0.0,0.0,0.0,0.0,0.0,0.0,0.0,0.0,0.0,-3.0736,-3.6656,-4.0858,-4.0926,-4.0776,-4.0617,-4.0563,-4.0415,-3.8022,-3.2516,0.0,0.0,0.0,0.0,0.0,0.0,0.0,0.0,0.0,0.0,0.0,0.0,0.0,0.0,0.0,0.0,0.0,0.0,0.0,0.0,0.0,0.0,0.0,0.0,0.0,0.0,0.0,0.0,0.0,0.0,0.0,0.0,0.0,0.0,0.0,0.0,0.0,0.0,0.0,0.0,0.0,0.0,0.0,0.0,0.0,0.0,0.0,0.0,0.0,0.0,0.0,0.0,0.0,0.0,0.0,0.0,0.0,0.0,0.0,0.0,0.0,0.0,0.0,0.0,0.0,0.0,0.0,0.0,0.0,0.0,0.0,0.0,0.0,0.0,0.0,0.0,0.0,0.0,0.0,0.0,0.0,0.0,0.0,0.0,0.0,0.0,0.0,0.0,0.0,0.0,0.0,0.0,0.0,0.0,0.0,0.0,0.0,0.0,0.0,0.0,0.0,0.0,-3.0881,-3.6805,-4.0991,-4.1007,-4.1012,-4.0946,-4.0706,-4.0574,-3.9054,-3.5622,0.0,0.0,0.0,0.0,0.0,0.0,0.0,0.0,0.0,0.0,0.0,0.0,0.0,0.0,0.0,0.0,0.0,0.0,0.0,0.0,0.0,0.0,0.0,0.0,0.0,0.0,0.0,0.0,0.0,0.0,0.0,0.0,0.0,0.0,0.0,0.0,0.0,0.0,0.0,0.0,0.0,0.0,0.0,0.0,0.0,0.0,0.0,0.0,0.0,0.0,0.0,0.0,0.0,0.0,0.0,0.0,0.0,0.0,0.0,0.0,-1.8262,-1.6167,0.0,0.0,0.0,0.0,0.0,0.0,0.0,0.0,0.0,0.0,0.0,0.0,0.0,0.0,0.0,0.0,0.0,0.0,0.0,0.0,0.0,0.0,0.0,0.0,0.0,0.0,0.0,0.0,0.0,0.0,0.0,0.0,0.0,0.0,0.0,0.0,0.0,0.0,0.0,0.0,-3.1644,-3.7172,-4.0982,-4.0926,-4.1518,-4.1597,-4.0858,-4.1195,-3.9931,-3.645,-3.4442,0.0,0.0,0.0,0.0,0.0,0.0,0.0,0.0,0.0,0.0,0.0,0.0,0.0,0.0,0.0,0.0,0.0,0.0,0.0,0.0,0.0,0.0,0.0,0.0,0.0,0.0,0.0,0.0,0.0,0.0,0.0,0.0,0.0,0.0,0.0,0.0,0.0,0.0,0.0,0.0,0.0,0.0,0.0,0.0,0.0,0.0,0.0,0.0,0.0,0.0,0.0,0.0,0.0,0.0,0.0,0.0,0.0,0.0,0.0,-2.1202,-1.9581,0.0,0.0,0.0,0.0,0.0,0.0,0.0,0.0,0.0,0.0,0.0,0.0,0.0,0.0,0.0,0.0,0.0,0.0,0.0,0.0,0.0,0.0,0.0,0.0,0.0,0.0,0.0,0.0,0.0,0.0,0.0,0.0,0.0,0.0,0.0,0.0,0.0,0.0,0.0,0.0,-3.1936,-3.8019,-4.2066,-4.1638,-4.2354,-4.2624,-4.2055,-4.2188,-4.1524,-3.96,-3.7034,0.0,0.0,0.0,0.0,0.0,0.0,0.0,0.0,0.0,0.0,0.0,0.0,0.0,0.0,0.0,0.0,0.0,0.0,0.0,0.0,0.0,0.0,0.0,0.0,0.0,0.0,0.0,0.0,0.0,0.0,0.0,0.0,0.0,0.0,0.0,0.0,0.0,0.0,0.0,0.0,0.0,0.0,0.0,0.0,0.0,0.0,0.0,0.0,0.0,0.0,0.0,0.0,0.0,-1.7786,-1.9002,-2.0773,-2.2219,-2.4088,-2.6093,-2.446,-2.3662,-2.3248,-1.8927,0.0,0.0,0.0,0.0,0.0,0.0,0.0,0.0,0.0,0.0,0.0,0.0,0.0,0.0,0.0,0.0,0.0,0.0,0.0,0.0,0.0,0.0,-2.9045,-3.1975,-3.7224,-3.9959,-3.4177,0.0,0.0,0.0,0.0,0.0,0.0,0.0,0.0,0.0,0.0,0.0,-3.3268,-3.9345,-4.3318,-4.2591,-4.3286,-4.3661,-4.3307,-4.3245,-4.3107,-4.2908,-3.9464,-3.7095,0.0,0.0,0.0,0.0,0.0,0.0,0.0,0.0,0.0,0.0,0.0,0.0,0.0,0.0,0.0,0.0,0.0,0.0,0.0,0.0,0.0,0.0,0.0,0.0,0.0,0.0,0.0,0.0,0.0,0.0,0.0,0.0,-0.4835,-1.0555,0.0,0.0,0.0,0.0,0.0,0.0,0.0,0.0,0.0,0.0,0.0,0.0,0.0,-1.4169,-1.5376,-1.725,-1.8117,-1.7996,-2.0217,-2.2558,-2.4781,-2.1472,-2.2378,-2.6813,-3.0313,0.0,-2.4585,-2.4362,0.0,0.0,0.0,0.0,0.0,0.0,0.0,0.0,0.0,0.0,0.0,0.0,0.0,0.0,0.0,0.0,0.0,0.0,0.0,0.0,0.0,0.0,-3.9248,-3.9648,-4.1593,-4.2907,-4.1225,-3.5335,-3.0847,-3.2514,-3.1259,-2.938,0.0,0.0,0.0,0.0,0.0,0.0,-3.8277,-4.1596,-4.3545,-4.3455,-4.4106,-4.4229,-4.3385,-4.3751,-4.398,-4.3767,-4.281,-4.1005,-3.8154,-3.6373,0.0,0.0,0.0,0.0,0.0,0.0,0.0,0.0,0.0,0.0,0.0,0.0,0.0,0.0,0.0,0.0,0.0,0.0,0.0,0.0,0.0,0.0,0.0,0.0,0.0,0.0,0.0,0.0,0.0,-0.5987,-0.7634,-1.3273,-1.0157,-0.8515,0.0,0.0,0.0,0.0,0.0,0.0,0.0,0.0,0.0,-1.475,-1.4727,-1.5386,-1.6848,-1.7135,-1.7092,-1.6804,-1.7915,-2.0165,-2.3194,-2.2535,-2.3686,-2.6298,-2.9154,-3.0104,-2.9709,-2.9017,-2.6882,-2.3528,0.0,0.0,0.0,0.0,-2.4491,-2.9413,-3.1589,-3.2204,-3.1967,-3.1441,0.0,0.0,0.0,0.0,0.0,0.0,0.0,-2.3172,-2.1321,-3.1658,-4.2846,-4.375,-4.4093,-4.4117,-4.3732,-4.1069,-3.8206,-3.6286,-3.4339,-3.1926,-2.8491,-2.8996,0.0,0.0,0.0,-3.7669,-3.9574,-4.29,-4.4877,-4.4323,-4.5009,-4.525,-4.4639,-4.4784,-4.4729,-4.4387,-4.4134,-4.3267,-4.1586,-3.872,-3.5225,0.0,0.0,0.0,0.0,0.0,0.0,0.0,0.0,0.0,0.0,0.0,0.0,0.0,0.0,0.0,0.0,0.0,0.0,0.0,0.0,0.0,0.0,0.0,0.0,0.0,0.0,0.0,0.0,-0.8445,-0.9748,-1.5074,-1.2075,-0.9992,0.0,0.0,0.0,0.0,0.0,0.0,-1.3641,-1.2298,-1.2481,-1.4575,-1.435,-1.4825,-1.606,-1.5434,-1.5521,-1.6338,-1.6205,-1.7927,-2.1259,-2.3453,-2.5133,-2.6318,-2.8195,-3.122,-3.4636,-3.2864,-3.199,-3.1149,-2.4778,-2.1513,-2.1041,-2.6635,-3.1963,-3.629,-3.5188,-3.5505,-3.617,-3.5035,-3.5032,-3.5466,-3.546,0.0,0.0,0.0,0.0,-3.0595,-3.0658,-3.659,-4.3117,-4.5273,-4.5387,-4.4987,-4.4718,-4.4667,-4.3521,-3.9607,-3.8011,-3.5793,-3.1072,-3.2397,0.0,-3.2706,-3.6871,-4.0452,-4.1349,-4.4231,-4.5923,-4.5204,-4.5654,-4.5908,-4.5634,-4.5414,-4.5107,-4.4726,-4.4503,-4.4229,-4.3897,-4.0843,-3.8332,-3.6479,0.0,0.0,0.0,0.0,0.0,0.0,0.0,0.0,0.0,0.0,0.0,0.0,0.0,0.0,0.0,0.0,0.0,0.0,0.0,0.0,0.0,0.0,0.0,0.0,0.0,0.0,0.0,0.0,0.0,-1.3931,-1.1515,0.0,0.0,0.0,0.0,-0.9194,-0.9953,-1.126,-1.3044,-1.138,-1.1475,-1.3867,-1.1426,-1.0075,-1.0025,-1.1473,-1.4094,-1.7773,-1.7353,-1.8411,-2.0908,-2.3385,-2.5635,-2.776,-3.0603,-3.4154,-3.779,-3.5605,-3.4711,-3.4657,-3.4404,-3.428,-3.4436,-3.6312,-3.7539,-3.8163,-3.7343,-3.7849,-3.8687,-3.7297,-3.582,-3.4562,-3.4574,-3.3238,0.0,0.0,-3.4659,-3.6182,-3.9301,-3.9816,-4.0398,-4.3865,-4.5468,-4.5973,-4.5071,-4.4293,-4.3707,-4.3427,-4.3911,-4.3266,-3.9763,0.0,-3.9663,-4.0405,-4.0795,-4.224,-4.5558,-4.6064,-4.6098,-4.6059,-4.5897,-4.5747,-4.5619,-4.5227,-4.4919,-4.4701,-4.4154,-4.3892,-4.3897,-4.3277,-4.1065,-3.7043,-3.5204,0.0,0.0,0.0,0.0,0.0,0.0,0.0,0.0,0.0,0.0,0.0,0.0,0.0,0.0,0.0,0.0,0.0,0.0,0.0,0.0,0.0,0.0,0.0,0.0,0.0,0.0,0.0,0.0,-1.0903,-0.8558,0.0,-0.9866,-1.1148,-1.1259,-0.9893,-0.9352,-0.9914,-1.1722,-0.9007,-0.796,-0.9249,-1.0775,-1.177,-1.2195,-1.2457,-1.4244,-1.746,-1.7591,-1.8768,-2.0924,-2.4875,-2.7925,-3.0071,-3.0988,-3.2955,-3.5695,-3.8139,-3.8798,-3.8281,-3.841,-3.8462,-3.8646,-4.014,-4.0798,-4.0907,-4.0539,-4.102,-4.1916,-4.2582,-4.2845,-4.2602,-4.0892,-3.9557,-3.8635,-3.8617,-3.8857,-3.9381,-4.061,-4.2316,-4.3817,-4.4453,-4.5469,-4.6204,-4.5852,-4.5579,-4.5382,-4.5385,-4.4686,-4.3381,-4.1041,-4.2519,-4.3333,-4.1381,-4.3021,-4.4848,-4.6025,-4.6118,-4.606,-4.5925,-4.5829,-4.5673,-4.5361,-4.512,-4.4825,-4.4383,-4.4102,-4.3828,-4.3667,-4.3497,-4.2592,-4.0888,-4.0271,-3.6489,0.0,0.0,0.0,0.0,0.0,0.0,0.0,0.0,0.0,0.0,0.0,0.0,0.0,0.0,0.0,0.0,0.0,0.0,0.0,0.0,0.0,0.0,0.0,0.0,0.0,-0.7549,-0.7263,-0.8981,-0.7915,-0.721,-0.7644,-1.0156,-1.062,-0.784,-0.715,-0.7508,-0.8915,-0.7085,-0.6213,-0.6776,-0.966,-1.1999,-1.3557,-1.3115,-1.458,-1.8092,-1.9087,-2.1075,-2.3862,-2.7031,-2.9947,-3.2517,-3.2161,-3.3161,-3.5343,-3.9144,-4.0491,-4.0227,-4.0631,-4.0781,-4.086,-4.1788,-4.2163,-4.2328,-4.3186,-4.4025,-4.4929,-4.6416,-4.7406,-4.7693,-4.5937,-4.4961,-4.4412,-4.3786,-4.3582,-4.3595,-4.3634,-4.5371,-4.687,-4.6211,-4.664,-4.7174,-4.7168,-4.7168,-4.7168,-4.7168,-4.5781,-4.4212,-4.304,-4.4787,-4.5398,-4.2733,-4.4562,-4.6103,-4.5687,-4.584,-4.5958,-4.5827,-4.5928,-4.576,-4.526,-4.4387,-4.4082,-4.4498,-4.3584,-4.3369,-4.4233,-4.2809,-4.1903,-4.1578,-4.1101,-3.7646,-3.1288,0.0,0.0,0.0,0.0,0.0,0.0,0.0,0.0,0.0,0.0,0.0,0.0,0.0,0.0,0.0,0.0,0.0,0.0,0.0,0.0,0.0,0.0,0.0,-1.14,-0.8496,-0.6954,-0.8181,-0.9589,-0.9376,-0.6609,-0.9535,-0.9047,-0.2827,-0.3278,-0.4114,-0.4747,-0.5626,-0.6398,-0.6946,-0.7961,-1.0135,-1.3541,-1.309,-1.5122,-1.9736,-2.1839,-2.5188,-2.9548,-2.9534,-3.1456,-3.4786,-3.4121,-3.5084,-3.7184,-3.8508,-3.9621,-4.0523,-4.1442,-4.1815,-4.1798,-4.1722,-4.1816,-4.2328,-4.5115,-4.6675,-4.7591,-4.8483,-4.8853,-4.8961,-4.8975,-4.8982,-4.8984,-4.8967,-4.8938,-4.8945,-4.8984,-4.8945,-4.8906,-4.8906,-4.8906,-4.8906,-4.8902,-4.89,-4.89,-4.89,-4.7539,-4.636,-4.6354,-4.6345,-4.6015,-4.4988,-4.5599,0.0,-4.489,-4.5428,-4.5838,-4.5786,-4.609,-4.602,-4.5218,-4.3114,-4.2809,-4.5084,-4.2668,-4.2551,-4.5663,-4.1615,-3.9193,-3.8939,-3.7386,-3.5594,-3.3612,0.0,0.0,0.0,0.0,0.0,0.0,0.0,0.0,0.0,0.0,0.0,0.0,0.0,0.0,0.0,0.0,0.0,0.0,0.0,0.0,0.0,-0.404,-0.5312,-0.6594,-0.6717,-0.6253,-0.5032,-0.4515,-0.404,-0.3506,-0.4785,-0.4437,-0.155,-0.1653,-0.1951,-0.2111,-0.2055,-0.3351,-0.6339,-0.7471,-0.9836,-1.3476,-1.4621,-1.59,-1.7285,-1.9937,-2.3933,-2.8973,-2.9092,-3.0822,-3.3659,-3.433,-3.5357,-3.679,-3.794,-3.952,-4.1393,-4.3277,-4.403,-4.4037,-4.4095,-4.4428,-4.5115,-4.7132,-4.806,-4.8593,-5.0049,-5.0594,-5.0701,-5.0703,-5.0703,-5.0703,-5.0702,-5.0117,-4.9687,-5.0496,-5.01,-4.948,-4.9492,-4.918,-4.8906,-4.8906,-4.8903,-4.89,-4.89,-4.8508,-4.7961,-4.7341,-4.7207,-4.6833,-4.5903,-4.6427,-4.6833,-4.641,-4.7091,-4.7008,-4.5381,-4.4822,-4.457,-4.4482,-4.3407,-4.3669,-4.5853,-4.5137,-4.4857,-4.5399,-4.4111,-4.3018,-4.2281,-3.945,-3.8973,0.0,0.0,0.0,0.0,0.0,0.0,0.0,0.0,0.0,0.0,0.0,0.0,0.0,0.0,0.0,0.0,0.0,0.0,0.0,0.0,0.0,0.0,-0.4633,-0.4383,-0.3486,-0.4309,-0.4362,-0.2703,-0.2326,-0.2085,-0.1765,-0.1951,-0.1667,-0.0704,-0.0605,-0.0612,-0.0577,-0.1412,-0.3159,-0.5961,-0.7478,-0.9841,-1.3261,-1.4333,-1.6213,-1.8783,-1.9817,-2.2444,-2.6413,-2.8337,-3.0535,-3.2939,-3.5116,-3.6236,-3.6725,-3.8352,-3.9946,-4.163,0.0,0.0,0.0,0.0,-4.5858,-4.686,-4.8063,-4.9007,-4.9858,-5.0828,-5.1288,-5.1405,-5.1405,-5.1405,-5.1405,-5.1406,-5.0937,-5.0545,-5.1242,-5.0917,-5.0403,-5.0422,-5.0153,-4.9958,-4.9905,-4.992,-4.9959,-4.992,-4.9914,0.0,-4.8313,-4.7776,-4.7047,-4.5679,-4.6434,-4.6952,-4.6326,-4.7296,-4.7491,-4.6107,-4.5784,-4.5571,-4.5348,-4.4125,0.0,0.0,0.0,-4.4041,-4.3078,-4.2917,0.0,0.0,0.0,-4.0597,-4.3898,-3.9122,0.0,0.0,-3.441,-3.4111,0.0,0.0,0.0,0.0,0.0,0.0,0.0,0.0,0.0,0.0,0.0,0.0,0.0,0.0,0.0,0.0,-0.6729,-0.6206,-0.1591,-0.1433,-0.1636,-0.1176,-0.1972,-0.2137,-0.1065,-0.0647,-0.0356,-0.0204,-0.0051,0.0053,0.0112,-0.2422,0.0,0.0,0.0,-1.0309,-1.3025,-1.338,-1.6138,-2.1198,-2.0375,-2.1067,-2.3232,-2.705,-3.0195,-3.2827,-3.6514,-3.784,-3.7539,-3.9652,-4.1108,-4.2136,-4.4035,-4.4801,-4.4927,-4.536,-4.6381,-4.7583,-4.828,0.0,0.0,-5.1086,-5.1245,-5.1396,-5.1396,-5.1396,-5.1398,-5.1405,-5.1403,-5.14,-5.1405,-5.1396,-5.1414,-5.1414,-5.1382,-5.1375,-5.1289,-5.1318,-5.1361,-5.1286,-5.1295,-5.0752,-4.9166,-4.8171,-4.6941,-4.5021,-4.6098,-4.6689,-4.5628,-4.6832,-4.7656,-4.7235,-4.755,0.0,-4.6885,-4.4851,-4.423,-4.5623,-4.3768,-4.1959,-4.0492,-4.0572,-4.0424,-3.9973,-4.0138,-4.1507,-4.4038,-4.4268,-4.3597,-4.2189,-4.366,-4.1619,0.0,0.0,0.0,0.0,0.0,0.0,0.0,0.0,0.0,0.0,0.0,0.0,0.0,0.0,0.0,-0.0027,-0.0524,0.0045,0.0186,0.1582,0.1641,-0.08,-0.1125,-0.1017,-0.0729,-0.0577,-0.0427,-0.022,0.0169,0.0288,0.0058,-0.2139,-0.4108,-0.5824,-0.9015,-1.1554,-1.3375,-1.4798,-1.5419,-1.5214,-1.8753,0.0,-2.3271,-2.3997,-2.819,-3.5061,-3.946,-4.1429,-4.1525,-4.2632,-4.4252,-4.5948,-4.4944,-4.482,-4.5303,-4.6013,-4.6292,-4.659,-4.84,-4.9354,-4.9904,-5.0945,-5.1336,-5.1382,-5.1382,-5.1382,0.0,-5.1385,-5.1391,-5.1396,-5.1389,-5.1382,-5.1414,-5.1414,-5.1303,-5.124,-5.1208,-5.1192,-5.114,-5.1131,-5.1142,-5.0802,-4.9722,-4.8836,-4.7714,-4.5936,-4.6722,-4.7468,-4.7188,-4.8289,-4.8494,-4.6824,-4.6165,-4.5935,-4.6234,-4.4343,-4.409,-4.6426,-4.5351,-4.4459,-4.3978,-4.4227,-4.4234,-4.4026,-4.4662,-4.4986,-4.4838,-4.4906,-4.5179,-4.5823,-4.3614,-4.2702,0.0,0.0,0.0,0.0,0.0,0.0,0.0,0.0,0.0,0.0,0.0,0.871,0.1685,0.0,0.8026,0.0178,0.1227,0.3012,0.2838,0.3741,0.343,0.0879,0.0855,0.0888,0.0489,0.1157,0.1186,0.0117,0.0834,0.0968,0.0185,-0.1989,-0.3362,-0.3661,-0.8143,-1.1114,-1.2112,-1.3945,-1.4338,-1.3554,-1.7389,-2.0285,-2.2334,-2.4363,-3.1166,-4.1255,-4.1457,-4.1894,-4.2554,-4.4017,-4.5908,-4.773,-4.7277,-4.6643,-4.6066,-4.6914,-4.7373,-4.7728,-4.8916,-4.9707,-5.0261,-5.0868,-5.1162,-5.1211,-5.1362,-5.1336,-5.1302,-5.1367,-5.1382,-5.1385,-5.1418,-5.1414,-5.1367,-5.133,-5.1265,-5.118,-5.1076,-5.1044,-5.1022,-5.0995,-5.0674,-5.0104,-4.9241,-4.8282,-4.7333,-4.6399,-4.6742,-4.7105,-4.7188,-4.8089,-4.839,-4.7627,-4.6644,-4.6173,-4.6434,-4.4732,-4.4515,-4.6406,-4.5729,-4.5386,-4.5598,-4.5986,-4.6234,-4.6199,-4.6576,-4.6554,-4.6135,-4.6281,-4.643,-4.6567,-4.5418,-4.5009,0.0,0.0,0.0,0.0,0.0,0.0,0.0,0.718,0.7045,0.6699,0.8526,0.8288,0.2037,0.5725,0.7229,-0.0398,0.2009,0.4923,0.5135,0.5336,0.4852,0.3208,0.275,0.2392,0.1905,0.26,0.2383,0.0738,0.1359,0.1319,0.0325,-0.1894,-0.2645,-0.1488,-0.7061,-0.999,-0.9941,-1.2288,-1.417,-1.5638,-1.8109,-2.0526,-2.2959,-2.8623,-3.6494,-4.5388,-4.2437,-4.2061,-4.3721,-4.5585,-4.7367,-4.906,-4.9703,-4.9136,-4.809,-4.8562,-4.9009,-4.9483,-4.9928,-5.0731,-5.1525,-5.1293,-5.1358,-5.1536,-5.1646,-5.1632,-5.1569,-5.183,-5.1648,-5.1414,-5.1414,-5.1367,-5.1341,-5.1226,-5.1181,-5.1081,-5.0956,-5.0937,-5.089,-5.0661,-5.01,-4.9363,-4.8519,-4.7486,-4.6703,-4.6455,-4.6373,-4.6426,-4.6581,-4.7168,-4.7694,-4.8015,-4.7314,-4.6788,-4.6694,-4.553,-4.5244,-4.6274,-4.5996,-4.602,-4.6666,-4.7193,-4.7476,-4.7421,-4.7592,-4.7557,-4.7295,-4.7786,-4.7615,-4.6887,-4.7588,-4.7155,1.0804,0.886,0.781,0.8814,0.7773,0.6555,0.0,0.5766,0.3805,-0.0015,0.4333,0.608,-0.2887,0.4317,0.9047,0.1207,0.4606,0.7583,0.5626,0.645,0.689,0.594,0.3509,0.2257,0.3078,0.1679,0.0982,0.1658,0.101,0.052,0.0335,-0.1809,-0.2636,-0.1719,-0.725,-0.9195,-0.6933,-1.1312,-1.6701,-2.3006,-2.4025,-2.5879,-2.8743,-3.934,-4.2789,-4.0485,-4.1794,-4.4542,-4.814,-4.8961,-5.0046,-5.1117,-5.0883,-5.1733,-5.2933,-5.1714,-5.1009,-5.0756,-5.1722,-5.2877,-5.373,-5.2724,-5.2831,-5.3234,-5.2853,-5.2723,-5.2855,-5.3509,-5.2585,-5.1414,-5.1414,-5.1323,-5.1217,-5.1195,-5.105,-5.0928,-5.089,-5.0791,-5.051,-4.9721,-4.949,-4.9106,-4.8123,-4.7279,-4.6455,-4.5722,-4.5757,-4.5844,-4.582,-4.6253,-4.6419,-4.603,-4.6541,-4.6803,-4.6471,-4.6247,-4.6175,-4.6301,-4.688,-4.7489,-4.807,-4.8762,-4.8831,-4.8182,-4.8865,-4.8728,-4.7715,-4.8685,-4.9095,-4.8941,-4.8897,-4.7916,1.3447,1.1154,0.945,0.9538,0.875,0.7884,0.7498,0.6934,0.5762,0.3223,0.5121,0.6084,0.2118,0.5845,0.8582,0.5673,0.7116,0.8318,0.7466,0.7561,0.7544,0.7192,0.5058,0.3788,0.4227,0.4399,0.3586,0.142,0.2262,0.2151,0.0423,-0.1448,-0.1913,-0.0736,-0.5648,-0.9878,-1.3114,-1.3417,-1.5,-1.8021,-2.2506,-2.8802,-3.677,-4.4723,-4.6549,-4.345,-4.5087,-4.689,-4.867,-4.9305,-5.0713,-5.2536,-5.2364,-5.2748,-5.3283,-5.2679,-5.2308,-5.2123,-5.2581,-5.2892,-5.3128,-5.3321,-5.3219,-5.3243,-5.4397,-5.4363,-5.3939,-5.4242,-5.3826,-5.3189,-5.2784,-5.2261,-5.1819,-5.1761,-5.13,-5.0868,-5.0794,-5.074,-5.0413,-4.937,-4.8774,-4.8273,-4.7709,-4.721,-4.6996,-4.7143,-4.6038,-4.5413,-4.6113,-4.6416,-4.6611,-4.6641,-4.699,-4.7119,-4.6786,-4.672,-4.6968,-4.7419,-4.8264,-4.886,-4.911,-4.9971,-5.0119,-4.9372,-4.9678,-4.9406,-4.8463,-4.8991,-4.929,-4.9331,-4.9202,-4.8619,1.4748,1.2668,1.0858,0.9987,0.9385,0.88,0.7909,0.7791,0.7592,0.6599,0.6532,0.6687,0.6663,0.738,0.8151,0.8591,0.8585,0.8564,0.8778,0.8227,0.7813,0.7948,0.6474,0.5498,0.5616,0.6352,0.5672,0.3027,0.3107,0.2466,0.0588,-0.1052,-0.1219,0.0305,-0.5745,-1.1735,-1.7593,-1.5742,-1.4728,-1.4805,-2.1494,-2.9372,-3.8263,-4.5277,-4.7888,-4.6885,-4.828,-4.9098,-4.9543,-5.018,-5.1675,-5.3628,-5.3785,-5.3917,-5.3996,-5.4202,-5.4034,-5.3713,-5.4173,-5.4073,-5.3843,-5.4488,-5.437,-5.4304,-5.5598,-5.5527,-5.5003,-5.5025,-5.4567,-5.3955,-5.3468,-5.2602,-5.189,-5.1773,-5.1299,-5.0808,-5.0702,-5.0702,-5.0412,-4.951,-4.8876,-4.8327,-4.801,-4.7834,-4.7947,-4.8578,-4.7015,-4.6127,-4.7057,-4.691,-4.6938,-4.7462,-4.7427,-4.7401,-4.7631,-4.7613,-4.8084,-4.906,-4.9838,-5.0403,-5.0549,-5.1138,-5.115,-5.0405,-5.0202,-4.9729,-4.9018,-4.9107,-4.9175,-4.9277,-4.9419,-4.9299,1.3718,1.2708,1.1746,0.9658,0.8974,0.8535,0.7471,0.7524,0.7688,0.7266,0.743,0.7637,0.7575,0.8065,0.8486,0.8427,0.8617,0.8791,0.8804,0.8227,0.7937,0.8337,0.7413,0.6907,0.7372,0.5906,0.5779,0.7709,0.3107,0.0293,0.0599,-0.0625,-0.056,0.1203,-0.8742,-1.4991,-1.6707,-1.7476,-1.7896,-1.7924,-2.3276,-2.6942,-2.9398,-3.9879,-4.6031,-4.8696,-5.0152,-5.1294,-5.2036,-5.279,-5.3584,-5.4397,-5.5053,-5.5826,-5.6561,-5.7225,-5.6545,-5.5555,-5.7122,-5.763,-5.7477,-5.6675,-5.6981,-5.7417,-5.6078,-5.5825,-5.598,-5.6045,-5.4397,-5.2678,-5.2627,-5.1798,-5.096,-5.096,-5.0812,-5.0721,-5.0702,-5.0702,-5.0604,-5.023,-5.0145,-4.9961,-4.9445,-4.9356,-4.9333,-4.9252,-4.881,-4.8529,-4.8603,-4.7565,-4.714,-4.7972,-4.7392,-4.7578,-4.911,-4.9214,-4.982,-5.1142,-5.158,-5.209,-5.2652,-5.2462,-5.1928,-5.1183,-5.0473,-4.9729,-4.9018,-4.8984,-4.9046,-4.9202,-5.0008,-5.0118,1.4882,1.3272,1.1544,1.0553,0.9579,0.8746,0.8367,0.8131,0.83,0.9336,1.0126,1.1103,1.2394,1.2135,1.1648,1.1586,1.0044,0.8871,0.9167,0.8628,0.8304,0.8702,0.7875,0.7325,0.7522,0.7432,0.7703,0.8477,0.6798,0.4361,0.1231,0.0641,-0.1641,-0.604,-0.9648,-1.3585,-1.8083,-1.839,-1.8531,-1.8665,-2.7941,-3.414,-3.7446,-4.2877,-4.7285,-5.0677,-5.1383,-5.2138,-5.2857,-5.312,-5.3927,-5.5125,-5.5317,-5.6144,-5.7349,-5.8,-5.7962,-5.7528,-5.7616,-5.7873,-5.8092,-5.751,-5.7825,-5.8309,-5.7478,-5.6946,-5.6636,-5.6578,-5.5593,-5.4496,-5.4457,-5.3759,-5.3102,-5.3144,-5.2679,-5.2406,-5.3025,-5.251,-5.1863,-5.1623,-5.0988,-5.035,-5.0043,-5.0114,-5.0527,-5.1403,-5.0416,-4.9491,-4.9247,-4.9316,-4.9447,-4.9644,-4.9485,-4.9532,-4.998,-5.0049,-5.0258,-5.0802,-5.128,-5.1683,-5.2193,-5.2516,-5.2157,-5.1217,-5.0458,-4.9692,-4.8729,-4.8263,-4.8561,-4.9659,-4.9959,-5.0493,1.5197,1.3676,1.2086,1.1053,1.0424,0.9918,0.9559,0.9607,1.0049,1.1307,1.2626,1.3881,1.4933,1.537,1.5563,1.5541,1.3451,1.1977,1.2342,1.0354,0.8884,0.8831,0.8023,0.7621,0.7886,0.842,0.8663,0.8674,0.8663,0.6274,0.07,0.0406,-0.2828,-0.9746,-1.0019,-1.2786,-1.877,-1.8836,-2.0833,-2.4956,-3.2202,-3.8384,-4.3559,-4.5865,-4.8762,-5.2065,-5.2294,-5.3277,-5.4658,-5.4396,-5.4944,-5.5917,-5.6181,-5.7012,-5.812,-5.8867,-5.9201,-5.9215,-5.857,-5.8577,-5.8836,-5.8562,-5.8778,-5.9152,-5.8782,-5.8212,-5.7627,-5.7443,-5.6437,-5.547,-5.5708,-5.479,-5.3795,-5.3926,-5.3582,-5.3315,-5.3734,-5.3432,-5.3127,-5.3208,-5.2648,-5.2039,-5.1714,-5.1434,-5.1536,-5.2327,-5.1511,-5.0748,-5.0597,-5.0773,-5.0779,-5.055,-5.0564,-5.0363,-4.9965,-5.0228,-5.0341,-5.0272,-5.0922,-5.1543,-5.2001,-5.1945,-5.1727,-5.1161,-5.0119,-4.9341,-4.8642,-4.8502,-4.894,-5.0021,-5.0491,-5.1263,1.4711,1.4032,1.3378,1.1399,1.1513,1.1945,1.1084,1.1812,1.2803,1.326,1.4849,1.5968,1.5453,1.7723,1.9724,1.9747,1.8498,1.7671,1.8105,1.3293,0.9486,0.0,0.0,0.0,0.0,0.0,0.8673,0.8665,0.8585,0.5718,-0.0934,-0.1306,-0.3855,-0.9414,-0.9854,-1.2719,-1.8319,-1.8675,-2.4496,-3.5704,-3.6179,-4.0039,-4.6974,-4.8458,-5.0553,-5.2924,-5.3082,-5.4775,-5.7332,-5.6695,-5.6668,-5.7039,-5.7753,-5.8442,-5.9188,-5.9951,-6.0387,-6.0546,-5.9918,-5.976,-5.9791,-5.9791,-5.9857,-5.9912,-5.9874,-5.9388,-5.8834,-5.8642,-5.7047,-5.5644,-5.6343,-5.483,-5.3124,-5.3433,-5.3564,-5.3475,-5.3095,-5.3559,-5.4276,-5.4911,-5.4947,-5.4637,-5.4049,-5.3117,-5.2335,-5.1994,-5.2042,-5.2221,-5.2361,-5.1772,-5.1158,-5.0803,-5.0564,-5.008,-4.9248,-4.9873,-5.0137,-4.9664,-5.0772,-5.1685,-5.2123,-5.115,-5.0827,-5.1115,-4.9681,-4.882,-4.8925,-4.9637,-5.0085,-5.0391,-5.1765,-5.2501,1.5711,1.5255,1.4543,1.3916,1.3967,1.4028,1.3458,1.3464,1.4125,1.6062,1.7399,1.8596,1.9836,1.9794,1.9406,1.8976,2.0146,2.1564,2.3024,1.5068,0.0,1.002,0.0,1.298,0.9065,0.8683,0.0,0.7832,0.7274,0.4477,-0.1037,-0.1336,-0.1979,-0.3573,-0.7803,-1.0726,-1.2264,-1.6595,-2.4533,-3.5817,-4.2473,-4.657,-4.8486,-5.0723,-5.2834,-5.4856,-5.6147,-5.7308,-5.8334,-5.8145,-5.8644,-5.9477,-5.9702,-6.0521,-6.1652,-6.178,-6.1629,-6.1343,-6.1153,-6.0627,-5.9962,-5.9715,-5.9757,-5.9824,-5.9772,-5.9121,-5.8546,-5.9345,-5.8517,-5.7422,-5.7262,-5.6125,-5.5025,-5.5152,-5.4924,-5.483,-5.543,-5.5473,-5.5726,-5.6662,-5.5447,-5.3778,-5.2207,-5.192,-5.1777,-5.1367,-5.1367,-5.147,-5.1822,-5.1521,-5.1158,-5.0803,-5.0564,-5.0285,-5.008,-4.9849,-4.9698,-4.9815,-5.0538,-5.115,-5.1469,-5.2111,-5.2292,-5.2001,-5.0495,-4.9896,-5.0255,-4.9457,-5.0042,-5.1748,-5.2797,-5.3919,1.582,1.5557,1.5178,1.5053,1.5076,1.5142,1.5269,1.5544,1.6182,1.7535,1.9166,2.0512,2.1095,2.1909,2.2501,0.0,0.0,0.0,2.9642,1.7658,0.9904,0.0,1.5455,0.0,1.2563,1.0154,0.8196,0.7087,0.623,0.3659,-0.1062,-0.1351,-0.138,-0.1395,-0.7368,-1.2986,-1.8226,-1.862,-2.4666,-3.6341,-4.5909,-4.9733,-4.8609,-5.1731,-5.4206,-5.6005,-5.7427,-5.8673,-5.9743,-5.9864,-6.0326,-6.0858,-6.074,-6.1394,-6.2406,-6.233,-6.2345,-6.2349,-6.2251,-6.1675,-6.0814,-5.9832,-5.9578,-5.9723,-5.976,-5.9412,-5.9062,-5.9701,-5.9463,-5.878,-5.7932,-5.671,-5.5604,-5.5211,-5.5247,-5.5232,-5.4938,-5.5257,-5.566,-5.5743,-5.4339,-5.2817,-5.1847,-5.1405,-5.1157,-5.0999,-5.1034,-5.1088,-5.1123,-5.1158,-5.1229,-5.124,-5.1109,-5.076,-5.0141,-5.0113,-5.0187,-5.043,-5.1123,-5.1999,-5.3062,-5.2738,-5.2842,-5.3379,-5.0746,-5.0057,-5.1426,-5.0758,-5.1327,-5.299,-5.4289,-5.5416,1.5631,1.5802,1.6069,1.5921,1.6145,1.6542,1.7188,1.7893,1.8461,1.8549,2.0326,2.1626,2.0823,2.3611,2.5969,2.5817,0.0,3.2326,3.3299,1.9585,1.1255,1.5984,1.6565,1.6422,1.6034,1.1787,0.8465,0.6988,0.6514,0.4019,-0.1165,-0.1535,-0.1904,-0.2527,-0.8215,-1.7154,-2.9594,-2.5145,-2.7805,-3.7616,-4.7574,-5.1015,-4.8615,-5.2335,-5.5034,-5.6833,-5.813,-5.9626,-6.1248,-6.1703,-6.1823,-6.174,-6.1534,-6.1876,-6.2538,-6.253,-6.2892,-6.3421,-6.3399,-6.2844,-6.1787,-6.0179,-5.9623,-5.9583,-5.9771,-5.9877,-5.9908,-5.9836,-5.9824,-5.9555,-5.8386,-5.6925,-5.5508,-5.4612,-5.4833,-5.4784,-5.3175,-5.392,-5.4634,-5.3493,-5.2604,-5.1946,-5.1931,-5.122,-5.0704,-5.0869,-5.1029,-5.0955,-5.055,-5.0794,-5.115,-5.1442,-5.172,-5.1253,-4.9786,-5.0493,-5.0994,-5.0846,-5.1597,-5.3039,-5.5066,-5.3171,-5.297,-5.4907,-5.1168,-5.0245,-5.253,-5.2574,-5.314,-5.4112,-5.5826,-5.681,1.6457,1.7913,1.9119,1.9057,2.0316,2.1408,2.0679,2.0107,1.9976,2.0741,2.0702,2.0857,2.1868,2.3164,2.2662,1.8279,1.9054,2.0307,2.0532,1.6476,1.3881,0.0,1.4924,1.388,1.1357,1.1109,0.0,0.9802,1.1674,0.8746,-0.0905,-0.238,-0.4635,-0.843,-1.0216,-1.8707,-3.4318,-4.0658,-4.2966,-4.147,-4.8529,-5.1931,-5.2202,-5.4391,-5.6445,-5.8355,-6.0222,-6.1592,-6.263,-6.343,-6.3509,-6.3238,-6.3156,-6.3638,-6.4244,-6.413,-6.4031,-6.4103,-6.5224,-6.3955,-6.183,-6.1613,-6.0529,-5.9365,-5.9403,-5.9665,-5.9847,-5.9513,-5.9399,-5.925,-5.8569,-5.7138,-5.5706,-5.5111,-5.411,-5.3211,-5.2865,-5.3247,-5.3258,-5.2074,-5.1794,-5.1459,-5.054,-5.0737,-5.1142,-5.1337,-5.1236,-5.1185,-5.1493,-5.103,-5.0412,-4.9835,-5.121,-5.1393,-4.9681,-5.0518,-5.0615,-4.9556,-5.0079,-5.1125,-5.2797,-5.3332,-5.4317,-5.5788,-5.3563,-5.2961,-5.4039,-5.3639,-5.394,-5.4778,-5.6748,-5.7635,1.8569,1.9329,2.0106,2.1138,2.1857,2.2099,2.1484,2.1337,2.1117,2.0531,2.0512,2.0712,2.1031,2.2359,0.0,2.0101,1.8342,1.7413,1.7678,1.5856,1.4472,1.4515,1.4477,1.4078,0.0,1.2331,1.2301,1.3173,1.4092,1.0583,0.1332,-0.1758,-0.545,-1.0459,-1.1036,-1.7419,-3.0507,-4.1278,-4.3897,-3.8615,-4.7805,-5.2505,-5.313,-5.532,-5.7761,-6.034,-6.1776,-6.2826,-6.355,-6.4131,-6.4249,-6.4046,-6.3883,-6.4214,-6.4737,-6.4585,-6.466,-6.4872,-6.5618,-6.4963,-6.374,-6.3643,-6.2674,-6.1235,-5.9505,-6.0301,-6.1432,-5.9665,-5.9591,-5.9665,-5.7937,-5.6903,-5.5912,-5.447,-5.291,-5.1936,-5.275,-5.1969,-5.0897,-5.0435,-5.0424,-5.0379,-4.9894,-5.0287,-5.0668,-5.0783,-5.108,-5.1398,-5.1713,-5.1999,-5.1685,-5.0326,-5.0925,-5.1012,-4.9863,-5.026,-5.0487,-5.0402,-5.0682,-5.2006,-5.4548,-5.3895,-5.4716,-5.7223,-5.3869,-5.329,-5.5649,-5.4656,-5.4849,-5.6224,-5.7706,-5.8531,2.0665,2.0962,2.1392,2.3392,2.3526,2.3101,2.255,2.2628,2.2187,2.0047,2.0159,2.0589,2.0407,2.1826,2.3105,0.0,2.1096,1.8965,1.8002,1.6551,1.5314,0.0,1.4714,0.0,1.5111,1.4086,0.0,1.5332,1.4926,1.1432,0.401,-0.0788,-0.5466,-1.0265,-1.091,-1.6109,-2.6283,-3.7544,-4.1139,-3.729,-4.8031,-5.3585,-5.4399,-5.6729,-5.9342,-6.205,-6.3,-6.3606,-6.3978,-6.4369,-6.4483,-6.4407,-6.4099,-6.4332,-6.4699,-6.4358,-6.4714,-6.5444,-6.5513,-6.5588,-6.5612,-6.5373,-6.4521,-6.3147,-6.0501,-6.1566,-6.3003,-6.0174,-5.9875,-5.9872,-5.7437,-5.6729,-5.5993,-5.354,-5.1971,-5.1249,-5.2161,-5.078,-4.9328,-4.9236,-4.9487,-4.9676,-4.9683,-5.008,-5.0357,-5.0391,-5.0921,-5.1434,-5.1526,-5.2295,-5.2269,-5.1045,-5.13,-5.1149,-5.0388,-5.0671,-5.1224,-5.2146,-5.2178,-5.3574,-5.6664,-5.4801,-5.5174,-5.8456,-5.4372,-5.377,-5.6785,-5.5719,-5.5946,-5.7462,-5.8427,-5.908,2.1678,2.3344,2.4997,2.6601,2.7617,2.781,2.606,2.4884,2.3412,2.0916,1.9905,1.9944,2.1503,2.2136,2.2462,2.2734,2.4412,2.3656,1.7991,1.8221,1.7829,0.0,0.0,0.0,1.3423,1.5464,1.6151,1.4335,1.4592,1.2221,0.6231,-0.009,-0.4917,-0.7945,-1.0121,-1.6649,-2.8006,-3.4777,-4.04,-4.4974,-5.1528,-5.5999,-5.8443,-5.9907,-6.1368,-6.2693,-6.3584,-6.3825,-6.3494,-6.4407,-6.452,-6.4096,-6.3871,-6.4105,-6.4471,-6.3378,-6.3997,-6.5405,-6.5437,-6.5643,-6.5893,-6.5828,-6.4784,-6.3535,-6.3233,-6.3382,-6.3195,-6.1191,-6.0083,-5.9197,-5.7675,-5.703,-5.5902,-5.2858,-5.2146,-5.1735,-5.024,-5.0255,-5.032,-4.9379,-4.9773,-5.0134,-4.9752,-5.0257,-5.0798,-5.1011,-5.089,-5.0919,-5.115,-5.0493,-5.0175,-5.0801,-5.2686,-5.316,-5.1263,-5.2527,-5.3606,-5.3922,-5.3997,-5.4808,-5.6735,-5.6203,-5.6718,-5.849,-5.6947,-5.6382,-5.6896,-5.6972,-5.7163,-5.7533,-5.8528,-5.8978,2.4526,2.5288,2.6047,2.7982,2.7683,2.6606,2.5468,2.3998,2.2271,2.022,1.9465,1.9575,2.0873,2.1522,2.2106,2.2767,2.3525,2.3213,2.092,2.0615,0.0,1.8211,1.8573,0.0,0.0,0.0,1.6849,1.5593,1.5172,1.3919,1.1415,0.7069,0.2069,-0.34,-0.5142,-1.321,-2.8278,-3.3265,-4.0068,-4.8683,-5.3749,-5.8036,-6.1478,-6.1079,-6.2095,-6.4219,-6.4506,-6.4807,-6.5015,-6.5317,-6.5356,-6.5283,-6.5039,-6.5085,-6.5222,-6.4622,-6.478,-6.5404,-6.5383,-6.5474,-6.547,-6.4897,-6.4368,-6.3831,-6.3668,-6.3624,-6.3282,-6.1871,-6.1091,-6.0249,-5.8554,-5.7219,-5.5893,-5.4688,-5.3192,-5.2054,-5.1953,-5.0947,-5.0089,-5.0244,-5.0017,-4.9922,-5.018,-5.0292,-5.0366,-5.0459,-5.0746,-5.1179,-5.1685,-5.1813,-5.1828,-5.1597,-5.1773,-5.1786,-5.1502,-5.2146,-5.2679,-5.2964,-5.3036,-5.387,-5.5656,-5.4905,-5.5346,-5.7261,-5.6174,-5.601,-5.6988,-5.7171,-5.7594,-5.828,-5.8667,-5.9081,2.6076,2.6729,2.7522,2.9422,2.8313,2.6518,2.5518,2.3703,2.1675,1.9664,1.9332,1.9682,2.0636,2.1423,2.2246,2.3143,2.3255,2.3174,2.3047,2.2508,0.0,0.0,0.0,2.1129,2.0378,1.8933,1.7988,1.7929,1.7789,1.7383,1.6641,1.5922,1.0606,-0.0194,-0.1839,-1.0849,-2.8256,-3.1981,-3.9642,-5.1361,-5.5449,-5.9503,-6.3174,-6.2412,-6.3245,-6.5388,-6.5329,-6.5601,-6.5992,-6.5915,-6.5972,-6.6084,-6.5943,-6.5807,-6.5628,-6.536,-6.5261,-6.5245,-6.5261,-6.5238,-6.5117,-6.4407,-6.4403,-6.4469,-6.3438,-6.3288,-6.3289,-6.2631,-6.1729,-6.072,-5.9086,-5.7127,-5.5584,-5.5358,-5.3873,-5.2516,-5.2618,-5.1493,-5.0493,-5.0826,-5.0511,-5.0289,-5.0657,-5.0385,-5.0145,-5.0145,-5.0538,-5.0976,-5.1494,-5.2046,-5.2241,-5.1907,-5.116,-5.0921,-5.1673,-5.181,-5.2157,-5.284,-5.3045,-5.382,-5.5269,-5.4427,-5.4701,-5.6471,-5.5888,-5.6048,-5.7187,-5.7509,-5.8065,-5.884,-5.884,-5.9045,2.5466,2.7643,3.0024,3.1186,3.0507,2.9105,2.7296,2.4892,2.231,1.9659,1.9632,2.0372,2.1297,2.2209,2.305,2.387,2.4657,2.4751,2.3466,2.3625,2.3433,0.0,0.0,2.2293,2.0999,1.9948,1.9885,2.1079,2.2799,2.3011,2.1135,2.5731,1.9786,0.087,-0.1325,-1.0575,-2.8082,-3.0738,-3.9183,-5.3411,-5.6745,-6.0139,-6.3355,-6.4444,-6.529,-6.5781,-6.6007,-6.5992,-6.5837,-6.6031,-6.6084,-6.6113,-6.609,-6.5812,-6.538,-6.5048,-6.4923,-6.4918,-6.4895,-6.492,-6.4883,-6.4882,-6.5351,-6.5373,-6.2798,-6.2519,-6.313,-6.3506,-6.191,-5.9879,-5.894,-5.684,-5.4839,-5.4119,-5.3732,-5.3047,-5.1015,-5.1526,-5.2051,-5.0928,-5.1296,-5.1564,-5.0992,-5.0735,-5.0598,-5.0598,-5.0223,-5.0011,-5.0011,-5.0045,-5.0379,-5.1246,-5.1315,-5.1511,-5.2029,-5.2099,-5.283,-5.4579,-5.4869,-5.5313,-5.6043,-5.5598,-5.5681,-5.6505,-5.6918,-5.7153,-5.7397,-5.8358,-5.884,-5.9012,-5.9012,-5.8909,2.4364,2.5646,2.6854,2.7411,2.664,2.5525,2.4535,2.2729,2.0949,1.9938,1.9827,2.0419,2.1978,2.2395,2.319,2.5194,2.5679,2.5884,0.0,0.0,0.0,2.4405,2.5399,2.5047,2.2072,2.4367,2.5308,2.3458,2.3809,2.4721,2.6133,2.6845,1.9667,0.3194,0.4336,-0.7125,-3.281,-3.4891,-4.3656,-5.9151,-6.1207,-6.278,-6.3881,-6.4834,-6.5371,-6.562,-6.6288,-6.6522,-6.6421,-6.6499,-6.6477,-6.6426,-6.6407,-6.6281,-6.6119,-6.6024,-6.6008,-6.5886,-6.5138,-6.4915,-6.4845,-6.437,-6.4065,-6.36,-6.2392,-6.2157,-6.2296,-6.2089,-6.1105,-6.0,-5.9434,-5.7763,-5.579,-5.4092,-5.3071,-5.2296,-5.1762,-5.146,-5.1224,-5.1541,-5.136,-5.1262,-5.1564,-5.1288,-5.09,-5.0639,-5.0488,-5.0326,-5.0021,-5.0092,-5.0275,-5.0632,-5.0689,-5.1142,-5.2268,-5.2555,-5.2874,-5.3271,-5.3602,-5.4046,-5.4695,-5.381,-5.3873,-5.512,-5.5135,-5.5446,-5.6159,-5.7116,-5.7694,-5.7825,-5.7825,-5.7825,2.3248,2.4762,2.5931,2.6236,2.5103,2.3846,2.3443,2.1514,1.9763,1.9487,1.9785,2.047,2.1654,2.2273,2.3081,2.467,2.4835,2.5517,0.0,0.0,0.0,2.8065,2.8285,2.7627,2.5763,2.7296,2.8237,2.7889,2.814,2.8807,2.9954,3.0722,2.327,0.6114,0.805,-0.4385,-3.3024,-3.4236,-4.3013,-5.9396,-6.0681,-6.2196,-6.3938,-6.436,-6.4726,-6.5033,-6.5588,-6.5875,0.0,-6.6047,-6.5738,-6.525,-6.5723,-6.6096,-6.6397,-6.646,-6.6459,-6.623,-6.5273,-6.4883,-6.4841,-6.4407,-6.3123,-6.179,-6.1982,-6.1989,-6.1877,-6.1235,-5.9576,-5.8207,-5.9114,-5.7694,-5.5689,-5.4326,-5.3414,-5.2682,-5.2203,-5.1663,-5.146,-5.1849,-5.1578,-5.146,-5.2065,-5.1732,-5.1358,-5.1142,-5.085,-5.0522,-5.0341,-5.0264,-5.0228,-5.0397,-5.0453,-5.0837,-5.1697,-5.1939,-5.1996,-5.1882,-5.2201,-5.2607,-5.3264,-5.2705,-5.3073,-5.4444,-5.4876,-5.5425,-5.6248,-5.7202,-5.7771,-5.7867,-5.7719,-5.7631,0.0,2.4399,2.6389,2.665,2.5139,2.3599,2.339,2.1057,0.0,1.8612,1.9504,2.042,2.0778,2.1965,2.2867,2.3033,2.2989,2.4218,0.0,2.8275,0.0,0.0,3.108,3.0224,3.1326,2.9371,2.9699,3.3761,3.4721,3.4454,3.2966,3.6245,2.9176,0.9479,1.0096,-0.2461,-2.998,-3.0304,-3.8774,-5.5531,-5.6532,-5.9191,-6.3292,-6.318,-6.3489,-6.4016,-6.41,-6.4298,-6.4584,-6.4893,-6.4174,-6.3078,-6.4304,-6.5297,-6.5993,-6.6105,-6.6045,-6.5759,-6.4923,-6.4709,-6.4731,-6.4723,-6.2597,-6.0282,-6.1503,-6.1894,-6.1753,-6.0504,-5.7384,-5.5075,-5.7856,-5.6567,-5.4566,-5.45,-5.433,-5.3818,-5.2203,-5.2213,-5.2387,-5.202,-5.1948,-5.2059,-5.2483,-5.2163,-5.1934,-5.2101,-5.1405,-5.0857,-5.0995,-5.0703,-5.0571,-5.0683,-5.0815,-5.0889,-5.0889,-5.071,-5.0585,-5.0585,-5.0854,-5.1349,-5.2067,-5.237,-5.316,-5.4599,-5.5801,-5.6705,-5.7239,-5.8267,-5.8735,-5.8771,-5.8245,-5.8048,1.9441,0.0,2.147,2.0979,2.088,2.0749,0.0,1.943,1.8937,1.907,1.9334,2.0176,2.2165,2.2233,2.2753,2.5094,2.5363,2.6381,2.9526,0.0,0.0,3.3834,3.3663,3.3445,3.3634,3.4924,3.6001,3.66,3.5059,3.5486,3.8633,3.5776,2.7494,1.3198,1.2178,-0.2416,-3.2291,-3.3098,-4.1199,-5.6648,-5.8301,-5.9446,-6.0211,-6.1955,-6.2547,-6.2261,-6.3068,-6.3379,-6.3278,-6.3876,-6.3787,-6.3304,-6.363,-6.3806,-6.3819,-6.3086,-6.2802,-6.2686,-6.2181,-6.2644,-6.3345,-6.2851,-6.2183,-6.1426,-6.063,-6.1128,-6.119,-5.7081,-5.4842,-5.3909,-5.4898,-5.4262,-5.3212,-5.2438,-5.2337,-5.2303,-5.1796,-5.2034,-5.2572,-5.3045,-5.2974,-5.313,-5.3775,-5.3168,-5.2721,-5.3437,-5.3038,-5.271,-5.293,-5.3122,-5.3281,-5.3281,-5.3605,-5.3806,-5.3806,-5.1953,-5.0729,-5.0585,-5.1635,-5.252,-5.3227,-5.3584,-5.4438,-5.5881,-5.6347,-5.6743,-5.7009,-5.7345,-5.7557,-5.7557,-5.7402,-5.7349,1.8229,1.9353,2.0441,1.9899,1.9891,1.99,1.9519,1.8877,1.8449,1.8574,1.9144,2.0,2.1224,2.2309,2.3291,2.4166,2.6423,0.0,0.0,0.0,3.3776,3.5447,3.5102,3.5366,3.6999,3.7875,3.8821,3.9966,3.8531,3.7791,3.8157,3.2934,2.4091,1.143,0.7819,-0.5611,-3.0061,-3.0824,-3.8246,-5.2277,-5.3917,-5.5372,-5.6648,-5.8181,-5.8841,-5.8991,-6.0186,-6.0221,-5.9614,-6.1824,-6.2221,-6.1516,-6.2134,-6.2383,-6.2332,-6.1797,-6.1162,-6.0617,-6.0888,-6.187,-6.2739,-6.1261,-6.064,-6.0397,-5.9562,-5.9567,-5.9247,-5.6492,-5.5097,-5.4503,-5.5196,-5.4643,-5.3679,-5.3168,-5.2955,-5.2716,-5.2295,-5.2217,-5.2306,-5.249,-5.2506,-5.2681,-5.3314,-5.2915,-5.2762,-5.3334,-5.2962,-5.2695,-5.287,-5.2996,-5.3003,-5.3103,-5.3519,-5.3854,-5.3916,-5.2707,-5.2089,-5.2394,-5.2758,-5.3289,-5.4025,-5.4589,-5.5548,-5.6927,-5.7315,-5.7606,-5.77,-5.7794,-5.784,-5.7794,-5.7558,-5.7462,1.7907,1.9972,2.185,2.0753,2.0243,2.0002,2.0002,1.9022,1.8143,1.8143,1.9123,2.0068,2.0218,2.241,2.3861,2.2904,0.0,0.0,3.468,3.525,3.606,3.8089,3.6882,3.7249,4.0558,3.9643,3.9762,4.2018,4.1438,3.9021,3.438,2.8603,1.9878,0.7687,0.1379,-0.9511,-2.5682,-2.6609,-3.3321,-4.5714,-4.7448,-4.9805,-5.2794,-5.3724,-5.4665,-5.5562,-5.6769,-5.6654,-5.5876,-5.9223,-6.007,-5.9319,-6.0281,-6.0904,-6.1312,-6.1245,-6.041,-5.9446,-6.0393,-6.1594,-6.2322,-6.022,-5.9148,-5.8725,-5.871,-5.8104,-5.7381,-5.7288,-5.6417,-5.5716,-5.6586,-5.5869,-5.4896,-5.4703,-5.4391,-5.3987,-5.3156,-5.2658,-5.2295,-5.22,-5.2175,-5.2369,-5.2916,-5.2857,-5.2923,-5.3288,-5.2729,-5.2431,-5.2678,-5.2516,-5.245,-5.2701,-5.3266,-5.3654,-5.3894,-5.3829,-5.4223,-5.5275,-5.4418,-5.4262,-5.5301,-5.5752,-5.6635,-5.7949,-5.8412,-5.8739,-5.9052,-5.9163,-5.9238,-5.9238,-5.8591,-5.8297,1.83,2.2259,2.5144,2.0391,1.9596,2.0002,2.0002,1.9833,1.9664,1.9664,1.9833,2.0787,2.3358,2.3224,2.3471,2.5765,3.0057,3.4289,0.0,0.0,4.1602,4.3548,4.1867,4.121,4.2876,4.1994,4.0393,3.811,3.6813,3.4276,3.0001,2.373,1.5958,0.6571,-0.1139,-1.0417,-2.1556,-2.4323,-3.1105,-4.1817,-4.4327,-4.68,-4.9202,-5.193,-5.3471,-5.4125,-5.4783,-5.5569,-5.6316,-5.6856,-5.7925,-5.9152,-5.8437,-5.9095,-6.0423,-6.005,-5.9808,-5.9721,-5.9907,-6.0468,-6.1057,-6.0699,-5.9728,-5.8686,-5.869,-5.8433,-5.8134,-5.7729,-5.6767,-5.5857,-5.5742,-5.5648,-5.5366,-5.4241,-5.4291,-5.4415,-5.3688,-5.3576,-5.4029,-5.5304,-5.5091,-5.5136,-5.6536,-5.5522,-5.4894,-5.5998,-5.5295,-5.4802,-5.5512,-5.5683,-5.6104,-5.6853,-5.7266,-5.7747,-5.846,-5.725,-5.7137,-5.8652,-5.6929,-5.6704,-5.8577,-5.7862,-5.8013,-5.9248,-5.9103,-5.9515,-6.066,-6.1379,-6.1754,-6.1719,-6.0605,-6.0113,1.8555,2.0984,2.3401,2.3851,2.6199,2.8256,2.7762,2.7346,2.6386,2.4169,2.403,2.4303,2.4229,2.6317,2.9897,3.5572,3.5846,3.6713,4.0635,4.0973,4.1297,4.2679,4.2357,4.2473,4.3614,4.2842,4.0911,3.7621,3.5111,3.0544,2.3401,1.6468,0.9137,0.1398,-0.599,-1.2993,-1.9336,-2.2414,-2.8287,-3.7084,-4.0827,-4.2998,-4.3913,-4.7357,-4.9128,-4.9491,-5.1094,-5.2145,-5.287,-5.4023,-5.514,-5.624,-5.7024,-5.7901,-5.874,-5.8603,-5.8458,-5.8376,-5.9084,-5.9792,-6.0424,-6.0829,-6.0456,-5.9798,-5.9625,-5.9397,-5.9022,-5.853,-5.7556,-5.6561,-5.6166,-5.6035,-5.5816,-5.5177,-5.5036,-5.4936,-5.4697,-5.4544,-5.4553,-5.5026,-5.4911,-5.5016,-5.575,-5.5831,-5.5926,-5.6276,-5.5865,-5.5697,-5.6178,-5.6444,-5.6743,-5.7263,-5.7612,-5.8028,-5.847,-5.7946,-5.7764,-5.8235,-5.8148,-5.8528,-5.9564,-5.9125,-5.9087,-5.9706,-5.9571,-5.9983,-6.1017,-6.1397,-6.1814,-6.2302,-6.1719,-6.146,1.8978,2.0401,2.2761,2.7211,3.0374,3.2814,3.4379,3.359,3.1923,2.9876,3.0088,2.9746,2.682,3.0003,3.5316,4.2006,4.0271,3.9546,4.3632,4.2423,4.1361,4.2081,4.2697,4.3104,4.323,4.2314,3.9903,3.5494,3.2375,2.635,1.6474,0.9882,0.3533,-0.2772,-0.9981,-1.484,-1.7268,-2.1524,-2.6637,-3.2728,-3.7147,-3.9336,-3.9661,-4.3101,-4.5077,-4.5896,-4.7531,-4.8841,-4.986,-5.1535,-5.2656,-5.3588,-5.5196,-5.6102,-5.6549,-5.7315,-5.7309,-5.7029,-5.8045,-5.8942,-5.9859,-6.0888,-6.0866,-6.0411,-6.0387,-6.0027,-5.9566,-5.9257,-5.8427,-5.7523,-5.7157,-5.6876,-5.6685,-5.658,-5.6284,-5.6016,-5.6038,-5.568,-5.5285,-5.4926,-5.4962,-5.509,-5.5166,-5.5992,-5.6628,-5.674,-5.663,-5.663,-5.6729,-5.6866,-5.7073,-5.746,-5.773,-5.7989,-5.8196,-5.8333,-5.827,-5.7886,-5.913,-5.9977,-6.0074,-5.9845,-5.9845,-6.0074,-6.0015,-6.0403,-6.1241,-6.1659,-6.2192,-6.2833,-6.2737,-6.2705,1.9697,2.3236,2.6936,2.8031,2.5735,2.5561,3.4413,3.3612,3.2117,3.6271,3.7839,3.7451,3.3996,3.3701,3.4931,3.7853,4.039,4.327,4.6946,4.6228,4.538,4.559,4.5221,4.3973,4.1534,3.998,3.598,2.8307,2.6014,2.0514,1.0149,0.5937,0.1835,-0.2686,-1.0789,-1.4801,-1.4094,-2.2441,-2.7567,-2.9564,-3.3515,-3.6478,-3.8687,-4.0801,-4.3397,-4.6096,-4.553,-4.6968,-4.9882,-4.9786,-5.0945,-5.269,-5.2237,-5.2704,-5.3982,-5.6361,-5.6983,-5.6638,-5.6792,-5.7674,-5.9033,-6.1015,-6.0612,-5.9469,-6.0388,-5.9903,-5.9138,-5.9638,-5.9217,-5.8634,-5.8422,-5.8512,-5.8595,-5.8079,-5.8005,-5.7925,-5.7373,-5.7223,-5.7226,-5.7154,-5.7175,-5.727,-5.7504,-5.7021,-5.7186,-5.8897,-5.883,-5.8448,-5.8135,-5.8175,-5.8568,-5.9418,-5.9515,-5.9609,-5.9736,-5.9697,-5.973,-5.9793,-6.0422,-6.0846,-6.0886,-6.0036,-5.9959,-6.0886,-6.0602,-6.0988,-6.2002,-6.3578,-6.4385,-6.4424,-6.4116,-6.3962,1.9799,2.3934,2.811,2.8283,2.8323,3.0513,3.9119,3.9944,3.9523,4.1723,4.2908,4.2297,3.821,3.9942,4.2069,4.2291,4.5533,4.8313,4.9333,4.915,4.853,4.7334,4.6272,4.4984,4.3503,3.8769,3.3887,2.8995,2.1754,1.4232,0.6549,0.1839,-0.2665,-0.7215,-1.1327,-1.4262,-1.587,-2.0998,-2.4244,-2.5716,-3.1651,-3.5283,-3.6633,-3.8666,-4.0153,-4.1151,-4.1482,-4.3348,-4.6103,-4.5776,-4.7139,-4.9429,-5.039,-5.1402,-5.2587,-5.4452,-5.4643,-5.417,-5.5744,-5.672,-5.7567,-5.8958,-5.9152,-5.8897,-5.9347,-5.9171,-5.886,-5.8969,-5.8808,-5.8681,-5.9001,-5.9197,-5.9265,-5.908,-5.9053,-5.9022,-5.8801,-5.8798,-5.849,-5.7629,-5.787,-5.7957,-5.7183,-5.8023,-5.9043,-5.9905,-5.9307,-5.8818,-5.9027,-5.8645,-5.8471,-5.8856,-5.8892,-5.9121,-5.9736,-5.932,-5.9312,-5.9901,-6.067,-6.0887,-6.0383,-6.0476,-6.0476,-6.0383,-6.0721,-6.1384,-6.2334,-6.3553,-6.4058,-6.399,-6.4926,-6.4999,2.0696,2.3784,2.7393,2.9125,3.0552,3.4017,4.3331,4.4039,4.3829,4.7619,4.7799,4.632,4.3273,4.4945,4.6525,4.5739,4.8975,5.1395,5.0972,5.0566,4.9613,4.7755,4.6362,4.4435,4.1755,3.5917,3.0514,2.6367,1.7479,0.9814,0.4229,-0.0371,-0.4639,-0.8952,-1.1063,-1.34,-1.6414,-1.9462,-2.1994,-2.3966,-2.9517,-3.259,-3.3601,-3.5812,-3.7208,-3.7892,-3.8661,-4.0435,-4.2663,-4.2723,-4.4291,-4.6803,-4.8908,-5.0161,-5.0944,-5.2315,-5.2632,-5.2566,-5.4074,-5.5207,-5.6078,-5.7082,-5.7629,-5.8009,-5.8442,-5.8363,-5.8183,-5.8359,-5.8231,-5.8226,-5.8855,-5.9065,-5.9158,-5.9219,-5.9149,-5.9139,-5.9163,-5.9243,-5.8896,-5.7674,-5.7884,-5.7986,-5.7178,-5.8392,-5.949,-5.9608,-5.9027,-5.8741,-5.9265,-5.8862,-5.8556,-5.8571,-5.8569,-5.8826,-5.9437,-5.886,-5.8812,-5.9591,-6.0215,-6.0272,-5.9697,-6.0239,-6.0277,-5.9646,-6.0462,-6.1019,-6.1289,-6.2726,-6.3324,-6.3282,-6.5004,-6.5507,2.2541,2.2949,2.4896,3.0571,3.147,3.4157,4.6337,4.4633,4.3461,5.4018,5.2781,4.9771,4.9732,4.8173,4.6873,4.6851,4.9626,5.1818,5.186,5.0125,4.8354,4.686,4.5462,4.1952,3.5099,3.0872,2.5718,1.8679,1.296,0.7712,0.2935,-0.0384,-0.3399,-0.6541,-0.9711,-1.256,-1.5001,-1.8147,-2.1481,-2.5081,-2.6516,-2.7976,-2.9509,-3.2284,-3.4844,-3.7193,-3.7441,-3.8639,-4.0379,-4.113,-4.2869,-4.5214,-4.7631,-4.87,-4.8967,-5.0063,-5.1236,-5.2258,-5.1773,-5.2791,-5.4516,-5.5693,-5.6256,-5.6703,-5.7905,-5.7681,-5.7156,-5.7937,-5.7612,-5.7225,-5.7955,-5.8163,-5.8178,-5.8374,-5.8334,-5.8289,-5.8312,-5.8402,-5.827,-5.7468,-5.729,-5.7463,-5.7905,-5.7977,-5.8009,-5.802,-5.8109,-5.8316,-5.8733,-5.89,-5.897,-5.8984,-5.8984,-5.8984,-5.8984,-5.8474,-5.8393,-5.8943,-5.9023,-5.9,-5.8888,-5.9033,-5.9039,-5.888,-5.9747,-5.9694,-5.8725,-6.1259,-6.2502,-6.2531,-6.4294,-6.5442,1.951,2.6249,3.3019,3.0346,3.7431,4.5818,4.8544,4.7328,4.7752,5.5327,5.5769,5.3766,5.0552,5.2296,5.2924,4.9048,5.1106,5.3361,5.3778,5.1158,4.8209,4.5603,4.331,3.9181,3.2383,2.7086,2.1915,1.6808,0.9491,0.4092,0.171,-0.2705,-0.61,-0.7833,-1.0745,-1.3856,-1.7032,-1.8455,-2.0659,-2.3631,-2.4283,-2.6155,-2.9152,-3.144,-3.2755,-3.3522,-3.4945,-3.6582,-3.8309,-4.0407,-4.1546,-4.2228,-4.4174,-4.4623,-4.4423,-4.6106,-4.6806,-4.7133,-4.8539,-4.9946,-5.142,-5.2739,-5.3755,-5.4554,-5.5407,-5.5465,-5.5224,-5.5499,-5.5023,-5.4472,-5.4682,-5.4304,-5.459,-5.7551,-5.8108,-5.8001,-5.8242,-5.8233,-5.7981,-5.7402,-5.784,-5.7923,-5.6831,-5.7378,-5.7962,-5.7999,-5.7254,-5.6792,-5.6952,-5.6939,-5.6879,-5.6904,-5.6842,-5.7063,-5.7694,-5.7081,-5.6948,-5.7705,-5.7328,-5.7372,-5.8084,-5.8743,-5.8782,-5.8121,-5.8979,-5.9595,-5.9915,-6.1275,-6.2212,-6.2764,-6.4438,-6.5297,2.4112,3.0849,3.7469,3.8216,4.4341,5.0483,5.1718,5.2375,5.3623,5.6868,5.7755,5.6966,5.3799,5.5296,5.5769,5.1998,5.3026,5.4153,5.3656,5.0725,4.7515,4.4696,4.0723,3.5841,2.9738,2.381,1.8518,1.429,0.7053,0.2139,0.0654,-0.4134,-0.7643,-0.9764,-1.1574,-1.4341,-1.8235,-1.8248,-1.9537,-2.2328,-2.2652,-2.4311,-2.7196,-2.9733,-3.0976,-3.1227,-3.3592,-3.5259,-3.642,-3.8568,-3.9431,-3.967,-4.1062,-4.1543,-4.1565,-4.2884,-4.3816,-4.4656,-4.624,-4.774,-4.9151,-5.0624,-5.1509,-5.2212,-5.3089,-5.3379,-5.3414,-5.3103,-5.2714,-5.2365,-5.2247,-5.2065,-5.2731,-5.5745,-5.6287,-5.6343,-5.7103,-5.7128,-5.6931,-5.6658,-5.703,-5.7064,-5.6036,-5.6514,-5.7065,-5.7102,-5.6542,-5.6152,-5.6205,-5.6047,-5.5947,-5.5975,-5.6394,-5.6835,-5.7159,-5.7236,-5.7533,-5.8168,-5.7503,-5.7644,-5.8996,-5.873,-5.8514,-5.8311,-5.9485,-6.0192,-6.039,-6.1953,-6.292,-6.3377,-6.4737,-6.5502,3.2434,3.5708,3.9719,5.0244,5.137,5.1065,5.555,5.8478,5.9847,5.8385,5.8835,5.9166,5.8267,5.7341,5.6357,5.5256,5.4969,5.4171,5.2251,4.9127,4.6153,4.3433,3.7902,3.2093,2.6753,2.0837,1.5478,1.1305,0.5594,0.1485,-0.0393,-0.4517,-0.8127,-1.1202,-1.1809,-1.4242,-1.8609,-1.7547,-1.8389,-2.1218,-2.169,-2.2613,-2.4039,-2.7586,-2.9581,-3.0514,-3.3147,-3.4481,-3.4823,-3.5998,-3.6887,-3.7495,-3.8324,-3.9144,-3.9789,-4.0054,-4.1607,-4.3666,-4.446,-4.5763,-4.7417,-4.8884,-4.9409,-4.9672,-5.0667,-5.1215,-5.1286,-5.0551,-5.0326,-5.0373,-5.0149,-5.0725,-5.1677,-5.3003,-5.3467,-5.4001,-5.5284,-5.5423,-5.5314,-5.5393,-5.5363,-5.5379,-5.539,-5.5547,-5.5651,-5.573,-5.5913,-5.6058,-5.6045,-5.5854,-5.5745,-5.5884,-5.7004,-5.7564,-5.7217,-5.8278,-5.9145,-5.9572,-5.891,-5.9254,-6.0925,-5.8996,-5.83,-5.9156,-6.0691,-6.116,-6.049,-6.292,-6.4139,-6.4218,-6.5077,-6.5837,2.7677,3.6479,4.619,4.9552,5.4728,5.898,5.8588,6.0019,6.0789,5.8489,5.9064,5.971,5.8989,5.8728,5.8145,5.6616,5.446,5.262,5.1643,4.7236,4.2653,3.8516,3.4043,2.8549,2.1189,1.6786,1.2163,0.6813,0.3789,0.1066,-0.1555,-0.3863,-0.5958,-0.7888,-1.0151,-1.3251,-1.695,-1.7325,-1.8608,-2.1074,-2.0737,-2.1299,-2.2612,-2.6459,-2.9829,-3.2752,-3.339,-3.3916,-3.4359,-3.5355,-3.5451,-3.5017,-3.6535,-3.6802,-3.6354,-3.6949,-3.805,-3.945,-4.0753,-4.2284,-4.4103,-4.6021,-4.6914,-4.7301,-4.7496,-4.7563,-4.7369,-4.6646,-4.6259,-4.6261,-4.6995,-4.7125,-4.7467,-4.9153,-5.1731,-5.3938,-5.4279,-5.4129,-5.4016,-5.4352,-5.4591,-5.478,-5.4769,-5.4874,-5.5028,-5.5199,-5.5197,-5.5107,-5.4877,-5.4931,-5.5189,-5.5846,-5.6101,-5.6451,-5.6983,-5.7539,-5.8158,-5.8873,-5.9072,-5.9948,-6.1597,-5.9619,-5.8939,-5.9799,-6.033,-6.0822,-6.1359,-6.2574,-6.3525,-6.4206,-6.5026,-6.5545,3.0384,3.8218,4.6057,5.2348,5.8154,6.1811,5.9596,6.0449,6.1115,5.926,5.9336,5.9526,5.8872,5.856,5.7801,5.6204,5.4119,5.214,5.0276,4.5669,4.1373,3.8387,3.2007,2.6002,2.1264,1.6526,1.1876,0.7305,0.5413,0.2785,-0.104,-0.2691,-0.4913,-0.7675,-0.9323,-1.1927,-1.5729,-1.6127,-1.7693,-2.026,-2.026,-2.0907,-2.2184,-2.6041,-2.9172,-3.1629,-3.2616,-3.3227,-3.3715,-3.427,-3.4351,-3.4139,-3.4917,-3.4985,-3.4532,-3.5193,-3.6015,-3.7004,-3.8613,-3.9782,-4.0946,-4.2952,-4.3502,-4.3592,-4.4426,-4.4516,-4.4363,-4.4042,-4.3809,-4.3735,-4.4257,-4.4857,-4.5538,-4.6212,-4.8905,-5.1697,-5.335,-5.3031,-5.2478,-5.2895,-5.342,-5.3796,-5.3645,-5.4046,-5.4505,-5.4814,-5.4752,-5.4696,-5.4648,-5.4996,-5.541,-5.5832,-5.6522,-5.7167,-5.7582,-5.8509,-5.9441,-6.0236,-6.0616,-6.1583,-6.3332,-6.1769,-6.1109,-6.1668,-6.2263,-6.283,-6.3263,-6.3847,-6.4326,-6.4794,-6.5217,-6.5434,3.3069,3.9373,4.4994,5.576,6.0703,6.2288,5.989,6.0413,6.1102,6.0087,5.97,5.9403,5.885,5.821,5.7294,5.5581,5.4026,5.1976,4.8823,4.4332,4.0716,3.8663,3.0502,2.4436,2.2926,1.7292,1.238,0.9342,0.7472,0.4649,0.0393,-0.1279,-0.3896,-0.7889,-0.8273,-1.0379,-1.4579,-1.4718,-1.5937,-1.8539,-1.9361,-2.047,-2.1614,-2.5218,-2.7463,-2.8782,-3.0711,-3.174,-3.2267,-3.2477,-3.3003,-3.3476,-3.2982,-3.2836,-3.2969,-3.3235,-3.3887,-3.4798,-3.6625,-3.75,-3.814,-3.9723,-3.9873,-3.9782,-4.1263,-4.1581,-4.1595,-4.1883,-4.1966,-4.2045,-4.2202,-4.3427,-4.4626,-4.4322,-4.6041,-4.859,-5.1722,-5.1455,-5.0721,-5.1203,-5.2209,-5.2857,-5.2528,-5.3293,-5.4019,-5.4228,-5.4176,-5.4231,-5.4371,-5.5032,-5.5532,-5.5758,-5.7148,-5.8125,-5.8347,-5.9813,-6.109,-6.1882,-6.2322,-6.3255,-6.4845,-6.402,-6.3603,-6.3753,-6.4498,-6.4862,-6.4862,-6.509,-6.5104,-6.4926,-6.526,-6.5285,2.5625,3.7155,4.9969,5.6331,6.0581,6.265,6.0691,6.054,6.0701,5.9883,6.0222,6.0544,6.0289,5.9781,5.8738,5.6887,5.4528,5.1566,4.7646,4.3325,3.882,3.3897,2.8643,2.4299,2.1207,1.5625,1.142,0.9722,0.6525,0.387,0.1975,0.0518,-0.1793,-0.4969,-0.6093,-0.8738,-1.3179,-1.3018,-1.3844,-1.535,-1.7393,-1.8649,-1.9611,-2.2338,-2.4205,-2.5258,-2.6685,-2.7952,-2.8906,-2.8906,-2.9919,-3.1354,-2.9587,-2.9319,-2.9708,-2.9116,-2.9782,-3.1118,-3.3087,-3.4554,-3.5704,-3.6412,-3.6882,-3.731,-3.7694,-3.8117,-3.8658,-3.943,-3.989,-4.0502,-4.1912,-4.2711,-4.3414,-4.4297,-4.4717,-4.5656,-4.7928,-4.8414,-4.8653,-4.9497,-5.1457,-5.2731,-5.1969,-5.2878,-5.3498,-5.29,-5.2754,-5.2797,-5.2797,-5.3397,-5.4298,-5.5586,-5.6424,-5.7402,-5.8557,-5.9734,-6.0828,-6.1616,-6.2598,-6.3577,-6.4558,-6.4689,-6.478,-6.4775,-6.4265,-6.3961,-6.3961,-6.417,-6.3857,-6.3106,-6.461,-6.4905,2.8172,3.9119,4.9699,5.6377,6.0155,6.187,6.0464,6.0317,6.0345,5.9962,5.9726,5.946,5.9277,5.8411,5.7392,5.6189,5.3101,4.9738,4.6807,4.2305,3.7995,3.4258,2.8992,2.4524,2.1735,1.6736,1.2635,0.9871,0.8092,0.6205,0.3682,0.2556,0.0503,-0.2657,-0.5462,-0.8278,-1.1233,-1.1765,-1.2773,-1.4304,-1.5248,-1.5923,-1.6581,-1.8465,-2.0506,-2.2696,-2.4811,-2.5915,-2.6192,-2.6574,-2.7368,-2.8257,-2.7401,-2.7252,-2.7582,-2.8192,-2.8814,-2.9704,-3.2044,-3.3243,-3.3993,-3.4828,-3.5308,-3.5705,-3.6586,-3.7076,-3.7452,-3.8552,-3.8957,-3.9228,-3.9984,-4.0801,-4.1495,-4.1765,-4.2119,-4.256,-4.3149,-4.4584,-4.5983,-4.6903,-4.9114,-5.0974,-5.1262,-5.1825,-5.2364,-5.2594,-5.2857,-5.3034,-5.3034,-5.411,-5.5112,-5.5759,-5.6478,-5.7375,-5.837,-5.9678,-6.0715,-6.1493,-6.2911,-6.3911,-6.4249,-6.4558,-6.4705,-6.4595,-6.4768,-6.4675,-6.4309,-6.4023,-6.3493,-6.2718,-6.3482,-6.3651,2.8665,3.6794,4.3731,5.2921,5.6581,5.8188,0.0,5.9423,5.9356,5.9455,5.8705,5.7959,5.7861,5.6855,5.5815,5.5191,5.1689,4.8246,4.5742,4.1176,3.7156,3.4347,2.8848,2.4288,2.2203,1.7444,1.3448,1.0665,0.9504,0.7857,0.549,0.4296,0.2241,-0.0756,-0.4221,-0.7316,-0.9686,-1.0601,-1.1757,-1.3285,-1.3215,-1.3578,-1.3979,-1.5265,-1.6915,-1.9193,-2.1978,-2.3182,-2.3142,-2.3898,-2.4682,-2.5311,-2.4959,-2.4939,-2.5395,-2.6807,-2.7456,-2.8066,-3.0765,-3.178,-3.2104,-3.2959,-3.3434,-3.3953,-3.5135,-3.5963,-3.677,-3.7896,-3.8488,-3.8814,-3.8984,-3.9757,-4.0406,-4.021,-4.0576,-4.0875,-4.0205,-4.1802,-4.3831,-4.5601,-4.7396,-4.8983,-5.031,-5.0788,-5.1299,-5.2022,-5.2487,-5.2844,-5.3109,-5.4367,-5.5389,-5.5721,-5.6443,-5.7216,-5.7898,-5.9333,-6.0457,-6.119,-6.2798,-6.3792,-6.3915,-6.4209,-6.4291,-6.4134,-6.49,-6.5022,-6.447,-6.3902,-6.3275,-6.2624,-6.2866,-6.2866,2.1568,2.5156,2.997,4.3627,4.7795,5.0214,5.6714,5.7715,5.7363,5.7753,5.7001,5.643,5.6667,5.6022,5.5131,5.4411,5.1084,4.7508,4.4524,3.9927,3.5465,3.1711,2.6985,2.3179,2.1408,1.6304,1.299,1.2681,0.9329,0.7322,0.7093,0.5199,0.316,0.1151,-0.1872,-0.5368,-0.9264,-0.9509,-1.0214,-1.1637,-1.1796,-1.2134,-1.2931,-1.3569,-1.384,-1.3857,-1.6958,-1.8744,-1.9357,-1.9992,-2.1478,-2.3024,-2.1533,-2.1652,-2.281,-2.3211,-2.4029,-2.5442,-2.7918,-2.9196,-2.9695,-2.9937,-3.0601,-3.1506,-3.2072,-3.3959,-3.6142,-3.7184,-3.8495,-3.9788,-4.0407,-4.083,-4.1083,-4.125,-4.1674,-4.1796,-4.0821,-4.1053,-4.2653,-4.6971,-4.7243,-4.7258,-4.8991,-5.0163,-5.0794,-5.0537,-5.0655,-5.1119,-5.2164,-5.2976,-5.3973,-5.5186,-5.5955,-5.6582,-5.7138,-5.8652,-5.9816,-6.0419,-6.19,-6.2977,-6.3428,-6.3749,-6.3878,-6.3749,-6.4053,-6.4065,-6.3871,-6.3565,-6.3088,-6.243,-6.3243,-6.333,2.096,2.3819,2.6994,3.6307,4.2557,4.6948,4.8817,5.2429,5.5443,5.561,5.4359,5.3143,5.2659,5.307,5.3158,5.1946,4.7916,4.411,4.1651,3.7176,3.3494,3.1558,2.7407,2.3742,2.1538,1.7434,1.4083,1.2334,1.0058,0.8419,0.7521,0.5884,0.3674,0.1104,-0.0852,-0.3351,-0.6774,-0.8196,-0.918,-0.9707,-0.9844,-1.0309,-1.1249,-1.161,-1.1939,-1.2624,-1.4495,-1.6022,-1.7358,-1.817,-1.8874,-1.947,-1.906,-1.9271,-2.0116,-2.1285,-2.2495,-2.3743,-2.6118,-2.7388,-2.8093,-2.9125,-3.032,-3.1436,-3.2509,-3.4142,-3.5644,-3.6198,-3.6759,-3.7403,-3.8182,-3.8585,-3.8945,-3.9557,-4.0193,-4.0508,-4.0182,-4.1376,-4.2878,-4.4449,-4.5154,-4.5879,-4.6834,-4.7564,-4.8265,-4.9114,-4.9588,-5.0154,-5.107,-5.1879,-5.2785,-5.408,-5.4431,-5.5168,-5.6674,-5.8136,-5.9293,-5.9962,-6.1615,-6.2682,-6.2831,-6.3205,-6.3382,-6.3252,-6.3624,-6.3802,-6.3809,-6.328,-6.2799,-6.2391,-6.2283,-6.2113,1.7694,1.9656,2.2005,2.9105,3.4169,3.8592,4.3106,4.715,5.0668,5.3014,5.1908,5.0519,4.9968,4.944,4.8873,4.7968,4.4571,4.1067,3.868,3.4696,3.1417,2.9595,2.643,2.3229,2.0539,1.7641,1.4779,1.2322,1.0847,0.9335,0.7454,0.5733,0.3701,0.1321,-0.0121,-0.1871,-0.3779,-0.6345,-0.7626,-0.7833,-0.8455,-0.92,-0.9924,-0.9877,-1.0606,-1.1572,-1.2444,-1.3609,-1.4944,-1.657,-1.6985,-1.6624,-1.7324,-1.7922,-1.8664,-2.0307,-2.1465,-2.2646,-2.4684,-2.5984,-2.6953,-2.8145,-2.9505,-3.0937,-3.2086,-3.3289,-3.4403,-3.4778,-3.5302,-3.5915,-3.6518,-3.7194,-3.807,-3.8872,-3.9481,-3.9906,-4.0114,-4.1114,-4.2158,-4.2651,-4.3469,-4.4339,-4.5139,-4.5709,-4.641,-4.759,-4.8265,-4.8957,-4.9902,-5.0657,-5.1486,-5.2585,-5.3272,-5.4166,-5.5479,-5.7094,-5.8316,-5.8988,-6.0629,-6.1729,-6.2077,-6.2622,-6.2953,-6.2953,-6.3252,-6.3542,-6.3757,-6.3556,-6.3207,-6.2723,-6.2293,-6.1989,0.0,0.0,0.0,2.169,2.2364,2.5006,3.9849,4.196,4.2748,4.961,4.9532,4.8359,4.8514,4.516,4.2451,4.2506,4.1148,3.8871,3.563,3.26,2.943,2.5782,2.3854,2.154,1.8431,1.6827,1.4935,1.2632,1.1678,0.9847,0.708,0.495,0.3183,0.1929,0.0124,-0.0761,-0.0643,-0.3781,-0.559,-0.6153,-0.7805,-0.8834,-0.8954,-0.8959,-0.9515,-1.0486,-1.0754,-1.1294,-1.2268,-1.5273,-1.5702,-1.4727,-1.6415,-1.7686,-1.8583,-1.9819,-2.09,-2.2201,-2.3405,-2.5024,-2.6453,-2.6661,-2.812,-2.9887,-3.0294,-3.1367,-3.2526,-3.2964,-3.4162,-3.5482,-3.589,-3.7142,-3.8515,-3.9355,-3.9764,-4.0192,-4.0816,-4.0282,-4.0292,-4.2158,-4.2308,-4.2617,-4.4037,-4.4868,-4.5457,-4.5904,-4.6666,-4.7603,-4.873,-4.9452,-5.0139,-5.0787,-5.2495,-5.3602,-5.3602,-5.5418,-5.6799,-5.7397,-5.8916,-6.0208,-6.1105,-6.1959,-6.25,-6.2805,-6.2805,-6.311,-6.3674,-6.4407,-6.4291,-6.3444,-6.3367,-6.3091,1.1017,0.0,0.0,0.0,0.0,0.0,2.5916,3.034,3.5034,4.0177,4.0024,3.9665,4.1413,4.0318,3.801,3.5151,3.5349,3.5054,3.2543,2.9757,2.7242,2.5767,2.3444,2.0944,1.8125,1.6737,1.5129,1.2931,1.1645,1.0293,0.8639,0.5561,0.3296,0.2255,0.0493,-0.038,-0.0257,-0.2737,-0.4372,-0.5265,-0.6469,-0.7664,-0.9109,-0.9133,-0.9347,-0.9627,-1.0414,-1.0511,-1.0205,-1.3547,-1.4354,-1.3725,-1.5413,-1.5919,-1.5649,-1.6989,-1.8197,-1.9279,-2.017,-2.1811,-2.3931,-2.5156,-2.6764,-2.8408,-2.9619,-3.0662,-3.1257,-3.1479,-3.187,-3.2617,-3.4462,-3.5679,-3.6892,-3.8608,-3.9097,-3.9362,-4.0319,-4.0267,-4.0559,-4.1775,-4.2249,-4.2596,-4.3367,-4.4317,-4.5111,-4.5341,-4.6429,-4.7352,-4.7684,-4.8881,-4.9954,-5.0542,-5.1655,-5.2809,-5.3891,-5.5041,-5.5973,-5.6799,-5.8603,-5.9924,-6.054,-6.1498,-6.2308,-6.2805,-6.2805,-6.311,-6.3674,-6.3615,-6.3708,-6.3869,-6.2568,-6.1889,1.108,1.0906,1.0708,1.1402,0.0,0.0,2.299,2.6681,3.1021,3.8463,3.8761,3.8,3.8771,3.7047,3.4644,3.2075,3.124,3.0575,2.9682,2.7458,2.5123,2.3001,2.1422,1.9318,1.6288,1.5814,1.5013,1.3183,1.1748,0.9964,0.7639,0.4973,0.3069,0.2261,0.1473,0.1009,0.0773,-0.0907,-0.2372,-0.3656,-0.509,-0.6696,-0.8474,-0.9034,-0.9264,-0.9302,-0.9941,-0.9769,-0.9341,-1.1543,-1.2557,-1.2834,-1.4611,-1.4985,-1.4563,-1.5327,-1.6426,-1.7625,-1.8011,-1.9928,-2.2466,-2.3807,-2.5513,-2.7366,-2.8938,-2.9785,-3.0138,-3.049,-3.0991,-3.2076,-3.4612,-3.5455,-3.6166,-3.8264,-3.8844,-3.9295,-4.0435,-4.0552,-4.0632,-4.1377,-4.17,-4.1973,-4.2514,-4.3371,-4.4259,-4.4788,-4.5818,-4.6655,-4.6944,-4.806,-4.8914,-4.9222,-5.0384,-5.1531,-5.2404,-5.3817,-5.5021,-5.5876,-5.7745,-5.9195,-5.9946,-6.0968,-6.1896,-6.2755,-6.2805,-6.2965,-6.3308,-6.3368,-6.3792,-6.4561,-6.2412,-6.1419,1.1562,1.0978,1.0767,1.2126,0.0,0.0,2.4642,2.6013,2.767,3.8358,3.9282,3.7757,3.6816,3.3561,3.0876,3.02,2.7706,2.6008,2.6745,2.5451,2.3024,1.917,1.8545,1.7115,1.3961,1.429,1.4361,1.3208,1.1591,0.8891,0.4914,0.3733,0.2852,0.193,0.2571,0.2628,0.2063,0.1158,-0.0,-0.1368,-0.3702,-0.5424,-0.6831,-0.8424,-0.9061,-0.9157,-0.928,-0.9275,-0.9275,-0.9853,-1.0783,-1.1939,-1.3576,-1.437,-1.4472,-1.4228,-1.5092,-1.6623,-1.685,-1.8896,-2.1573,-2.2702,-2.4671,-2.6762,-2.8325,-2.8838,-2.9094,-3.0157,-3.1305,-3.2778,-3.5378,-3.5727,-3.6094,-3.8161,-3.8785,-3.9278,-4.0671,-4.0747,-4.0485,-4.0707,-4.0965,-4.1272,-4.1828,-4.253,-4.3279,-4.4296,-4.5173,-4.5949,-4.6456,-4.7215,-4.7777,-4.7683,-4.9213,-5.0237,-5.0359,-5.2402,-5.3951,-5.4864,-5.6599,-5.8149,-5.929,-6.0317,-6.1534,-6.2778,-6.2792,-6.2805,-6.2805,-6.3498,-6.4407,-6.5329,-6.2665,-6.1419,0.0,0.0,0.0,0.0,0.0,0.0,0.0,1.2986,1.4449,1.9966,2.0169,2.0175,2.2729,2.2788,2.1769,1.9659,2.0868,2.2686,2.4169,2.3632,2.1497,1.7599,1.7043,1.5849,1.3102,1.2658,1.248,1.2321,1.0148,0.718,0.3558,0.3308,0.2885,0.193,0.2326,0.2378,0.2063,0.2191,0.1964,0.1351,-0.0689,-0.1955,-0.2527,-0.5969,-0.7625,-0.7991,-0.897,-0.9084,-0.8723,-0.9579,-1.0259,-1.0728,-1.2015,-1.2346,-1.2013,-1.2998,-1.3461,-1.4059,-1.5613,-1.7988,-2.065,-2.2438,-2.444,-2.6432,-2.7762,-2.814,-2.8498,-3.0039,-3.1073,-3.2322,-3.4022,-3.4336,-3.498,-3.7524,-3.7868,-3.7868,-3.9074,-3.9544,-3.9649,-3.932,-4.0707,-4.2038,-4.2617,-4.3227,-4.3594,-4.3273,-4.5141,-4.642,-4.5998,-4.8048,-4.9346,-4.8736,-4.964,-5.0643,-5.1467,-5.2037,-5.3078,-5.4856,-5.6036,-5.7132,-5.8142,-5.9549,-6.107,-6.2745,-6.2801,-6.2805,-6.2805,-6.4331,-6.5182,-6.5329,-6.2665,-6.1419,0.0,0.0,0.0,1.0972,0.0,0.0,0.0,0.0,1.4358,1.9131,1.9113,1.8721,2.0487,1.9788,1.8507,1.7064,1.8425,1.9287,1.8184,1.9979,2.0043,1.6348,1.535,1.4108,1.2018,1.1598,1.0824,0.9585,0.8067,0.586,0.259,0.2988,0.2905,0.1954,0.2336,0.237,0.2041,0.2443,0.2218,0.1466,0.0685,-0.0416,-0.1801,-0.3935,-0.5392,-0.6271,-0.7468,-0.8188,-0.8566,-0.8781,-0.9106,-0.9627,-1.1101,-1.1427,-1.1289,-1.1898,-1.2543,-1.3317,-1.4732,-1.713,-1.9683,-2.1727,-2.3698,-2.5562,-2.7039,-2.8144,-2.9028,-3.0344,-3.1387,-3.2418,-3.3912,-3.4242,-3.4759,-3.699,-3.6936,-3.6773,-3.8048,-3.8331,-3.8453,-3.8792,-3.9597,-4.0642,-4.167,-4.2333,-4.2683,-4.2928,-4.4521,-4.5812,-4.6077,-4.7794,-4.8921,-4.8831,-4.9192,-4.9765,-5.0723,-5.1704,-5.3014,-5.477,-5.6245,-5.7276,-5.7814,-5.9289,-6.0947,-6.2756,-6.2815,-6.2805,-6.2805,-6.3674,-6.4557,-6.5329,-6.2565,-6.1342,0.0,0.0,0.0,0.0,0.0,1.108,0.0,0.0,0.0,0.0,0.0,0.0,0.0,1.7254,1.5632,1.512,1.6027,0.0,0.0,1.5581,0.0,1.4089,1.3211,1.225,1.0509,1.0286,0.93,0.696,0.6217,0.4739,0.2055,0.2665,0.2682,0.1975,0.2344,0.236,0.2018,0.2433,0.1949,0.0527,0.1085,0.0137,-0.2195,-0.2498,-0.3215,-0.435,-0.6012,-0.7196,-0.7888,-0.787,-0.806,-0.8564,-0.993,-1.0689,-1.0822,-1.0942,-1.1869,-1.3183,-1.4218,-1.6491,-1.9277,-2.1009,-2.3076,-2.521,-2.6655,-2.8217,-2.9683,-3.0749,-3.1702,-3.2743,-3.4031,-3.4419,-3.4869,-3.643,-3.618,-3.5976,-3.7345,-3.7356,-3.7463,-3.8331,-3.8412,-3.8915,-4.0389,-4.0769,-4.1319,-4.2252,-4.3409,-4.4535,-4.5454,-4.6783,-4.7819,-4.8157,-4.8438,-4.8934,-4.9741,-5.1533,-5.3173,-5.4539,-5.6404,-5.7378,-5.7357,-5.9126,-6.0932,-6.2755,-6.2805,-6.2805,-6.2805,-6.2376,-6.3083,-6.4837,-6.2959,-6.1895,0.0,0.0,0.0,0.0,1.0997,0.0,0.0,0.0,0.9548,0.9391,0.0,0.0,0.0,0.0,0.0,0.0,0.0,0.0,0.8543,1.1162,1.2336,0.9461,1.017,1.0346,0.8765,0.8289,0.7762,0.6673,0.5098,0.3524,0.208,0.2094,0.2096,0.1977,0.2344,0.236,0.2018,0.2433,0.1819,0.0132,0.0543,-0.0275,-0.2199,-0.179,-0.1953,-0.256,-0.4866,-0.5761,-0.5801,-0.7178,-0.763,-0.7276,-0.8117,-0.8827,-0.9534,-1.0137,-1.1127,-1.249,-1.4083,-1.6901,-2.0055,-2.1195,-2.3574,-2.6133,-2.7327,-2.8307,-2.9404,-3.0969,-3.2037,-3.2779,-3.3557,-3.4086,-3.4823,-3.5893,-3.5735,-3.5575,-3.6655,-3.7292,-3.7561,-3.7234,-3.802,-3.8825,-3.9308,-3.9622,-3.9802,-4.0007,-4.1439,-4.2614,-4.278,-4.5001,-4.6578,-4.6666,-4.7789,-4.9147,-5.057,-5.1641,-5.2729,-5.3855,-5.5179,-5.5891,-5.5778,-5.8526,-6.0915,-6.2755,-6.2805,-6.2805,-6.2805,-6.0678,-6.0837,-6.3121,-6.4843,-6.4019,0.0,0.0,0.0,0.0,0.0,0.0,0.9106,0.0,0.7584,0.0,0.0,0.0,0.0,0.0,0.0,0.0,0.7629,0.0,0.0,0.0,0.9266,0.0,0.0,0.0,0.7793,0.6905,0.6495,0.6584,0.4189,0.2529,0.2084,0.1977,0.1977,0.1977,0.2099,0.2113,0.2018,0.1792,0.194,0.2342,0.0945,-0.0136,-0.0939,-0.1091,-0.1515,-0.2208,-0.2752,-0.3899,-0.5554,-0.686,-0.7204,-0.7127,-0.8217,-0.8663,-0.8848,-1.0715,-1.1608,-1.2212,-1.4656,-1.6855,-1.9088,-2.1437,-2.348,-2.5312,-2.6417,-2.7437,-2.8472,-2.9476,-3.102,-3.2356,-3.2532,-3.3707,-3.5037,-3.5883,-3.5879,-3.5895,-3.6633,-3.6733,-3.6812,-3.6838,-3.7084,-3.7455,-3.8185,-3.8731,-3.9071,-3.9071,-4.0541,-4.1738,-4.1987,-4.4115,-4.5781,-4.6373,-4.7533,-4.8934,-5.0493,-5.1411,-5.2486,-5.3908,-5.5849,-5.6542,-5.5521,-5.6729,-5.7765,-5.8589,-6.136,-6.2805,-6.2805,-6.1791,-6.1828,-6.2805,-6.3742,-6.4184,1.8166,0.0,0.0,0.0,0.0,0.0,0.0,0.0,0.0,0.0,0.0,0.0,0.0,0.0,0.0,0.0,0.0,0.6571,0.0,0.0,0.0,0.0,0.0,0.0,0.0,0.5703,0.5246,0.5771,0.343,0.191,0.1958,0.1977,0.1977,0.173,0.173,0.1866,0.2018,0.1536,0.1808,0.2854,0.1075,-0.0,-0.0663,-0.0947,-0.1499,-0.2168,-0.1642,-0.2635,-0.4653,-0.6133,-0.6905,-0.7378,-0.805,-0.8464,-0.904,-1.1608,-1.2549,-1.2943,-1.5404,-1.7289,-1.9101,-2.191,-2.349,-2.4517,-2.5638,-2.6438,-2.7296,-2.8202,-2.9744,-3.1191,-3.1692,-3.3284,-3.4898,-3.5751,-3.5947,-3.6047,-3.6784,-3.6491,-3.6304,-3.6849,-3.6538,-3.6588,-3.7497,-3.8114,-3.8489,-3.8656,-3.98,-4.0761,-4.1183,-4.3308,-4.5117,-4.5743,-4.7255,-4.8798,-5.0232,-5.1197,-5.2737,-5.5074,-5.6886,-5.7395,-5.6223,-5.6589,-5.6771,-5.6771,-6.0738,-6.2805,-6.2805,-6.2805,-6.2953,-6.3205,-6.2271,-6.3389,2.7033,2.2304,1.9109,1.1772,0.9701,0.0,0.0,0.0,0.7005,0.0,0.0,0.0,0.0,0.0,0.0,0.0,0.0,0.0,0.0,0.0,0.0,0.0,0.0,0.0,0.0,0.4621,0.4001,0.0,0.2692,0.194,0.1948,0.1977,0.173,0.1111,0.0988,0.1368,0.2018,0.2049,0.1429,0.0132,0.0802,-0.0,-0.2153,-0.1346,-0.1493,-0.2199,-0.22,-0.2233,-0.2572,-0.4866,-0.686,-0.8277,-0.6949,-0.8012,-1.0599,-1.2513,-1.3883,-1.4982,-1.6079,-1.8351,-2.1108,-2.2921,-2.3793,-2.4245,-2.5343,-2.5596,-2.6021,-2.7668,-2.8537,-2.9492,-3.1281,-3.2693,-3.385,-3.5583,-3.5833,-3.6067,-3.7144,-3.6868,-3.6596,-3.7288,-3.6964,-3.681,-3.7611,-3.778,-3.8084,-3.8577,-3.9094,-3.9564,-3.9701,-4.2422,-4.432,-4.4456,-4.7105,-4.9164,-4.978,-5.0993,-5.3422,-5.7543,-5.7887,-5.7848,-5.7819,-5.9178,-5.9931,-5.9931,-6.1806,-6.2805,-6.2805,-6.2805,-6.3336,-6.4169,-6.0904,-6.1818,3.0101,3.0349,2.93,1.8638,1.8034,1.7654,0.8442,0.0,0.0,0.0,0.0,0.0,0.0,0.0,0.0,0.0,0.0,0.0,0.0,0.0,0.0,0.0,0.0,0.0,0.0,0.0,0.0,0.0,0.2888,0.0,0.1958,0.1996,0.2373,0.2843,0.2141,0.2039,0.2561,0.2079,0.1967,0.2371,0.1203,0.0536,0.0133,-0.0536,-0.1357,-0.2202,-0.2777,-0.2674,-0.2429,-0.4619,-0.6083,-0.7221,-0.8535,-0.9894,-1.1147,-1.2527,-1.3554,-1.4446,-1.6803,-1.9016,-2.0947,-2.1718,-2.2642,-2.3749,-2.4716,-2.5222,-2.5741,-2.6806,-2.8015,-2.9107,-2.9726,-3.1608,-3.3336,-3.3962,-3.4838,-3.56,-3.5992,-3.6135,-3.6316,-3.6674,-3.6915,-3.7237,-3.7702,-3.8043,-3.8251,-3.8527,-3.9098,-3.9457,-3.9515,-4.2,-4.3936,-4.432,-4.6915,-4.9128,-5.0391,-5.1463,-5.2753,-5.4137,-5.6077,-5.7137,-5.7137,-5.76,-5.8317,-5.9351,-5.9966,-6.1091,-6.2805,-6.2805,-6.3336,-6.4247,-6.312,-6.3464,3.5037,3.5433,3.4131,2.3879,2.3094,2.2065,1.1386,0.9076,0.8633,0.0,0.0,0.0,0.0,0.0,0.0,0.0,0.0,0.0,0.0,0.0,0.0,0.0,0.0,0.0,0.0,0.0,0.0,0.0,0.0,0.0,0.0,0.21,0.2494,0.3584,0.2908,0.2566,0.2839,0.2094,0.2114,0.2655,0.134,0.0803,0.0929,0.0134,-0.0814,-0.1788,-0.2359,-0.2813,-0.3288,-0.4619,-0.6058,-0.7736,-0.9079,-1.0868,-1.2681,-1.3709,-1.4698,-1.5772,-1.7962,-1.9469,-2.0674,-2.131,-2.2115,-2.3232,-2.4113,-2.4946,-2.5658,-2.607,-2.7359,-2.8669,-2.9034,-3.0883,-3.2749,-3.3218,-3.4182,-3.517,-3.5294,-3.5397,-3.5623,-3.63,-3.6553,-3.6905,-3.7834,-3.7807,-3.782,-3.8592,-3.9059,-3.9313,-3.9356,-4.1529,-4.352,-4.4711,-4.6602,-4.8531,-5.0505,-5.1334,-5.2408,-5.3808,-5.5647,-5.6705,-5.6687,-5.6734,-5.7214,-5.8137,-5.8736,-6.0246,-6.2805,-6.2805,-6.3336,-6.4284,-6.4284,-6.4284]}]]